[[{"header":{"parameterUnit":"m.s-1","parameterCategory":1,"la1":30.6,"la2":28.766,"lo1":-90.7593,"lo2":-88.6598,"dy":0.0162,"dx":0.0183,"nx":116,"ny":114,"refTime":"2023-06-10T06:00:00:Z","depth":0,"parameterNumber":2,"parameterNumberName":"U-component_of_WINDS"},"data":[0.0,0.0,0.0,0.0,0.0,0.0,0.0,0.0,0.0,0.0,0.0,0.0,0.0,0.0,0.0,0.0,0.0,0.0,0.0,0.0,0.0,0.0,0.0,0.0,0.0,0.0,0.0,0.0,0.0,0.0,0.0,0.0,0.0,0.0,0.0,0.0,0.0,0.0,0.0,0.0,0.0,0.0,0.0,0.0,0.0,0.0,0.0,0.0,0.0,0.0,0.0,0.0,0.0,0.0,0.0,0.0,0.0,0.0,0.0,0.0,0.0,0.0,0.0,0.0,0.0,0.0,0.0,0.0,0.0,0.0,0.0,0.0,0.0,0.0,0.0,0.0,0.0,0.0,0.0,0.0,0.0,0.0,0.0,0.0,0.0,0.0,0.0,0.0,0.0,0.0,0.0,0.0,0.0,0.0,0.0,0.0,0.0,0.0,0.0,0.0,0.0,0.0,0.0,0.0,0.0,0.0,0.0,0.0,0.0,0.0,0.0,0.0,0.0,0.0,0.0,0.0,0.0,0.0,0.0,0.0,0.0,0.0,0.0,0.0,0.0,0.0,0.0,0.0,0.0,0.0,0.0,0.0,0.0,0.0,0.0,0.0,0.0,0.0,0.0,0.0,0.0,0.0,0.0,0.0,0.0,0.0,0.0,0.0,0.0,0.0,0.0,0.0,0.0,0.0,0.0,0.0,0.0,0.0,0.0,0.0,0.0,0.0,0.0,0.0,0.0,0.0,0.0,0.0,0.0,0.0,0.0,0.0,0.0,0.0,0.0,0.0,0.0,0.0,0.0,0.0,0.0,0.0,0.0,0.0,0.0,0.0,0.0,0.0,0.0,0.0,0.0,0.0,0.0,0.0,0.0,0.0,0.0,0.0,0.0,0.0,0.0,0.0,0.0,0.0,0.0,0.0,0.0,0.0,0.0,0.0,0.0,0.0,0.0,0.0,0.0,0.0,0.0,0.0,0.0,0.0,0.0,0.0,0.0,0.0,0.0,0.0,0.0,0.0,0.0,0.0,0.0,0.0,0.0,0.0,0.0,0.0,0.0,0.0,0.0,0.0,0.0,0.0,0.0,0.0,0.0,0.0,0.0,0.0,0.0,0.0,0.0,0.0,0.0,0.0,0.0,0.0,0.0,0.0,0.0,0.0,0.0,0.0,0.0,0.0,0.0,0.0,0.0,0.0,0.0,0.0,0.0,0.0,0.0,0.0,0.0,0.0,0.0,0.0,0.0,0.0,0.0,0.0,0.0,0.0,0.0,0.0,0.0,0.0,0.0,0.0,0.0,0.0,0.0,0.0,0.0,0.0,0.0,0.0,0.0,0.0,0.0,0.0,0.0,0.0,0.0,0.0,0.0,0.0,0.0,0.0,0.0,0.0,0.0,0.0,0.0,0.0,0.0,0.0,0.0,0.0,0.0,0.0,0.0,0.0,0.0,0.0,0.0,0.0,0.0,0.0,0.0,0.0,0.0,0.0,0.0,0.0,0.0,0.0,0.0,0.0,0.0,0.0,0.0,0.0,0.0,0.0,0.0,0.0,0.0,0.0,0.0,0.0,0.0,0.0,0.0,0.0,0.0,0.0,0.0,0.0,0.0,0.0,0.0,0.0,0.0,0.0,0.0,0.0,0.0,0.0,0.0,0.0,0.0,0.0,0.0,0.0,0.0,0.0,0.0,0.0,0.0,0.0,0.0,0.0,0.0,0.0,0.0,0.0,0.0,0.0,0.0,0.0,0.0,0.0,0.0,0.0,0.0,0.0,0.0,0.0,0.0,0.0,0.0,0.0,0.0,0.0,0.0,0.0,0.0,0.0,0.0,0.0,0.0,0.0,0.0,0.0,0.0,0.0,0.0,0.0,0.0,0.0,0.0,0.0,0.0,0.0,0.0,0.0,0.0,0.0,0.0,0.0,0.0,0.0,0.0,0.0,0.0,0.0,0.0,0.0,0.0,0.0,0.0,0.0,0.0,0.0,0.0,0.0,0.0,0.0,0.0,0.0,0.0,0.0,0.0,0.0,0.0,0.0,0.0,0.0,0.0,0.0,0.0,0.0,0.0,0.0,0.0,0.0,0.0,0.0,0.0,0.0,0.0,0.0,0.0,0.0,0.0,0.0,0.0,0.0,0.0,0.0,0.0,0.0,0.0,0.0,0.0,0.0,0.0,0.0,0.0,0.0,0.0,0.0,0.0,0.0,0.0,0.0,0.0,0.0,0.0,0.0,0.0,0.0,0.0,0.0,0.0,0.0,0.0,0.0,0.0,0.0,0.0,0.0,0.0,0.0,0.0,0.0,0.0,0.0,0.0,0.0,0.0,0.0,0.0,0.0,0.0,0.0,0.0,0.0,0.0,0.0,0.0,0.0,0.0,0.0,0.0,0.0,0.0,0.0,0.0,0.0,0.0,0.0,0.0,0.0,0.0,0.0,0.0,0.0,0.0,0.0,0.0,0.0,0.0,0.0,0.0,0.0,0.0,0.0,0.0,0.0,0.0,0.0,0.0,0.0,0.0,0.0,0.0,0.0,0.0,0.0,0.0,0.0,0.0,0.0,0.0,0.0,0.0,0.0,0.0,0.0,0.0,0.0,0.0,0.0,0.0,0.0,0.0,0.0,0.0,0.0,0.0,0.0,0.0,0.0,0.0,0.0,0.0,0.0,0.0,0.0,0.0,0.0,0.0,0.0,0.0,0.0,0.0,0.0,0.0,0.0,0.0,0.0,0.0,0.0,0.0,0.0,0.0,0.0,0.0,0.0,0.0,0.0,0.0,0.0,0.0,0.0,0.0,0.0,0.0,0.0,0.0,0.0,0.0,0.0,0.0,0.0,0.0,0.0,0.0,0.0,0.0,0.0,0.0,0.0,0.0,0.0,0.0,0.0,0.0,0.0,0.0,0.0,0.0,0.0,0.0,0.0,0.0,0.0,0.0,0.0,0.0,0.0,0.0,0.0,0.0,0.0,0.0,0.0,0.0,0.0,0.0,0.0,0.0,0.0,0.0,0.0,0.0,0.0,0.0,0.0,0.0,0.0,0.0,0.0,0.0,0.0,0.0,0.0,0.0,0.0,0.0,0.0,0.0,0.0,0.0,0.0,0.0,0.0,0.0,0.0,0.0,0.0,0.0,0.0,0.0,0.0,0.0,0.0,0.0,0.0,0.0,0.0,0.0,0.0,0.0,0.0,0.0,0.0,0.0,0.0,0.0,0.0,0.0,0.0,0.0,0.0,0.0,0.0,0.0,0.0,0.0,0.0,0.0,0.0,0.0,0.0,0.0,0.0,0.0,0.0,0.0,0.0,0.0,0.0,0.0,0.0,0.0,0.0,0.0,0.0,0.0,0.0,0.0,0.0,0.0,0.0,0.0,0.0,0.0,0.0,0.0,0.0,0.0,0.0,0.0,0.0,0.0,0.0,0.0,0.0,0.0,0.0,0.0,0.0,0.0,0.0,0.0,0.0,0.0,0.0,0.0,0.0,0.0,0.0,0.0,0.0,0.0,0.0,0.0,0.0,0.0,0.0,0.0,0.0,0.0,0.0,0.0,0.0,0.0,0.0,0.0,0.0,0.0,0.0,0.0,0.0,0.0,0.0,0.0,0.0,0.0,0.0,0.0,0.0,0.0,0.0,0.0,0.0,0.0,0.0,0.0,0.0,0.0,0.0,0.0,0.0,0.0,0.0,0.0,0.0,0.0,0.0,0.0,0.0,0.0,0.0,0.0,0.0,0.0,0.0,0.0,0.0,0.0,0.0,0.0,0.0,0.0,0.0,0.0,0.0,0.0,0.0,0.0,0.0,0.0,0.0,0.0,0.0,0.0,0.0,0.0,0.0,0.0,0.0,0.0,0.0,0.0,0.0,0.0,0.0,0.0,0.0,0.0,0.0,0.0,0.0,0.0,0.0,0.0,0.0,0.0,0.0,0.0,0.0,0.0,0.0,0.0,0.0,0.0,0.0,0.0,0.0,0.0,0.0,0.0,0.0,0.0,0.0,0.0,0.0,0.0,0.0,0.0,0.0,0.0,0.0,0.0,0.0,0.0,0.0,0.0,0.0,0.0,0.0,0.0,0.0,0.0,0.0,0.0,0.0,0.0,0.0,0.0,0.0,0.0,0.0,0.0,0.0,0.0,0.0,0.0,0.0,0.0,0.0,0.0,0.0,0.0,0.0,0.0,0.0,0.0,0.0,0.0,0.0,0.0,0.0,0.0,0.0,0.0,0.0,0.0,0.0,0.0,0.0,0.0,0.0,0.0,0.0,0.0,0.0,0.0,0.0,0.0,0.0,0.0,0.0,0.0,0.0,0.0,0.0,0.0,0.0,0.0,0.0,0.0,0.0,0.0,0.0,0.0,0.0,0.0,0.0,0.0,0.0,0.0,0.0,0.0,0.0,0.0,0.0,0.0,0.0,0.0,0.0,0.0,0.0,0.0,0.0,0.0,0.0,0.0,0.0,0.0,0.0,0.0,0.0,0.0,0.0,0.0,0.0,0.0,0.0,0.0,0.0,0.0,0.0,0.0,0.0,0.0,0.0,0.0,0.0,0.0,0.0,0.0,0.0,0.0,0.0,0.0,0.0,0.0,0.0,0.0,0.0,0.0,0.0,0.0,0.0,0.0,0.0,0.0,0.0,0.0,0.0,0.0,0.0,0.0,0.0,0.0,0.0,0.0,0.0,0.0,0.0,0.0,0.0,0.0,0.0,0.0,0.0,0.0,0.0,0.0,0.0,0.0,0.0,0.0,0.0,0.0,0.0,0.0,0.0,0.0,0.0,0.0,0.0,0.0,0.0,0.0,0.0,0.0,0.0,0.0,0.0,0.0,0.0,0.0,0.0,0.0,0.0,0.0,0.0,0.0,0.0,0.0,0.0,0.0,0.0,0.0,0.0,0.0,0.0,0.0,0.0,0.0,0.0,0.0,0.0,0.0,0.0,0.0,0.0,0.0,0.0,0.0,0.0,0.0,0.0,0.0,0.0,0.0,0.0,0.0,0.0,0.0,0.0,0.0,0.0,0.0,0.0,0.0,0.0,0.0,0.0,0.0,0.0,0.0,0.0,0.0,0.0,0.0,0.0,0.0,0.0,0.0,0.0,0.0,0.0,0.0,0.0,0.0,0.0,0.0,0.0,0.0,0.0,0.0,0.0,0.0,0.0,0.0,0.0,0.0,0.0,0.0,0.0,0.0,0.0,0.0,0.0,0.0,0.0,0.0,0.0,0.0,0.0,0.0,0.0,0.0,0.0,0.0,0.0,0.0,0.0,0.0,0.0,0.0,0.0,0.0,0.0,0.0,0.0,0.0,0.0,0.0,0.0,0.0,0.0,0.0,0.0,0.0,0.0,0.0,0.0,0.0,0.0,0.0,0.0,0.0,0.0,0.0,0.0,0.0,0.0,0.0,0.0,0.0,0.0,0.0,0.0,0.0,0.0,0.0,0.0,0.0,0.0,0.0,0.0,0.0,0.0,0.0,0.0,0.0,0.0,0.0,0.0,0.0,0.0,0.0,0.0,0.0,0.0,0.0,0.0,0.0,0.0,0.0,0.0,0.0,0.0,0.0,0.0,0.0,0.0,0.0,0.0,0.0,0.0,0.0,0.0,0.0,0.0,0.0,0.0,0.0,0.0,0.0,0.0,0.0,0.0,0.0,0.0,0.0,0.0,0.0,0.0,0.0,0.0,0.0,0.0,0.0,0.0,0.0,0.0,0.0,0.0,0.0,0.0,0.0,0.0,0.0,0.0,0.0,0.0,0.0,0.0,0.0,0.0,0.0,0.0,0.0,0.0,0.0,0.0,0.0,0.0,0.0,0.0,0.0,0.0,0.0,0.0,0.0,0.0,0.0,0.0,0.0,0.0,0.0,0.0,0.0,0.0,0.0,0.0,0.0,0.0,0.0,0.0,0.0,0.0,0.0,0.0,0.0,0.0,0.0,0.0,0.0,0.0,0.0,0.0,0.0,0.0,0.0,0.0,0.0,0.0,0.0,0.0,0.0,0.0,0.0,0.0,0.0,0.0,0.0,0.0,0.0,0.0,0.0,0.0,0.0,0.0,0.0,0.0,0.0,0.0,0.0,0.0,0.0,0.0,0.0,0.0,0.0,0.0,0.0,0.0,0.0,0.0,-0.896,0.0,0.0,0.0,0.0,0.0,0.0,0.0,0.0,0.0,0.0,0.0,0.0,0.0,0.0,0.0,0.0,0.0,0.0,0.0,0.0,0.0,0.0,0.0,0.0,0.0,0.0,0.0,0.0,0.0,0.0,0.0,0.0,0.0,0.0,0.0,0.0,0.0,0.0,0.0,0.0,0.0,0.0,0.0,0.0,0.0,0.0,0.0,0.0,0.0,0.0,0.0,0.0,0.0,0.0,0.0,0.0,0.0,0.0,0.0,0.0,0.0,0.0,0.0,0.0,0.0,0.0,0.0,0.0,0.0,0.0,0.0,0.0,0.0,0.0,0.0,0.0,0.0,0.0,0.0,0.0,0.0,0.0,0.0,0.0,0.0,0.0,0.0,0.0,0.0,0.0,0.0,0.0,0.0,0.0,0.0,0.0,0.0,0.0,0.0,0.0,0.0,0.0,0.0,0.0,0.0,0.0,0.0,0.0,0.0,0.0,0.0,0.0,0.0,0.0,0.0,0.0,-0.9612,0.0,0.0,0.0,0.0,0.0,0.0,0.0,0.0,0.0,0.0,0.0,0.0,0.0,0.0,0.0,0.0,0.0,0.0,0.0,0.0,0.0,0.0,0.0,0.0,0.0,0.0,0.0,0.0,0.0,0.0,0.0,0.0,0.0,0.0,0.0,0.0,0.0,0.0,0.0,0.0,0.0,0.0,0.0,0.0,0.0,0.0,0.0,0.0,0.0,0.0,0.0,0.0,0.0,0.0,0.0,0.0,0.0,0.0,0.0,0.0,0.0,0.0,0.0,0.0,0.0,0.0,0.0,0.0,0.0,0.0,0.0,0.0,0.0,0.0,0.0,0.0,0.0,0.0,0.0,0.0,0.0,0.0,0.0,0.0,0.0,0.0,0.0,0.0,0.0,0.0,0.0,0.0,0.0,0.0,0.0,0.0,0.0,0.0,0.0,0.0,0.0,0.0,0.0,0.0,0.0,0.0,0.0,0.0,-1.1617,-1.1644,-1.1528,-1.1662,-1.1695,-1.1652,-1.1009,-1.0936,-1.1184,-1.0425,0.0,0.0,0.0,0.0,0.0,0.0,0.0,0.0,0.0,0.0,0.0,0.0,0.0,0.0,0.0,0.0,0.0,0.0,0.0,0.0,0.0,0.0,0.0,0.0,0.0,0.0,0.0,0.0,0.0,0.0,0.0,0.0,0.0,0.0,0.0,0.0,0.0,0.0,-1.0687,-1.153,-1.1406,-1.0434,0.0,0.0,0.0,0.0,0.0,0.0,0.0,0.0,0.0,0.0,0.0,0.0,0.0,0.0,0.0,0.0,0.0,0.0,0.0,0.0,0.0,0.0,0.0,0.0,0.0,0.0,0.0,0.0,0.0,0.0,0.0,0.0,0.0,0.0,0.0,0.0,0.0,0.0,0.0,0.0,0.0,0.0,0.0,0.0,-0.8181,-0.8999,0.0,0.0,0.0,0.0,0.0,0.0,0.0,0.0,0.0,0.0,0.0,0.0,0.0,-1.1316,-1.3101,-1.2423,-1.2827,-1.4274,-1.4189,-1.3812,-1.32,-1.3856,-1.412,-1.4088,-1.2874,0.0,-1.1845,-1.2408,0.0,0.0,0.0,0.0,0.0,0.0,0.0,0.0,0.0,0.0,0.0,0.0,0.0,0.0,0.0,0.0,0.0,0.0,0.0,0.0,0.0,0.0,0.0,0.0,0.0,0.0,0.0,0.0,0.0,0.0,0.0,0.0,0.0,0.0,0.0,0.0,-1.0997,-1.1792,-1.2027,-1.275,-1.2774,-1.2218,-1.1617,-1.0484,-0.8951,-0.8152,0.0,0.0,0.0,0.0,0.0,0.0,0.0,0.0,0.0,0.0,0.0,0.0,0.0,0.0,0.0,0.0,0.0,0.0,0.0,0.0,0.0,0.0,0.0,0.0,0.0,0.0,0.0,0.0,0.0,0.0,0.0,0.0,0.0,0.0,0.0,0.0,0.0,0.0,0.0,-0.8277,-0.9275,-0.9913,-0.9835,-0.9642,0.0,0.0,0.0,0.0,0.0,0.0,0.0,0.0,0.0,-1.1383,-1.2305,-1.3341,-1.4552,-1.411,-1.4832,-1.6746,-1.6346,-1.5933,-1.5636,-1.6525,-1.6535,-1.5875,-1.6232,-1.5725,-1.4522,-1.3781,-1.3233,-1.2787,0.0,0.0,0.0,0.0,-1.3201,-1.3339,0.0,0.0,0.0,0.0,0.0,0.0,0.0,0.0,0.0,0.0,0.0,0.0,0.0,0.0,0.0,-1.1124,0.0,0.0,0.0,0.0,0.0,0.0,0.0,0.0,0.0,0.0,0.0,0.0,0.0,-1.2584,-1.3253,-1.3734,-1.3828,-1.354,-1.3467,-1.2245,-1.0234,-0.9589,-0.8899,0.0,0.0,0.0,0.0,0.0,0.0,0.0,0.0,0.0,0.0,0.0,0.0,0.0,0.0,0.0,0.0,0.0,0.0,0.0,0.0,0.0,0.0,0.0,0.0,0.0,0.0,0.0,0.0,0.0,0.0,0.0,0.0,0.0,0.0,0.0,0.0,0.0,0.0,-0.9113,-1.01,-1.0623,-1.0581,-1.043,0.0,0.0,0.0,0.0,0.0,0.0,-1.1516,-1.2506,-1.3004,-1.2819,-1.404,-1.5053,-1.5866,-1.5746,-1.6606,-1.8435,-1.8002,-1.7678,-1.7514,-1.8323,-1.8161,-1.7327,-1.8398,-1.8291,-1.7215,-1.5538,-1.4625,-1.4347,-1.4839,-1.4741,-1.4453,-1.4692,-1.4801,-1.4878,0.0,0.0,0.0,0.0,0.0,0.0,0.0,0.0,0.0,0.0,0.0,0.0,0.0,0.0,-1.334,-1.335,-1.3743,-1.3471,0.0,0.0,0.0,0.0,0.0,0.0,0.0,0.0,0.0,0.0,0.0,0.0,-1.4436,-1.475,-1.4736,-1.4399,-1.4168,-1.3193,-1.1724,-1.0686,-1.0001,-0.9453,0.0,0.0,0.0,0.0,0.0,0.0,0.0,0.0,0.0,0.0,0.0,0.0,0.0,0.0,0.0,0.0,0.0,0.0,0.0,0.0,0.0,0.0,0.0,0.0,0.0,0.0,0.0,0.0,0.0,0.0,0.0,0.0,0.0,0.0,0.0,0.0,0.0,0.0,0.0,-1.0623,-1.1594,0.0,0.0,0.0,0.0,-1.1375,-1.1651,-1.2415,-1.3676,-1.3819,-1.4304,-1.5288,-1.5406,-1.6103,-1.746,-1.7291,-1.7728,-1.8854,-1.9081,-1.8803,-1.8062,-1.8524,-1.8674,-1.856,-1.7952,-1.826,-1.9095,-1.802,-1.6865,-1.5634,-1.5177,-1.497,-1.5068,-1.6047,-1.6372,-1.6601,0.0,0.0,0.0,0.0,0.0,0.0,0.0,0.0,0.0,0.0,0.0,0.0,0.0,-1.3981,-1.5475,-1.5557,-1.5977,-1.5674,-1.4338,0.0,0.0,0.0,0.0,0.0,0.0,0.0,0.0,0.0,0.0,0.0,0.0,-1.5476,-1.5364,-1.507,-1.4783,-1.4249,-1.3507,-1.2381,-1.1471,-1.0677,-0.9375,-0.8223,0.0,0.0,0.0,0.0,0.0,0.0,0.0,0.0,0.0,0.0,0.0,0.0,0.0,0.0,0.0,0.0,0.0,0.0,0.0,0.0,0.0,0.0,0.0,0.0,0.0,0.0,0.0,0.0,0.0,0.0,0.0,0.0,0.0,0.0,0.0,0.0,0.0,-1.1896,-1.2983,0.0,-1.2475,-1.2996,-1.3212,-1.2838,-1.3532,-1.4256,-1.4896,-1.5925,-1.6628,-1.6957,-1.7207,-1.7874,-1.914,-1.8428,-1.8588,-1.9562,-2.0373,-2.0263,-1.9299,-2.0809,-2.0895,-1.9964,-2.0491,-2.0608,-2.0319,-2.0171,-1.93,-1.8089,-1.8375,-1.8341,-1.8203,-1.8566,-1.8706,-1.873,0.0,0.0,0.0,0.0,0.0,0.0,0.0,0.0,0.0,0.0,0.0,-1.3009,-1.3686,-1.583,-1.7286,-1.7452,-1.7543,-1.6855,-1.5069,0.0,0.0,0.0,0.0,0.0,0.0,0.0,0.0,0.0,0.0,0.0,0.0,0.0,-1.5732,-1.5531,-1.5237,-1.5003,-1.475,-1.3761,-1.2832,-1.1921,-1.0827,-0.9622,-0.8266,0.0,0.0,0.0,0.0,0.0,0.0,0.0,0.0,0.0,0.0,0.0,0.0,0.0,0.0,0.0,0.0,0.0,0.0,0.0,0.0,0.0,0.0,0.0,0.0,0.0,0.0,0.0,0.0,0.0,0.0,0.0,0.0,0.0,0.0,0.0,-1.2186,-1.2892,-1.403,-1.4532,-1.3849,-1.4374,-1.4675,-1.4467,-1.5191,-1.5837,-1.6278,-1.7297,-1.7894,-1.7988,-1.8506,-1.8991,-1.9403,-1.9751,-2.004,-2.0371,-2.1517,-2.1681,-2.0965,-2.2148,-2.2072,-2.1101,-2.1986,-2.1981,-2.1457,-2.1576,-2.1031,-2.0233,-2.046,-2.0424,-2.0218,-2.0218,-2.0366,-2.0499,0.0,0.0,0.0,0.0,0.0,0.0,0.0,0.0,0.0,0.0,0.0,-1.4088,-1.6543,-1.7883,-1.8733,-1.9008,-1.8409,-1.6924,-1.4328,-1.3369,0.0,0.0,0.0,0.0,0.0,0.0,0.0,0.0,0.0,0.0,0.0,0.0,0.0,-1.5784,-1.5545,-1.5424,-1.5384,-1.4803,-1.4068,-1.3173,-1.1964,-1.0855,-0.9737,0.0,0.0,0.0,0.0,0.0,0.0,0.0,0.0,0.0,0.0,0.0,0.0,0.0,0.0,0.0,0.0,0.0,0.0,0.0,0.0,0.0,0.0,0.0,0.0,0.0,0.0,0.0,0.0,0.0,0.0,0.0,0.0,0.0,-1.0779,-1.2397,-1.3568,-1.3707,-1.4868,-1.5561,-1.5305,-1.5512,-1.5877,-1.6399,-1.6691,-1.7189,-1.7961,-1.7955,-1.8143,-1.8416,-1.9328,-1.9389,-1.849,-2.1307,-2.2207,-2.1226,-2.2414,-2.3014,-2.2934,-2.2291,-2.2035,-2.2043,-2.2043,-2.2242,-2.2474,-2.2178,-2.2027,-2.1963,-2.1227,-2.0948,-2.0941,-2.0948,-2.1307,-2.176,0.0,0.0,0.0,0.0,0.0,0.0,0.0,0.0,0.0,0.0,-1.3702,-1.5117,-1.6768,-1.845,-1.9518,-1.9652,-1.8648,-1.7305,-1.5674,0.0,0.0,0.0,0.0,0.0,0.0,0.0,0.0,0.0,0.0,0.0,0.0,0.0,0.0,0.0,-1.6066,-1.6032,-1.6005,-1.5631,-1.5211,-1.4676,-1.328,-1.2158,-1.1211,0.0,0.0,0.0,0.0,0.0,0.0,0.0,0.0,0.0,0.0,0.0,0.0,0.0,0.0,0.0,0.0,0.0,0.0,0.0,0.0,0.0,0.0,0.0,0.0,0.0,0.0,0.0,0.0,0.0,0.0,0.0,0.0,-1.3446,-1.4015,-1.4266,-1.5351,-1.7959,-1.8687,-1.8984,-1.9014,-1.9633,-1.9956,-1.9662,-1.9713,-1.9906,-2.0361,-1.9861,-2.0264,-2.1821,-2.0719,-2.0658,-2.1829,-2.2444,-2.2149,-2.1022,-2.2356,-2.2675,-2.215,-2.2269,-2.2482,-2.2728,-2.2728,-2.2784,-2.2847,-2.249,-2.2339,-2.2299,-2.1846,-2.152,-2.1278,-2.1584,-2.1618,-2.1482,0.0,0.0,0.0,0.0,0.0,0.0,0.0,0.0,0.0,0.0,-1.426,-1.5641,-1.7671,-1.8783,-1.9392,-1.9354,-1.8031,-1.6572,-1.5116,0.0,0.0,0.0,0.0,0.0,0.0,0.0,0.0,0.0,0.0,0.0,0.0,0.0,0.0,0.0,0.0,-1.6453,-1.644,-1.6266,-1.6099,-1.5852,-1.475,-1.3701,-1.2681,-1.1522,-1.0778,-1.0238,-0.9217,-0.9004,-0.9013,-0.7868,0.0,0.0,0.0,0.0,0.0,0.0,0.0,0.0,0.0,0.0,0.0,0.0,0.0,0.0,0.0,0.0,0.0,0.0,0.0,0.0,0.0,0.0,0.0,0.0,-1.3167,-1.4999,-1.6682,-1.6918,-1.7628,-1.9562,-1.9993,-2.0296,-2.0765,-2.0531,-2.0597,-2.1195,-2.0856,-2.0934,-2.1605,-2.1238,-2.1527,-2.2711,-2.2017,-2.1899,-2.2508,-2.3308,-2.3052,-2.1821,-2.306,-2.3441,-2.2952,-2.3129,-2.3252,-2.3451,-2.3451,-2.3371,-2.3148,-2.2855,-2.2617,0.0,0.0,0.0,0.0,0.0,-2.3191,-2.3128,0.0,0.0,0.0,0.0,0.0,0.0,0.0,0.0,0.0,0.0,0.0,-1.5825,-1.867,-1.892,-1.8789,-1.8569,-1.702,-1.5332,0.0,0.0,0.0,0.0,0.0,0.0,0.0,0.0,0.0,0.0,0.0,0.0,0.0,0.0,0.0,0.0,0.0,-1.6857,-1.6857,-1.684,-1.682,-1.6707,-1.6186,-1.5277,-1.4099,-1.2868,-1.2446,-1.2287,-1.0695,-1.0233,-1.0277,-0.9414,0.0,0.0,0.0,0.0,0.0,0.0,0.0,0.0,0.0,0.0,0.0,0.0,0.0,0.0,0.0,0.0,0.0,0.0,0.0,0.0,0.0,0.0,0.0,0.0,-1.392,-1.5763,-1.8664,-1.9729,-2.0049,-1.9747,-2.004,-2.0564,-2.1509,-2.009,-1.9889,-2.1952,-2.1266,-2.1238,-2.2291,0.0,0.0,0.0,0.0,-2.3076,-2.1949,-2.4063,-2.4516,-2.3353,-2.4133,-2.4539,-2.4571,-2.4233,-2.4098,-2.4169,-2.4129,-2.3904,-2.3568,-2.3236,-2.2895,-2.2568,-2.2194,-2.2235,-2.2743,-2.4161,-2.5017,-2.5417,0.0,0.0,0.0,0.0,0.0,0.0,0.0,0.0,0.0,-1.4023,-1.4656,-1.5814,-1.8034,-1.8465,0.0,-1.8381,0.0,0.0,0.0,0.0,0.0,0.0,0.0,0.0,0.0,0.0,0.0,0.0,0.0,0.0,0.0,0.0,0.0,0.0,0.0,0.0,-1.7755,-1.7735,-1.7508,-1.7105,-1.6991,-1.6192,-1.507,-1.4336,-1.3911,-1.3721,-1.3344,-1.339,-1.3382,-1.2073,-1.1484,-1.1106,-0.9624,0.0,0.0,0.0,0.0,0.0,0.0,0.0,0.0,0.0,0.0,0.0,0.0,0.0,0.0,0.0,0.0,0.0,0.0,0.0,0.0,-1.3821,-1.5897,-1.7799,-1.9122,-2.0474,-2.1364,-2.1548,-2.2322,-2.3025,-2.354,-2.3698,-2.4054,-2.4773,-2.4409,-2.4163,-2.4137,-2.3585,-2.3426,-2.3733,-2.3634,-2.3763,-2.4028,-2.4745,-2.4949,-2.4693,0.0,0.0,-2.4555,-2.3927,-2.3943,-2.446,-2.4233,-2.4241,-2.4333,-2.3697,-2.3344,-2.3195,-2.263,-2.2601,-2.2975,-2.3776,-2.4136,-2.4278,0.0,0.0,0.0,0.0,0.0,0.0,0.0,0.0,0.0,0.0,-1.391,0.0,0.0,0.0,0.0,0.0,0.0,0.0,0.0,0.0,0.0,0.0,0.0,0.0,0.0,0.0,0.0,0.0,0.0,0.0,0.0,0.0,0.0,0.0,0.0,0.0,-1.869,-1.8523,-1.8218,-1.7845,-1.7533,-1.684,-1.5985,-1.5398,-1.5084,-1.4937,-1.4796,-1.4743,-1.4605,-1.3711,-1.3279,-1.2921,-1.1828,-1.0561,-0.9239,0.0,0.0,0.0,0.0,0.0,0.0,0.0,0.0,0.0,0.0,0.0,0.0,0.0,0.0,-1.1447,0.0,0.0,-1.4226,-1.5155,-1.7235,-1.903,-1.9691,-2.0965,-2.2172,-2.2981,-2.295,-2.3363,-2.4707,-2.4119,-2.4114,-2.5233,-2.4859,-2.4642,-2.4865,-2.468,-2.4634,-2.4603,-2.4431,-2.4439,-2.4587,-2.4754,-2.4841,-2.4841,-2.4484,-2.4499,-2.4833,-2.4484,-2.4515,-2.4833,-2.4658,-2.4579,-2.4599,-2.4367,-2.445,-2.4685,-2.4346,-2.4061,-2.3875,-2.4343,-2.4686,-2.4977,0.0,0.0,0.0,0.0,0.0,0.0,0.0,0.0,0.0,0.0,0.0,0.0,0.0,0.0,0.0,0.0,0.0,0.0,0.0,0.0,0.0,0.0,0.0,0.0,0.0,0.0,0.0,0.0,0.0,0.0,0.0,0.0,0.0,0.0,0.0,0.0,0.0,-1.9237,-1.8885,-1.8536,-1.7902,-1.7288,-1.6647,-1.6119,-1.5879,-1.5785,-1.5438,-1.505,-1.4689,-1.4563,-1.4215,-1.3814,-1.3713,-1.2603,-1.1078,-0.9704,-0.8888,0.0,0.0,0.0,0.0,0.0,0.0,0.0,0.0,0.0,-1.0876,-1.2033,-1.2469,-1.2922,-1.3682,-1.4606,-1.5553,-1.6465,-1.828,-1.9698,-2.0155,-2.1284,-2.2573,-2.3821,-2.3071,-2.3175,-2.5148,-2.3795,-2.3481,-2.5178,-2.4795,-2.4732,-2.5168,-2.5422,-2.5445,-2.5024,-2.5071,-2.4936,-2.4587,-2.465,-2.4682,-2.4682,-2.4682,-2.4833,-2.5111,-2.5111,-2.5165,-2.5288,-2.541,-2.531,-2.5072,-2.525,-2.5636,-2.6131,-2.5984,-2.5515,-2.5022,-2.5334,-2.573,-2.6072,0.0,0.0,0.0,0.0,0.0,0.0,0.0,0.0,0.0,0.0,0.0,0.0,0.0,0.0,0.0,0.0,0.0,0.0,0.0,0.0,0.0,0.0,0.0,0.0,0.0,0.0,0.0,0.0,0.0,0.0,0.0,0.0,0.0,0.0,0.0,0.0,0.0,0.0,-1.9384,-1.8789,-1.8218,-1.7423,-1.6667,-1.6346,-1.6059,-1.5711,-1.5211,-1.4489,-1.3826,-1.4312,-1.3794,-1.3065,-1.3794,-1.34,-1.2397,-1.1409,0.0,-1.003,-0.8825,-0.8359,-0.8417,-0.9303,-0.9608,-1.0319,0.0,0.0,-1.3177,-1.4715,-1.5297,-1.562,-1.6193,-1.6779,-1.7286,-1.7642,-1.9037,-2.0142,-2.0208,-2.1284,-2.2495,-2.3531,-2.3502,-2.3668,-2.4235,-2.4826,-2.5447,-2.6009,-2.6001,-2.5874,-2.5533,-2.5557,-2.5326,-2.4658,-2.4944,-2.4936,-2.4587,-2.4897,-2.5048,-2.5048,-2.5048,-2.5071,-2.5111,-2.5111,-2.541,-2.6014,-2.6562,-2.6788,-2.672,-2.6389,-2.6451,-2.6655,-2.5901,-2.5925,-2.6373,-2.6623,-2.6489,-2.6355,0.0,0.0,0.0,0.0,0.0,0.0,0.0,0.0,0.0,0.0,0.0,0.0,0.0,0.0,0.0,0.0,0.0,0.0,0.0,0.0,0.0,0.0,0.0,0.0,0.0,0.0,0.0,0.0,0.0,0.0,0.0,0.0,0.0,0.0,0.0,0.0,0.0,0.0,-1.9743,-1.9126,-1.8515,-1.7662,-1.6673,-1.6386,-1.5772,-1.499,-1.4402,-1.3734,0.0,0.0,-1.3013,-1.2884,-1.34,-1.3073,-1.2341,-1.1446,-1.0999,0.0,-1.05,-1.0327,-1.0438,0.0,-1.1701,-1.2228,-1.4018,-1.4349,-1.4612,-1.5942,-1.6557,-1.6936,-1.7316,-1.7823,-1.8215,0.0,-1.9524,-2.0651,-2.1222,-2.1617,-2.2324,-2.3724,-2.3392,-2.3482,-2.4564,-2.5069,-2.5477,-2.5826,-2.6096,-2.6001,-2.5596,-2.6025,-2.5826,-2.4913,-2.523,-2.5246,-2.4889,-2.4833,-2.4905,-2.5103,-2.5323,-2.5505,-2.5709,-2.6022,-2.6388,-2.6623,-2.6874,-2.7237,-2.7581,-2.7416,-2.7615,-2.7998,-2.7438,-2.74,-2.7591,-2.6944,-2.6644,-2.6526,0.0,0.0,0.0,0.0,0.0,0.0,0.0,0.0,0.0,0.0,0.0,0.0,0.0,0.0,0.0,0.0,0.0,0.0,0.0,0.0,0.0,0.0,0.0,0.0,0.0,0.0,0.0,0.0,0.0,0.0,0.0,0.0,0.0,0.0,0.0,0.0,0.0,0.0,0.0,-1.922,-1.8598,-1.7628,-1.6547,-1.6172,-1.515,-1.3854,-1.3387,-1.2732,0.0,0.0,-1.1683,-1.1792,-1.2305,-1.2231,-1.1813,-1.1102,-1.0756,-1.0763,-1.1335,0.0,0.0,-1.295,-1.3436,-1.4002,-1.5245,-1.5615,-1.5897,-1.6855,-1.745,-1.7876,-1.807,-1.8489,-1.8805,-1.8805,-1.9833,-2.0836,-2.1594,-2.1946,-2.242,-2.3414,-2.3165,-2.3363,-2.4424,-2.4881,-2.5294,-2.5747,-2.6073,-2.608,-2.5929,-2.6223,-2.6041,-2.5278,-2.5405,-2.5373,-2.5111,-2.5032,-2.5153,-2.541,-2.5803,-2.6121,-2.638,-2.6987,-2.7237,-2.7142,-2.7426,-2.784,-2.825,-2.8143,-2.8405,-2.8764,-2.826,-2.8196,-2.8269,-2.7279,-2.6848,-2.6793,0.0,0.0,0.0,0.0,0.0,0.0,0.0,0.0,0.0,0.0,0.0,0.0,0.0,0.0,0.0,0.0,0.0,0.0,0.0,0.0,0.0,0.0,0.0,0.0,0.0,0.0,0.0,0.0,0.0,0.0,0.0,0.0,0.0,0.0,0.0,0.0,0.0,0.0,0.0,-1.8877,-1.8266,-1.7343,-1.6268,-1.5645,-1.4148,-1.2365,-1.2351,0.0,0.0,0.0,-0.9619,-0.9125,-1.0311,-1.0854,0.0,-1.0681,-1.0211,0.0,0.0,0.0,-1.195,-1.3505,-1.4446,-1.532,-1.6429,-1.6875,-1.7174,-1.7757,-1.8303,-1.868,-1.8686,-1.8921,-1.9106,-1.9106,-1.9953,-2.0639,-2.0639,-2.2223,-2.303,-2.2191,-2.3065,-2.3553,0.0,-2.4309,-2.5389,-2.6144,-2.6208,-2.6359,-2.6628,-2.6025,-2.5596,-2.5565,-2.5302,-2.5119,-2.5111,-2.5762,-2.6059,-2.6075,-2.6675,-2.6987,-2.6995,-2.7659,-2.7747,-2.7452,-2.8505,-2.8925,-2.8957,-2.8572,-2.8416,-2.8333,-2.7526,-2.7691,-2.8342,-2.7893,-2.7546,-2.716,0.0,0.0,0.0,0.0,0.0,0.0,0.0,0.0,0.0,0.0,0.0,0.0,0.0,0.0,0.0,0.0,0.0,0.0,0.0,0.0,0.0,0.0,0.0,0.0,0.0,0.0,0.0,0.0,0.0,0.0,0.0,0.0,0.0,0.0,0.0,0.0,0.0,0.0,0.0,0.0,-1.8018,-1.6923,-1.5851,-1.4858,-1.3216,-1.1329,0.0,0.0,0.0,0.0,0.0,0.0,-0.9439,-0.9724,0.0,-1.0445,-1.0868,-1.1436,0.0,0.0,-1.4432,-1.5757,-1.6425,-1.6953,-1.7648,-1.7894,-1.7966,-1.793,-1.771,-1.7528,-1.7347,-1.6925,-1.6932,-1.783,-1.9253,-2.0369,-2.0863,-2.2581,-2.3345,-2.213,-2.2941,0.0,0.0,0.0,0.0,-2.6055,-2.5702,-2.58,-2.6588,-2.6231,-2.5952,-2.5904,-2.601,-2.62,-2.6388,-2.6562,-2.6684,-2.6684,-2.7358,-2.79,-2.8319,-2.8558,-2.8605,-2.8478,-2.8861,-2.8984,-2.8948,-2.8553,-2.8553,-2.8709,-2.7884,-2.7902,-2.8315,-2.7627,-2.7344,-2.7215,0.0,0.0,0.0,0.0,0.0,0.0,0.0,0.0,0.0,0.0,0.0,0.0,0.0,0.0,0.0,0.0,0.0,0.0,0.0,0.0,0.0,0.0,0.0,0.0,0.0,0.0,0.0,0.0,0.0,0.0,0.0,0.0,0.0,0.0,0.0,0.0,0.0,0.0,0.0,0.0,0.0,-1.5743,-1.4448,-1.345,-1.1901,0.0,0.0,0.0,0.0,0.0,0.0,0.0,0.0,-0.9118,-0.9564,-1.0581,-1.1377,-1.2275,-1.3941,-1.5044,-1.6019,-1.7198,-1.7713,-1.7971,-1.8325,-1.832,-1.8046,-1.7414,-1.6981,-1.6591,-1.6251,-1.5769,-1.5771,-1.7013,-1.8308,-1.9726,-2.1181,-2.2602,-2.346,-2.3236,-2.3731,-2.4041,0.0,0.0,0.0,-2.5993,-2.59,-2.6113,-2.6785,-2.672,-2.6689,-2.665,-2.6867,-2.7061,-2.7192,-2.7297,-2.7478,-2.7719,-2.814,-2.8486,-2.8783,-2.892,-2.8911,-2.8783,-2.892,-2.8984,-2.8948,-2.8553,-2.8544,-2.8691,-2.7875,-2.7801,-2.8095,-2.7416,-2.7178,-2.7196,0.0,0.0,0.0,0.0,0.0,0.0,0.0,0.0,0.0,0.0,0.0,0.0,0.0,0.0,0.0,0.0,0.0,0.0,0.0,0.0,0.0,0.0,0.0,0.0,0.0,0.0,0.0,0.0,0.0,0.0,0.0,0.0,0.0,0.0,0.0,0.0,0.0,0.0,0.0,0.0,0.0,0.0,-1.222,-1.1597,0.0,0.0,0.0,0.0,0.0,0.0,0.0,0.0,0.0,-0.9132,-1.0033,-1.1236,-1.1804,-1.2536,-1.4606,-1.5805,-1.6717,-1.7801,-1.8288,-1.8441,-1.8461,-1.8141,-1.7539,-1.6377,-1.6068,-1.5868,0.0,0.0,-1.553,-1.656,-1.7435,-1.8947,-2.1569,-2.2539,-2.3548,0.0,0.0,0.0,0.0,0.0,0.0,-2.607,0.0,-2.7066,-2.7272,-2.7506,-2.7638,-2.77,-2.77,-2.7691,-2.7727,-2.7904,-2.8379,-2.8984,-2.8984,-2.8783,-2.8434,-2.881,-2.8783,-2.8443,-2.8819,-2.8975,-2.892,-2.8526,-2.8361,-2.8287,-2.749,-2.7473,-2.7776,-2.7381,-2.7178,-2.7114,0.0,0.0,0.0,0.0,0.0,0.0,0.0,0.0,0.0,0.0,0.0,0.0,0.0,0.0,0.0,0.0,0.0,0.0,0.0,0.0,0.0,0.0,0.0,0.0,0.0,0.0,0.0,0.0,0.0,0.0,0.0,0.0,0.0,0.0,0.0,0.0,0.0,0.0,0.0,0.0,0.0,0.0,-1.2215,0.0,0.0,0.0,0.0,0.0,0.0,0.0,0.0,0.0,0.0,-1.0814,-1.1665,-1.3253,-1.4095,-1.4897,-1.674,-1.7896,-1.8718,-1.9196,-1.9395,-1.9356,-1.8882,-1.8071,-1.7054,-1.5844,-1.4553,-1.3553,0.0,0.0,0.0,-1.5774,-1.886,0.0,-2.2272,-2.4859,0.0,-2.5219,0.0,-2.6131,-2.6054,-2.6619,0.0,0.0,-2.7228,-2.7427,-2.821,-2.817,-2.8345,-2.879,-2.879,-2.8897,-2.9085,-2.8877,-2.8797,-2.8984,-2.8984,-2.8929,-2.8838,-2.8938,-2.8929,-2.8838,-2.8938,-2.8819,-2.8517,-2.8095,-2.793,-2.7875,-2.737,-2.7473,-2.7776,-2.7381,-2.7178,-2.7114,0.0,0.0,0.0,0.0,0.0,0.0,0.0,0.0,0.0,0.0,0.0,0.0,0.0,0.0,0.0,0.0,0.0,0.0,0.0,0.0,0.0,0.0,0.0,0.0,0.0,0.0,0.0,0.0,0.0,0.0,0.0,0.0,0.0,0.0,0.0,0.0,0.0,0.0,0.0,0.0,0.0,0.0,0.0,0.0,0.0,0.0,0.0,0.0,0.0,0.0,0.0,-1.1196,-1.1917,-1.2739,-1.3714,-1.5231,0.0,-1.6687,-1.8196,-1.9165,-1.9786,-1.9947,-1.98,-1.9386,-1.8531,-1.7422,-1.6216,-1.4941,-1.3471,0.0,0.0,0.0,0.0,0.0,0.0,0.0,-2.3306,-2.5696,-2.7158,0.0,-2.7246,0.0,-2.7786,-2.8156,-2.8589,0.0,-2.8487,-2.8446,-2.9075,-2.9314,-2.9564,-2.9888,-2.9888,-2.9795,-2.9571,-2.9351,-2.9149,-2.8984,-2.8984,-2.8984,-2.8984,-2.8984,-2.8883,-2.8728,0.0,-2.8489,-2.8086,-2.7673,-2.7564,-2.7528,-2.7077,-2.705,-2.728,-2.7004,-2.6921,-2.6885,0.0,0.0,0.0,0.0,0.0,0.0,0.0,0.0,0.0,0.0,0.0,0.0,0.0,0.0,0.0,0.0,0.0,0.0,0.0,0.0,0.0,0.0,0.0,0.0,0.0,0.0,0.0,0.0,0.0,0.0,0.0,0.0,0.0,0.0,0.0,0.0,0.0,0.0,0.0,0.0,0.0,0.0,0.0,0.0,0.0,0.0,0.0,0.0,0.0,0.0,-1.2288,-1.3139,-1.3774,-1.4796,-1.5959,-1.7112,-1.7641,-1.8063,-1.9178,-1.988,-2.0281,-2.018,-1.98,-1.9032,-1.7756,-1.6543,-1.5293,-1.3765,0.0,-1.2396,-1.3531,-1.3172,-1.3913,-1.7524,0.0,-2.1081,-2.4437,-2.5912,-2.7251,-2.887,-2.9012,-2.9159,-2.9617,-2.9599,-2.9764,-3.0241,-2.9938,-2.9792,-2.9922,-3.052,-3.0846,-3.0791,-3.0745,-3.0341,-2.9641,-2.9577,-2.9324,-2.8984,-2.8984,-2.8984,-2.8984,-2.8984,-2.8792,-2.8471,-2.8471,-2.8205,-2.7794,-2.7398,-2.7224,-2.7141,-2.6802,-2.6664,-2.6664,-2.6664,-2.6637,-2.6591,0.0,0.0,0.0,0.0,0.0,0.0,0.0,0.0,0.0,0.0,-1.1341,-1.1271,0.0,0.0,0.0,0.0,0.0,0.0,0.0,0.0,0.0,0.0,0.0,0.0,0.0,0.0,0.0,0.0,0.0,0.0,0.0,0.0,0.0,0.0,0.0,0.0,0.0,0.0,0.0,0.0,0.0,0.0,0.0,0.0,0.0,0.0,0.0,0.0,0.0,0.0,-1.3561,-1.4402,-1.5478,-1.662,-1.7695,-1.841,-1.8824,-1.9205,-1.9893,-2.0334,-2.0541,-2.0294,-1.98,-1.8925,-1.7241,-1.6023,0.0,0.0,-1.2567,-1.3014,-1.342,-1.4263,0.0,-1.9121,0.0,0.0,0.0,0.0,-2.8381,0.0,0.0,0.0,0.0,0.0,0.0,0.0,0.0,-3.0572,-3.0655,-3.1029,-3.1121,-3.08,-3.047,-3.0066,-2.9571,-2.925,-2.9048,-2.8984,-2.8984,-2.8984,-2.8984,-2.8984,-2.8948,-2.8883,-2.8883,0.0,-2.7813,-2.7748,-2.7528,-2.7169,-2.7105,-2.7077,-2.7077,-2.7077,-2.6866,-2.6591,0.0,0.0,0.0,0.0,0.0,0.0,0.0,-1.2666,-1.258,-1.2239,-1.1864,-1.1871,-1.2534,-1.241,-1.2451,0.0,0.0,0.0,0.0,0.0,0.0,0.0,0.0,0.0,0.0,0.0,0.0,0.0,0.0,0.0,0.0,0.0,0.0,0.0,0.0,0.0,0.0,0.0,0.0,0.0,0.0,0.0,0.0,0.0,0.0,0.0,0.0,0.0,0.0,0.0,-1.2985,-1.4332,-1.6166,-1.7535,-1.8544,-1.8838,-1.9345,-1.988,-2.0154,-2.0561,-2.1016,-2.1319,-2.0482,-1.9207,-1.7819,0.0,0.0,0.0,-1.3087,-1.3443,-1.4548,0.0,0.0,0.0,0.0,0.0,0.0,0.0,0.0,0.0,0.0,0.0,0.0,0.0,0.0,0.0,0.0,-3.0882,-3.1084,-3.1075,-3.0983,-3.08,-3.0195,-2.9773,-2.9571,-2.9177,-2.8984,-2.8984,-2.8984,-2.8984,-2.8984,-2.8984,-2.8874,-2.8682,-2.8682,-2.8333,-2.7822,-2.7822,-2.7711,-2.7537,-2.7537,-2.7537,-2.7537,-2.7537,-2.7361,-2.7196,0.0,0.0,0.0,0.0,0.0,0.0,0.0,-1.2866,-1.2791,-1.2667,-1.2605,-1.267,-1.2874,-1.2905,-1.2936,0.0,0.0,0.0,0.0,0.0,0.0,0.0,0.0,0.0,0.0,0.0,0.0,0.0,0.0,0.0,0.0,0.0,0.0,0.0,0.0,0.0,0.0,0.0,0.0,0.0,0.0,0.0,0.0,0.0,0.0,0.0,0.0,0.0,0.0,0.0,-1.217,-1.3714,-1.5853,-1.7347,-1.839,-1.8584,-1.9265,-2.0067,-2.055,-2.1128,-2.1749,-2.2513,-2.1463,-1.9843,-1.8324,-1.6802,0.0,0.0,-1.3747,-1.4164,-1.5802,0.0,0.0,0.0,0.0,0.0,0.0,0.0,0.0,0.0,0.0,0.0,0.0,0.0,0.0,0.0,0.0,0.0,-3.124,-3.0956,-3.0708,-3.0534,-2.9901,-2.9586,-2.9443,-2.914,-2.8984,-2.8984,-2.8984,-2.8984,-2.8984,-2.8984,-2.881,-2.8526,-2.8526,-2.8287,-2.7902,-2.7902,-2.7902,-2.7902,-2.7902,-2.7902,-2.7902,-2.7902,-2.7838,-2.7822,0.0,0.0,0.0,0.0,0.0,0.0,0.0,-1.3611,-1.3529,-1.4049,-1.3744,-1.3328,-1.2946,-1.2905,-1.307,0.0,0.0,0.0,0.0,0.0,0.0,0.0,0.0,0.0,0.0,0.0,0.0,0.0,0.0,0.0,0.0,0.0,0.0,0.0,0.0,0.0,0.0,0.0,0.0,0.0,0.0,0.0,0.0,0.0,0.0,0.0,0.0,0.0,0.0,0.0,0.0,-1.2777,-1.3852,-1.528,-1.6673,-1.7475,0.0,0.0,-2.1761,-2.2621,-2.298,-2.3247,-2.2521,-2.0944,-1.7877,0.0,0.0,-1.3639,-1.4405,-1.5647,-1.6329,-1.6626,0.0,0.0,0.0,0.0,0.0,0.0,0.0,0.0,0.0,0.0,0.0,0.0,0.0,0.0,0.0,0.0,-3.0855,-3.0809,-3.0451,-2.9709,-2.9669,-2.9397,-2.9039,-2.9003,-2.8984,-2.8984,-2.8984,-2.8984,-2.8984,-2.8984,-2.8966,-2.8929,-2.8929,-2.8709,0.0,-2.8333,-2.8333,-2.8333,-2.8333,-2.8333,-2.8333,-2.8333,-2.8095,-2.7822,0.0,0.0,0.0,0.0,0.0,0.0,-1.3661,-1.3588,-1.3568,-1.3731,-1.3679,-1.3524,-1.3338,-1.307,-1.2977,-1.3163,0.0,0.0,0.0,0.0,0.0,0.0,0.0,0.0,0.0,0.0,0.0,0.0,0.0,0.0,0.0,0.0,0.0,0.0,0.0,0.0,0.0,0.0,0.0,0.0,0.0,0.0,0.0,0.0,0.0,0.0,0.0,0.0,0.0,0.0,0.0,0.0,-1.1478,-1.2402,0.0,0.0,-1.7546,-1.9785,-2.0784,-2.2592,-2.4361,-2.4711,-2.3629,-2.1844,-1.966,0.0,0.0,-1.5005,-1.5217,-1.5917,-1.6605,-1.6834,-1.722,0.0,0.0,0.0,0.0,0.0,0.0,0.0,0.0,0.0,0.0,0.0,0.0,0.0,0.0,0.0,-3.0075,-3.0296,-3.0167,-2.965,-2.9342,-2.914,-2.8984,-2.8984,-2.8984,-2.8984,-2.8984,-2.8984,-2.8984,-2.8984,-2.8984,-2.8984,-2.8984,-2.8893,0.0,-2.8746,-2.8746,-2.8746,-2.8746,-2.8746,-2.8746,-2.8746,-2.8645,-2.8498,0.0,0.0,0.0,0.0,0.0,-1.3476,-1.3433,-1.3383,-1.3328,-1.3292,-1.3247,-1.3217,-1.3217,-1.2927,-1.2782,-1.2894,-1.3194,0.0,0.0,0.0,0.0,0.0,0.0,0.0,0.0,0.0,0.0,0.0,0.0,0.0,0.0,0.0,0.0,0.0,0.0,0.0,0.0,0.0,0.0,0.0,0.0,0.0,0.0,0.0,0.0,0.0,0.0,0.0,0.0,0.0,0.0,0.0,0.0,0.0,0.0,0.0,-1.6278,-1.8983,-2.0127,-2.2513,-2.485,-2.55,-2.4348,-2.249,0.0,0.0,0.0,-1.6101,-1.5872,-1.6083,-1.678,-1.6908,-1.6908,0.0,0.0,0.0,0.0,0.0,0.0,0.0,0.0,0.0,0.0,0.0,0.0,0.0,0.0,0.0,-2.9424,-2.9791,-2.9828,-2.9415,-2.9131,-2.8984,-2.8984,-2.8984,-2.8984,-2.8984,-2.8984,-2.8984,-2.8984,-2.8984,-2.8984,-2.8984,-2.8984,-2.8984,0.0,-2.8984,-2.8984,-2.8984,-2.8984,-2.8984,-2.8984,-2.8984,-2.8984,-2.8984,0.0,0.0,0.0,0.0,0.0,0.0,-1.3502,-1.3053,-1.278,-1.2979,-1.2595,-1.2318,-1.2318,-1.2318,-1.2473,-1.2863,-1.2905,0.0,0.0,0.0,0.0,0.0,0.0,0.0,0.0,0.0,-1.2916,-1.3077,-1.2427,0.0,0.0,0.0,0.0,0.0,0.0,0.0,0.0,0.0,0.0,0.0,0.0,0.0,0.0,0.0,0.0,0.0,0.0,0.0,0.0,0.0,0.0,0.0,0.0,0.0,0.0,0.0,-1.4244,-1.6662,-2.0382,-2.2675,-2.4244,-2.5167,-2.4414,-2.2767,0.0,0.0,0.0,-1.6477,-1.6279,-1.6431,-1.6835,-1.6908,-1.6908,-1.6908,0.0,0.0,0.0,0.0,0.0,0.0,0.0,0.0,0.0,0.0,0.0,0.0,0.0,0.0,-2.903,-2.936,-2.9397,-2.9003,-2.8984,-2.8984,-2.8984,-2.8984,-2.8984,-2.8984,-2.8984,-2.8984,-2.8984,-2.8984,-2.8984,-2.8984,0.0,-2.8984,0.0,-2.8984,-2.8984,-2.8984,-2.8984,-2.8984,-2.8984,-2.8984,-2.8984,-2.8984,0.0,0.0,0.0,0.0,0.0,0.0,0.0,-1.3122,-1.2964,-1.3303,-1.2722,-1.24,-1.2679,-1.2182,-1.1996,-1.2452,-1.2751,0.0,0.0,0.0,0.0,0.0,0.0,0.0,0.0,0.0,-1.3336,-1.2757,-1.2722,-1.2434,-1.1903,-1.1747,0.0,0.0,0.0,0.0,0.0,0.0,0.0,0.0,0.0,0.0,0.0,0.0,0.0,0.0,0.0,0.0,0.0,0.0,0.0,0.0,0.0,0.0,0.0,0.0,0.0,0.0,-1.876,-2.1003,-2.2897,-2.3222,-2.2575,-2.1355,-1.9356,0.0,0.0,-1.6477,-1.6288,-1.6407,-1.6835,-1.6908,-1.6908,-1.6908,-1.6908,0.0,0.0,0.0,0.0,0.0,0.0,0.0,0.0,0.0,0.0,0.0,0.0,0.0,-2.8993,-2.9104,-2.9113,-2.8984,-2.8984,-2.8984,-2.8984,-2.8984,-2.8984,-2.8984,-2.8984,-2.8984,-2.8984,-2.8984,-2.8984,0.0,0.0,0.0,0.0,-2.8984,-2.8984,-2.8984,-2.8984,-2.8984,-2.8984,-2.8984,-2.8984,-2.8984,0.0,0.0,0.0,0.0,0.0,0.0,0.0,-1.3345,-1.3139,-1.3054,-1.2603,-1.2411,-1.2648,-1.2037,-1.1778,-1.2266,-1.2379,0.0,0.0,0.0,0.0,0.0,0.0,0.0,0.0,-1.3792,-1.3666,-1.3389,-1.3042,-1.2665,-1.2228,-1.1864,-1.1654,-1.1591,0.0,0.0,0.0,0.0,0.0,0.0,0.0,0.0,-1.1591,0.0,0.0,0.0,0.0,0.0,0.0,0.0,0.0,0.0,0.0,0.0,0.0,0.0,-1.4439,0.0,0.0,-1.9222,-2.0998,-2.1145,-2.0576,0.0,0.0,0.0,0.0,0.0,-1.6541,-1.6615,-1.6862,-1.6908,-1.6908,-1.6908,0.0,0.0,0.0,0.0,0.0,0.0,0.0,0.0,0.0,0.0,0.0,0.0,0.0,0.0,-2.8984,-2.8984,-2.8984,-2.8984,-2.8984,-2.8984,-2.8984,-2.8984,-2.8984,-2.8984,-2.8984,-2.8984,-2.8984,-2.8984,-2.8984,0.0,0.0,0.0,0.0,-2.8984,-2.8984,-2.8984,-2.8984,-2.8984,-2.8984,-2.8984,-2.8984,-2.8984,0.0,0.0,0.0,0.0,0.0,0.0,0.0,-1.3715,-1.3316,-1.2562,-1.236,-1.2307,-1.2307,-1.1892,-1.1757,-1.2172,0.0,0.0,0.0,0.0,0.0,0.0,0.0,0.0,0.0,-1.3706,-1.3821,-1.454,-1.3343,-1.2852,-1.3009,-1.2228,-1.1771,-1.1654,-1.1622,0.0,0.0,0.0,0.0,0.0,0.0,0.0,0.0,0.0,0.0,0.0,0.0,0.0,0.0,0.0,0.0,0.0,0.0,0.0,0.0,0.0,0.0,0.0,0.0,0.0,0.0,0.0,0.0,0.0,0.0,0.0,0.0,0.0,0.0,0.0,0.0,0.0,-1.6908,-1.6908,0.0,0.0,0.0,0.0,0.0,0.0,0.0,0.0,0.0,0.0,0.0,0.0,0.0,0.0,-2.8984,-2.8984,-2.8984,-2.8984,-2.8984,-2.8984,-2.8984,-2.8984,-2.8984,-2.8984,-2.8984,-2.8984,-2.8984,-2.8984,-2.8984,0.0,0.0,0.0,0.0,-2.8984,-2.8984,-2.8984,-2.8984,-2.8984,-2.8984,-2.8984,-2.8984,-2.8984,0.0,0.0,0.0,0.0,0.0,0.0,0.0,0.0,0.0,0.0,-1.3009,-1.2307,-1.2307,-1.1892,-1.1498,0.0,0.0,0.0,0.0,0.0,0.0,0.0,0.0,0.0,0.0,-1.2954,-1.2956,-1.3094,-1.3144,-1.3234,-1.3381,-1.2673,-1.2336,-1.2274,-1.1802,-1.1591,0.0,0.0,0.0,0.0,0.0,0.0,0.0,0.0,0.0,0.0,-1.174,-1.1895,0.0,0.0,0.0,0.0,0.0,0.0,0.0,0.0,-1.4596,-1.497,-1.4979,0.0,-1.6046,-1.6441,0.0,0.0,0.0,0.0,0.0,0.0,0.0,0.0,0.0,0.0,0.0,0.0,0.0,0.0,0.0,0.0,0.0,0.0,0.0,0.0,0.0,0.0,0.0,0.0,0.0,-2.8984,-2.8984,-2.8984,-2.8984,-2.8984,-2.8984,-2.8984,-2.8984,-2.8984,-2.8984,-2.8984,-2.8984,-2.8984,-2.8984,-2.8984,-2.8984,0.0,0.0,0.0,-2.8984,-2.8984,-2.8984,-2.8984,-2.8984,-2.8984,-2.8984,-2.8984,-2.8984,-2.9044,0.0,0.0,0.0,0.0,0.0,0.0,0.0,0.0,0.0,0.0,0.0,0.0,0.0,0.0,0.0,0.0,0.0,0.0,0.0,0.0,0.0,0.0,0.0,0.0,-1.3421,-1.3656,-1.3802,-1.3893,-1.3995,-1.387,-1.3584,-1.2848,-1.2358,-1.2066,-1.2035,-1.2004,0.0,0.0,0.0,0.0,-1.2358,0.0,0.0,0.0,0.0,0.0,-1.2444,-1.2628,0.0,-1.3375,-1.3892,-1.4356,0.0,0.0,0.0,0.0,-1.5074,-1.5093,-1.5065,-1.5074,-1.5157,-1.5368,-1.5725,-1.6083,0.0,0.0,0.0,0.0,0.0,0.0,0.0,0.0,0.0,0.0,0.0,0.0,0.0,0.0,0.0,0.0,0.0,0.0,0.0,0.0,0.0,0.0,0.0,-2.8984,-2.8984,-2.8984,-2.8984,-2.8984,-2.8984,-2.8984,-2.8984,-2.8984,-2.8984,-2.8984,-2.8984,-2.8984,-2.8984,-2.8984,-2.8984,0.0,0.0,0.0,-2.8984,-2.8984,-2.8984,-2.8984,-2.8984,-2.9094,-2.9213,-2.9213,-2.9331,-2.9459,0.0,0.0,0.0,0.0,0.0,0.0,0.0,0.0,0.0,0.0,0.0,0.0,0.0,0.0,0.0,0.0,0.0,0.0,0.0,0.0,0.0,0.0,0.0,-1.3662,-1.419,-1.4558,-1.4907,-1.5246,-1.4868,-1.4431,-1.3948,-1.2995,-1.2319,-1.1895,-1.2305,-1.2512,0.0,0.0,0.0,0.0,-1.2726,0.0,0.0,0.0,0.0,0.0,0.0,0.0,0.0,-1.4226,-1.4942,-1.5698,-1.5762,0.0,0.0,0.0,0.0,0.0,-1.5597,-1.5441,-1.5194,-1.5194,-1.5487,-1.5881,0.0,0.0,0.0,0.0,0.0,0.0,0.0,0.0,0.0,0.0,0.0,0.0,0.0,0.0,0.0,0.0,0.0,0.0,0.0,0.0,0.0,0.0,0.0,-2.8984,-2.8984,-2.8984,-2.8984,-2.8984,-2.8984,-2.8984,-2.8984,-2.8984,-2.8984,-2.8984,-2.8984,-2.9103,-2.9213,-2.9213,-2.9213,-2.9213,0.0,0.0,-2.8984,-2.8984,-2.8984,-2.8984,-2.8984,-2.9213,-2.9499,-2.9499,-2.9686,-2.9931,0.0,0.0,0.0,0.0,0.0,0.0,0.0,0.0,0.0,0.0,0.0,0.0,0.0,0.0,0.0,0.0,0.0,0.0,0.0,0.0,0.0,0.0,-1.2452,-1.2887,-1.3679,-1.3662,-1.3962,-1.465,-1.4016,-1.4213,-1.5099,-1.3608,-1.3017,-1.3177,-1.2696,-1.2512,-1.2543,-1.31,-1.3009,-1.2604,-1.3734,0.0,0.0,0.0,0.0,0.0,0.0,0.0,0.0,-1.5088,-1.557,-1.5753,-1.6111,0.0,0.0,0.0,0.0,0.0,-1.567,-1.5643,-1.5597,-1.5597,-1.5909,-1.6206,0.0,0.0,0.0,0.0,0.0,0.0,0.0,0.0,0.0,0.0,0.0,0.0,0.0,0.0,0.0,0.0,0.0,0.0,0.0,0.0,0.0,0.0,0.0,-2.8984,-2.8984,-2.8984,-2.8984,-2.8984,-2.8984,-2.8984,-2.8984,-2.8984,-2.8984,-2.8984,-2.8984,-2.939,-3.0216,-3.0216,-3.0216,-3.0216,0.0,-2.9745,-2.8984,-2.8984,-2.8984,-2.8984,-2.8984,-2.9213,-2.9499,-2.9499,-2.9686,-2.9922,0.0,0.0,0.0,0.0,0.0,0.0,0.0,0.0,0.0,0.0,0.0,0.0,0.0,0.0,0.0,0.0,0.0,0.0,0.0,0.0,0.0,-1.3354,-1.3385,-1.3445,-1.361,-1.3969,-1.4292,-1.4539,-1.4167,-1.4179,-1.4515,-1.367,-1.3152,-1.2948,-1.3009,-1.3039,-1.307,-1.3381,-1.3532,-1.3644,0.0,0.0,0.0,0.0,0.0,0.0,0.0,0.0,0.0,0.0,-1.5661,-1.6065,-1.6257,0.0,0.0,0.0,0.0,0.0,-1.6028,-1.6028,-1.6129,-1.656,-1.6652,0.0,0.0,0.0,0.0,0.0,0.0,0.0,0.0,0.0,0.0,0.0,0.0,0.0,0.0,0.0,0.0,0.0,0.0,0.0,0.0,0.0,0.0,0.0,0.0,0.0,-2.8984,-2.8984,-2.8984,-2.8984,-2.8984,-2.9213,-2.9745,-2.9745,-2.9745,-2.9745,-3.0255,-3.0713,-3.1121,-3.0616,-3.0382,-3.0392,0.0,-2.9686,-2.9745,-2.9213,-2.939,-2.9903,-2.944,-2.9568,-3.003,-3.0167,-3.0343,-3.047,0.0,0.0,0.0,0.0,0.0,0.0,0.0,0.0,0.0,0.0,0.0,0.0,0.0,0.0,0.0,0.0,0.0,0.0,0.0,0.0,-1.2753,-1.3786,-1.4242,-1.4279,-1.3893,-1.4445,-1.4698,-1.4539,-1.4185,-1.3784,-1.3365,-1.3629,-1.3421,-1.2877,-1.3309,-1.3601,-1.3713,-1.3713,-1.4066,-1.4637,0.0,0.0,0.0,0.0,0.0,0.0,0.0,0.0,0.0,0.0,0.0,0.0,0.0,0.0,0.0,-1.6908,-1.656,-1.6211,-1.6404,-1.6312,-1.6358,-1.7156,0.0,0.0,0.0,0.0,0.0,0.0,0.0,0.0,0.0,0.0,0.0,0.0,0.0,0.0,0.0,0.0,0.0,0.0,0.0,0.0,0.0,0.0,0.0,0.0,0.0,0.0,-2.8984,-2.8984,-2.8984,-2.8984,-2.9213,-2.9686,-3.0382,-3.085,-3.0956,-3.0723,-3.1469,-3.1805,-3.1805,-3.1295,-3.0898,-3.0665,-2.9962,-2.9912,-3.0323,-2.945,-2.9677,-3.0421,-2.9853,-2.9912,-3.045,-3.0762,-3.0889,-3.0889,0.0,0.0,0.0,0.0,0.0,0.0,0.0,0.0,0.0,0.0,0.0,0.0,0.0,0.0,0.0,0.0,0.0,0.0,0.0,0.0,-1.2349,-1.2453,-1.4035,-1.4883,-1.4727,-1.4657,-1.4539,-1.44,-1.3349,-1.2561,-1.206,-1.367,-1.4238,-1.3891,-1.3616,-1.3842,-1.444,-1.444,-1.468,-1.5081,-1.5529,0.0,0.0,0.0,0.0,0.0,0.0,0.0,0.0,0.0,0.0,0.0,0.0,0.0,-1.6908,-1.6908,-1.6349,-1.59,-1.6661,-1.6312,-1.5936,-1.6743,0.0,0.0,0.0,0.0,0.0,0.0,0.0,0.0,0.0,0.0,0.0,0.0,0.0,0.0,0.0,0.0,0.0,0.0,0.0,0.0,0.0,0.0,0.0,0.0,0.0,0.0,-2.8984,-2.8984,-2.8984,-2.8984,-2.9863,-3.0323,-3.0382,-3.2092,-3.2493,-3.169,-3.1747,-3.1805,-3.1805,-3.255,-3.2493,-3.169,-3.1632,-3.1121,-3.0333,-2.9736,-2.9499,-2.9618,-2.9804,-3.0098,-3.045,-3.0762,-3.0889,-3.0889,0.0,0.0,0.0,0.0,0.0,0.0,0.0,0.0,0.0,0.0,0.0,0.0,0.0,0.0,0.0,0.0,0.0,0.0,0.0,0.0,-1.2535,-1.3082,-1.4324,-1.4892,-1.4688,-1.4635,-1.4383,-1.3967,-1.3455,-1.3086,-1.2924,-1.4127,-1.4383,-1.3882,-1.4051,-1.4261,-1.4499,-1.4499,-1.479,-1.5317,-1.5806,-1.5979,0.0,0.0,0.0,0.0,0.0,0.0,0.0,0.0,-1.5845,-1.6288,0.0,-1.6587,-1.6908,-1.6908,-1.6688,-1.6459,-1.6523,-1.6862,-1.7339,-1.7889,0.0,0.0,0.0,0.0,0.0,0.0,0.0,0.0,0.0,0.0,0.0,0.0,0.0,0.0,0.0,0.0,0.0,0.0,0.0,0.0,0.0,0.0,0.0,0.0,0.0,0.0,-2.8984,-2.8755,-2.8843,-2.934,-2.9499,-3.0096,-3.1223,-3.2151,-3.2801,-3.3045,-3.3342,-3.348,-3.348,-3.3243,-3.2949,-3.255,-3.1411,-3.1131,-3.1421,-3.0079,-3.0089,-3.0908,-3.0635,-3.0587,-3.0704,-3.083,-3.0889,-3.0889,0.0,0.0,0.0,0.0,0.0,0.0,0.0,0.0,0.0,0.0,0.0,0.0,0.0,0.0,0.0,0.0,0.0,0.0,0.0,-1.1809,-1.2338,-1.2937,-1.3834,-1.4266,-1.4169,-1.4258,-1.4085,-1.3643,-1.3531,-1.3361,-1.3077,-1.4045,-1.4195,-1.3671,-1.4389,-1.4812,-1.5001,-1.5132,-1.5516,-1.6055,-1.6234,-1.6343,0.0,0.0,0.0,0.0,0.0,0.0,0.0,0.0,-1.5863,0.0,0.0,0.0,0.0,0.0,-1.6817,-1.6688,-1.6541,-1.7166,-1.8018,0.0,0.0,0.0,0.0,0.0,0.0,0.0,0.0,0.0,0.0,0.0,0.0,0.0,0.0,0.0,0.0,0.0,0.0,0.0,0.0,0.0,0.0,0.0,0.0,0.0,0.0,0.0,0.0,-2.8416,-2.8591,-2.9412,-2.9416,-3.0032,-3.1254,-3.2317,-3.3057,-3.3408,-3.4117,-3.4345,-3.4054,-3.3706,-3.3356,-3.3006,-3.1584,-3.1642,-3.2618,-3.0606,-3.045,-3.145,-3.1054,-3.0889,-3.0889,-3.0889,-3.0889,-3.0889,0.0,0.0,0.0,0.0,0.0,0.0,0.0,0.0,0.0,0.0,0.0,0.0,0.0,0.0,0.0,0.0,0.0,0.0,-1.091,-1.1333,-1.1591,-1.1591,-1.2364,-1.2935,-1.321,-1.3526,-1.3643,-1.3506,-1.3506,-1.303,-1.2128,-1.3268,-1.3644,-1.3368,-1.4575,-1.5465,-1.6124,-1.6543,-1.6982,-1.735,-1.6978,-1.7091,-1.7461,0.0,0.0,0.0,0.0,0.0,0.0,0.0,-1.5652,-1.6248,0.0,0.0,0.0,0.0,-1.6633,-1.6389,-1.6807,-1.7211,0.0,0.0,0.0,0.0,0.0,0.0,0.0,0.0,0.0,0.0,0.0,0.0,0.0,0.0,0.0,0.0,0.0,0.0,0.0,0.0,0.0,0.0,0.0,0.0,0.0,0.0,0.0,0.0,0.0,-2.7994,-2.8144,-2.8981,-2.9901,-3.0389,-3.0389,-3.2636,-3.3332,-3.2503,-3.3883,-3.3998,-3.3176,-3.4054,-3.3998,-3.3063,-3.2446,-3.2892,-3.3786,-3.1411,-3.0635,-3.0947,-3.0889,-3.0889,-3.0889,-3.0889,-3.0889,-3.0889,0.0,0.0,0.0,0.0,0.0,0.0,0.0,0.0,0.0,0.0,0.0,0.0,0.0,0.0,0.0,0.0,0.0,0.0,-1.091,-1.1333,-1.1591,-1.1591,-1.264,-1.3368,-1.3696,-1.3896,-1.3835,-1.3506,-1.3213,-1.2934,-1.268,-1.3604,-1.4141,-1.4407,-1.5379,-1.6077,-1.6512,-1.6502,-1.6565,-1.6709,-1.6788,-1.6812,-1.6799,0.0,0.0,0.0,0.0,0.0,0.0,0.0,0.0,0.0,0.0,0.0,0.0,-1.6908,-1.7229,-1.7578,-1.7697,0.0,0.0,0.0,0.0,0.0,0.0,0.0,0.0,0.0,0.0,0.0,0.0,0.0,0.0,0.0,0.0,0.0,0.0,0.0,0.0,0.0,0.0,0.0,0.0,0.0,0.0,0.0,0.0,0.0,0.0,-2.7572,-2.7726,-2.8531,-2.8571,-2.9172,-3.0409,-3.1401,-3.2233,-3.2955,-3.4097,-3.4461,-3.411,-3.4836,-3.4502,-3.3445,-3.2995,-3.2711,-3.2457,-3.217,-3.2561,-3.3279,-3.2457,-3.218,-3.2065,-3.1228,-3.0889,-3.0889,0.0,0.0,0.0,0.0,0.0,0.0,0.0,0.0,0.0,0.0,0.0,0.0,0.0,0.0,0.0,0.0,0.0,0.0,0.0,0.0,-1.1313,-1.1313,-1.2093,-1.2839,-1.3502,-1.3749,-1.3821,-1.3734,-1.334,-1.3071,-1.2925,-1.3916,-1.4443,-1.457,-1.5635,-1.6309,-1.6707,-1.6776,-1.6876,-1.7031,-1.6906,-1.6873,-1.688,0.0,0.0,0.0,0.0,0.0,0.0,0.0,0.0,0.0,0.0,0.0,0.0,-1.6908,-1.7486,-1.8091,-1.8091,0.0,0.0,0.0,0.0,0.0,0.0,0.0,0.0,0.0,0.0,0.0,0.0,0.0,0.0,0.0,0.0,0.0,0.0,0.0,0.0,0.0,0.0,0.0,0.0,0.0,0.0,0.0,0.0,0.0,0.0,-2.716,-2.7307,-2.8144,-2.7905,-2.8305,-2.9375,-3.0504,-3.1455,-3.2105,-3.3643,-3.443,-3.4612,-3.5374,-3.5389,-3.4669,-3.4179,-3.3063,-3.1508,-3.2352,-3.3119,-3.3628,-3.2457,-3.2295,-3.2571,-3.1344,-3.0889,-3.0889,0.0,0.0,0.0,0.0,0.0,0.0,0.0,0.0,0.0,0.0,0.0,0.0,0.0,0.0,0.0,0.0,0.0,0.0,0.0,0.0,-1.0921,-1.0962,-1.1227,-1.186,-1.2876,-1.3291,-1.3665,-1.4055,-1.3665,-1.333,-1.3052,-1.4255,-1.459,-1.428,-1.5596,-1.6367,-1.6785,-1.7223,-1.7623,-1.7876,-1.7164,-1.7139,-1.7389,-1.6649,0.0,0.0,0.0,0.0,0.0,0.0,0.0,0.0,0.0,0.0,-1.6908,-1.6908,-1.7486,-1.81,0.0,0.0,0.0,0.0,0.0,0.0,0.0,0.0,0.0,0.0,0.0,0.0,0.0,0.0,0.0,0.0,0.0,0.0,0.0,0.0,0.0,0.0,0.0,0.0,0.0,0.0,0.0,0.0,0.0,0.0,0.0,-2.6839,-2.6954,-2.7672,-2.7726,-2.778,-2.7824,-2.9921,-3.0936,-3.0787,-3.2924,-3.4257,-3.4796,-3.5661,-3.6042,-3.5859,-3.5245,-3.3526,-3.117,-3.2238,-3.2742,-3.2742,-3.1508,-3.173,-3.2571,-3.1344,-3.0889,-3.0889,0.0,0.0,0.0,0.0,0.0,0.0,0.0,0.0,0.0,0.0,0.0,0.0,0.0,0.0,0.0,0.0,0.0,0.0,0.0,0.0,-1.1055,-1.1436,-1.2301,-1.2815,-1.2905,-1.3291,-1.3555,-1.3617,-1.3555,-1.3633,0.0,0.0,0.0,-1.5147,0.0,-1.6836,-1.7275,-1.7394,-1.7522,-1.7564,-1.7092,-1.7033,-1.7235,-1.7073,-1.7058,0.0,0.0,0.0,0.0,0.0,0.0,0.0,-1.678,-1.6835,-1.6908,-1.6908,-1.7486,0.0,0.0,0.0,0.0,0.0,0.0,0.0,0.0,0.0,0.0,0.0,0.0,0.0,0.0,0.0,0.0,0.0,0.0,0.0,0.0,0.0,0.0,0.0,0.0,0.0,0.0,0.0,0.0,0.0,0.0,0.0,-2.6719,-2.6837,-2.689,-2.6845,-2.7043,-2.753,-2.8184,-2.9509,-3.0779,0.0,-3.3777,-3.4897,-3.5369,-3.4717,-3.3865,-3.2908,-3.2189,-3.2018,-3.2352,-3.2571,-3.3243,-3.3899,-3.2732,-3.2457,-3.2571,-3.1344,-3.0889,-3.0889,0.0,0.0,0.0,0.0,0.0,0.0,0.0,0.0,0.0,0.0,0.0,0.0,0.0,0.0,0.0,0.0,0.0,0.0,0.0,0.0,0.0,-1.1715,-1.2431,-1.2833,-1.2905,-1.3291,-1.3578,-1.3782,-1.4014,0.0,0.0,0.0,0.0,-1.4825,0.0,-1.666,-1.7067,-1.733,-1.7552,-1.7691,-1.7209,-1.7135,-1.7295,-1.703,-1.6965,-1.7072,-1.7072,0.0,0.0,0.0,0.0,0.0,0.0,0.0,-1.6908,-1.6908,-1.7486,-1.8293,0.0,0.0,0.0,0.0,0.0,0.0,0.0,0.0,0.0,0.0,0.0,0.0,0.0,0.0,0.0,0.0,0.0,0.0,0.0,0.0,0.0,0.0,0.0,0.0,0.0,0.0,0.0,0.0,0.0,-2.6636,-2.6791,-2.6944,-2.6999,-2.6954,-2.7107,-2.7682,-2.8688,-2.9102,-3.0402,-3.2552,-3.2779,-3.2873,-3.2882,-3.4057,-3.378,-3.2313,-3.1907,-3.1787,-3.1845,-3.1845,-3.2514,-3.3448,-3.2295,-3.218,-3.2571,-3.1344,-3.0889,-3.0889,0.0,0.0,0.0,0.0,0.0,0.0,0.0,0.0,0.0,0.0,0.0,0.0,0.0,0.0,0.0,0.0,0.0,0.0,0.0,0.0,0.0,0.0,-1.2347,-1.2638,-1.2895,-1.3291,-1.3685,-1.4104,0.0,0.0,0.0,0.0,0.0,-1.4494,0.0,-1.6387,-1.6736,-1.7243,-1.7652,-1.7901,-1.7384,-1.7317,-1.7491,-1.6972,-1.6887,-1.7012,-1.7012,-1.6978,-1.6908,-1.6908,0.0,0.0,0.0,0.0,-1.6908,-1.6908,-1.7385,-1.8054,0.0,0.0,0.0,0.0,0.0,0.0,0.0,0.0,0.0,0.0,0.0,0.0,0.0,0.0,0.0,0.0,0.0,0.0,0.0,0.0,0.0,0.0,0.0,0.0,0.0,0.0,0.0,0.0,0.0,-2.6791,-2.6989,-2.7098,-2.7206,-2.7377,-2.7485,-2.795,-2.888,-2.8837,-3.0016,-3.2303,-3.137,-3.0609,-3.0129,-3.3173,-3.3672,-3.2174,-3.2246,-3.1775,-3.0889,-3.0889,-3.1508,-3.2295,-3.1286,-3.1508,-3.2295,-3.1286,-3.0889,-3.0889,0.0,0.0,0.0,0.0,0.0,0.0,0.0,0.0,0.0,0.0,0.0,0.0,0.0,0.0,0.0,0.0,0.0,0.0,0.0,0.0,0.0,-1.2514,-1.2829,-1.2967,-1.2905,-1.3291,-1.3685,0.0,0.0,0.0,0.0,0.0,0.0,-1.586,0.0,0.0,-1.6746,-1.7402,-1.7692,-1.7706,-1.7541,-1.7541,-1.7672,-1.758,-1.7507,-1.7436,-1.7436,-1.7185,-1.6908,-1.6908,-1.6908,0.0,0.0,0.0,-1.6908,-1.6908,-1.6991,0.0,0.0,0.0,0.0,0.0,0.0,0.0,0.0,0.0,0.0,0.0,0.0,0.0,0.0,0.0,0.0,0.0,0.0,0.0,0.0,0.0,0.0,0.0,0.0,0.0,0.0,0.0,0.0,0.0,-2.6845,-2.6935,-2.6989,-2.753,-2.7638,-2.7431,-2.7691,-2.7906,-2.8057,-2.8933,-2.9702,-3.0276,-3.1114,-3.1122,-3.0532,-3.1029,-3.0768,-3.0036,-3.0401,-3.069,-3.0889,-3.0889,-3.1005,-3.1112,-3.0947,-3.1005,-3.1112,-3.0947,-3.0889,-3.0889,0.0,0.0,0.0,0.0,0.0,0.0,0.0,0.0,0.0,0.0,0.0,0.0,0.0,0.0,0.0,0.0,0.0,0.0,0.0,0.0,0.0,-1.2581,-1.2918,-1.3036,-1.2905,-1.35,-1.3929,0.0,0.0,0.0,0.0,-1.5195,-1.5166,0.0,0.0,0.0,0.0,0.0,0.0,-1.7862,-1.7803,0.0,0.0,-1.7619,-1.7293,-1.6836,-1.7334,-1.7139,-1.6723,-1.6989,-1.7003,-1.6908,-1.6908,0.0,0.0,0.0,-1.6908,0.0,0.0,0.0,0.0,0.0,0.0,0.0,0.0,0.0,0.0,0.0,0.0,0.0,0.0,0.0,0.0,0.0,0.0,0.0,0.0,0.0,0.0,0.0,0.0,0.0,0.0,0.0,0.0,0.0,-2.66,-2.6711,-2.6793,-2.7257,-2.755,-2.7569,-2.7728,-2.8196,-2.8986,-2.865,-2.866,-2.9006,-3.013,-3.0193,-2.9297,-2.9297,-2.9406,-2.959,-3.0019,-3.0312,-3.0518,-3.0781,-3.0889,-3.0889,-3.0889,-3.0889,-3.0889,-3.0889,-3.0889,-3.0889,0.0,0.0,0.0,0.0,0.0,0.0,0.0,0.0,0.0,0.0,0.0,0.0,0.0,0.0,0.0,0.0,0.0,0.0,0.0,0.0,0.0,-1.2732,-1.2978,-1.3086,-1.3062,-1.3734,0.0,0.0,0.0,0.0,-1.5909,-1.5019,-1.4736,0.0,-1.5762,0.0,0.0,0.0,0.0,0.0,0.0,0.0,0.0,0.0,-1.7144,-1.6499,-1.7116,-1.7032,-1.6713,-1.7098,-1.7072,-1.6908,-1.6968,-1.6934,0.0,0.0,0.0,0.0,0.0,0.0,0.0,0.0,0.0,0.0,0.0,0.0,0.0,0.0,0.0,0.0,0.0,0.0,0.0,0.0,0.0,0.0,0.0,0.0,0.0,0.0,0.0,0.0,0.0,0.0,0.0,0.0,-2.6392,-2.6513,-2.6612,-2.6943,-2.7272,-2.75,-2.75,-2.8053,-2.9176,-2.8172,-2.7881,-2.8291,-2.9112,-2.9059,-2.8291,-2.8291,-2.8643,-2.9268,-2.9687,-2.9941,-3.0068,-3.0527,-3.0713,-3.0723,-3.084,-3.0889,-3.0889,-3.0889,-3.0889,-3.0889,0.0,0.0,0.0,0.0,0.0,0.0,0.0,0.0,0.0,0.0,0.0,0.0,0.0,-1.091,-1.1076,-1.155,-1.1178,-1.1292,-1.2214,-1.2927,-1.3277,-1.3178,-1.3118,0.0,-1.3467,-1.388,0.0,0.0,0.0,0.0,-1.543,-1.4543,-1.4572,-1.54,-1.5889,-1.576,-1.5272,0.0,0.0,0.0,0.0,0.0,0.0,0.0,0.0,0.0,0.0,-1.6966,-1.7173,-1.7192,-1.7072,-1.6943,-1.7132,-1.7038,-1.6908,0.0,0.0,0.0,0.0,0.0,0.0,0.0,0.0,0.0,0.0,0.0,0.0,0.0,0.0,0.0,0.0,0.0,0.0,0.0,0.0,0.0,0.0,0.0,0.0,0.0,0.0,0.0,0.0,0.0,0.0,0.0,-2.6323,-2.6561,-2.6593,-2.6878,-2.7,-2.7051,-2.7051,-2.706,-2.7131,-2.7523,-2.7881,-2.8291,-2.8344,-2.8344,-2.8291,-2.8291,-2.831,-2.8389,-2.8799,-2.9219,-2.9629,-3.0059,-3.0234,-3.0273,-3.0723,-3.0889,-3.0889,-3.0889,-3.0889,-3.0889,0.0,0.0,0.0,0.0,0.0,0.0,0.0,0.0,0.0,0.0,0.0,0.0,0.0,-1.1363,-1.1633,-1.2379,-1.2274,-1.2326,-1.2668,-1.2921,-1.3113,-1.3198,-1.3471,-1.3467,-1.3105,-1.4053,0.0,0.0,0.0,-1.4406,-1.5,-1.3994,-1.406,-1.5029,-1.5068,-1.5311,-1.5708,-1.5409,0.0,0.0,0.0,0.0,0.0,0.0,0.0,0.0,0.0,0.0,0.0,-1.8712,-1.8544,-1.8031,-1.7823,-1.7543,-1.7254,-1.7141,-1.7003,0.0,0.0,0.0,0.0,0.0,0.0,0.0,0.0,0.0,0.0,0.0,0.0,0.0,0.0,0.0,0.0,0.0,0.0,0.0,0.0,0.0,0.0,0.0,0.0,0.0,0.0,0.0,0.0,0.0,0.0,-2.6114,-2.6003,-2.6405,-2.6611,-2.6611,-2.6611,-2.6611,-2.6611,-2.7366,-2.7796,-2.7891,-2.8164,-2.8291,-2.8291,-2.8291,-2.8291,-2.8301,-2.8447,-2.876,-2.9189,-2.9619,-2.9951,-3.0215,-3.0381,-3.0625,-3.0889,-3.0889,-3.0889,-3.0889,0.0,0.0,0.0,0.0,0.0,0.0,0.0,0.0,0.0,0.0,0.0,0.0,0.0,0.0,-1.2068,-1.2648,-1.2979,-1.3132,-1.3132,-1.3086,-1.3188,-1.3419,-1.3561,-1.3467,-1.312,-1.3815,0.0,0.0,0.0,0.0,0.0,-1.3838,-1.3895,-1.4204,-1.4719,-1.5177,0.0,0.0,0.0,-1.5845,0.0,0.0,-1.6462,0.0,0.0,0.0,0.0,0.0,0.0,0.0,0.0,-1.8655,-1.8489,-1.7918,-1.7358,-1.7245,-1.7107,0.0,0.0,0.0,0.0,0.0,0.0,0.0,0.0,0.0,0.0,0.0,0.0,0.0,0.0,0.0,0.0,0.0,0.0,0.0,0.0,0.0,0.0,0.0,0.0,0.0,0.0,0.0,0.0,0.0,0.0,0.0,-2.5703,-2.6016,-2.6172,-2.6172,-2.6172,-2.624,-2.6387,-2.6953,-2.7434,-2.7718,-2.7949,-2.8154,-2.8291,-2.8291,-2.8291,-2.8291,-2.8291,-2.8447,-2.874,-2.918,-2.9512,-2.9795,-3.0088,-3.0391,-3.0674,-3.083,-3.0889,-3.0889,0.0,0.0,0.0,0.0,0.0,0.0,0.0,0.0,0.0,-1.0921,0.0,0.0,0.0,0.0,0.0,-1.2339,-1.3103,-1.3597,-1.3597,-1.3467,-1.3541,-1.3867,-1.3401,-1.3209,-1.3451,-1.309,0.0,0.0,0.0,0.0,0.0,0.0,-1.4091,0.0,-1.4912,-1.5293,-1.4575,0.0,-1.5272,-1.4233,0.0,-1.6357,-1.5993,0.0,0.0,0.0,-1.9492,-1.9995,0.0,-2.0371,0.0,0.0,0.0,0.0,-1.7201,-1.7201,0.0,0.0,0.0,0.0,0.0,0.0,0.0,0.0,0.0,0.0,0.0,0.0,0.0,0.0,0.0,0.0,0.0,0.0,0.0,0.0,0.0,0.0,0.0,0.0,0.0,0.0,0.0,0.0,0.0,0.0,-2.5518,-2.5664,-2.5664,-2.5684,-2.5693,-2.5693,-2.5693,-2.5937,-2.6367,-2.6387,-2.6816,-2.7699,-2.7708,-2.7891,-2.8291,-2.8291,-2.8291,-2.8291,-2.8291,-2.8291,-2.833,-2.873,-2.8906,-2.9004,-2.9853,-3.0185,-3.0254,-3.0723,-3.0889,-3.0889,0.0,0.0,0.0,0.0,0.0,0.0,-1.093,-1.091,-1.1014,0.0,0.0,0.0,-1.2472,-1.2969,-1.3238,-1.3238,-1.3465,-1.3597,-1.3597,-1.3467,-1.3399,-1.3389,-1.3472,-1.3217,-1.2501,-1.2959,0.0,0.0,0.0,0.0,0.0,0.0,0.0,0.0,-1.377,-1.4382,-1.4778,-1.4701,0.0,0.0,-1.573,-1.6551,0.0,0.0,0.0,0.0,0.0,-2.1072,-2.1539,0.0,-2.1202,-1.9877,0.0,0.0,0.0,0.0,0.0,0.0,-1.7245,0.0,0.0,0.0,0.0,0.0,0.0,0.0,0.0,0.0,0.0,0.0,0.0,0.0,0.0,0.0,0.0,0.0,0.0,0.0,0.0,0.0,0.0,0.0,0.0,0.0,0.0,0.0,-2.5021,-2.5254,-2.5254,-2.5557,-2.5693,-2.5693,-2.5693,-2.5742,-2.5869,-2.623,-2.666,-2.7197,-2.7519,-2.7891,-2.8291,-2.8291,-2.8291,-2.8291,-2.8291,-2.8291,-2.8301,-2.8418,-2.8643,-2.8975,-2.9531,-2.9932,-3.0254,-3.0723,-3.0889,-3.0889,0.0,0.0,0.0,0.0,0.0,0.0,-1.0931,-1.122,-1.1571,0.0,0.0,0.0,-1.3111,-1.3431,-1.3597,-1.3597,-1.3597,-1.3669,-1.3865,-1.3319,-1.3046,-1.315,-1.2849,-1.2482,-1.211,-1.2139,0.0,0.0,0.0,0.0,0.0,0.0,0.0,0.0,0.0,0.0,0.0,0.0,0.0,0.0,-1.5542,0.0,0.0,-1.8964,-2.0008,0.0,0.0,0.0,-2.2438,-2.2805,-2.212,0.0,0.0,0.0,0.0,0.0,0.0,0.0,0.0,0.0,0.0,0.0,0.0,0.0,-1.8209,-1.8455,0.0,0.0,0.0,0.0,0.0,0.0,0.0,0.0,0.0,0.0,0.0,0.0,0.0,0.0,0.0,0.0,0.0,-2.415,-2.4228,-2.4404,-2.4648,-2.4795,-2.4795,-2.5215,-2.5459,-2.5459,-2.5586,-2.5693,-2.5693,-2.5986,-2.6328,-2.6758,-2.7012,-2.7353,-2.7764,-2.7949,-2.8027,-2.8047,-2.8223,-2.8291,-2.8291,-2.8291,-2.8437,-2.8711,-2.9326,-2.9717,-3.0019,-3.0654,-3.0889,-3.0889,0.0,0.0,0.0,-1.0443,-1.1063,-1.1477,-1.1107,-1.1747,-1.2328,0.0,-1.272,-1.3152,-1.3617,-1.3628,-1.3607,-1.3587,-1.3546,-1.3686,-1.4073,-1.3007,-1.2557,-1.3035,-1.1917,-1.1522,-1.2004,-1.1135,0.0,0.0,0.0,0.0,0.0,0.0,0.0,0.0,0.0,0.0,0.0,0.0,0.0,-1.6409,-1.5739,-1.6483,0.0,0.0,-2.0508,-2.1055,-2.2588,-2.3091,-2.3062,-2.2877,-2.2422,0.0,0.0,0.0,0.0,0.0,-1.7817,0.0,0.0,0.0,0.0,0.0,0.0,0.0,-1.8066,-1.8353,-1.8954,0.0,0.0,0.0,0.0,0.0,0.0,0.0,0.0,0.0,0.0,0.0,0.0,0.0,0.0,0.0,-2.3682,-2.3721,-2.3877,-2.4248,-2.4316,-2.4394,-2.4482,-2.4853,-2.5135,-2.5184,-2.5527,-2.5693,-2.5693,-2.5693,-2.5957,-2.6387,-2.6387,-2.6611,-2.7021,-2.7412,-2.7669,-2.7738,-2.8057,-2.8252,-2.8291,-2.8291,-2.8291,-2.8369,-2.918,-2.9531,-2.9678,-3.0508,-3.085,-3.0889,0.0,0.0,-1.1232,-1.1368,-1.1507,-1.1695,-1.1975,-1.2193,-1.2411,-1.2751,0.0,0.0,0.0,-1.3814,-1.3587,-1.3511,-1.3165,-1.2949,-1.2927,-1.2353,-1.2226,-1.2743,-1.2122,-1.169,-1.154,-1.1338,-1.1283,0.0,0.0,0.0,0.0,0.0,0.0,0.0,0.0,0.0,0.0,0.0,0.0,-1.6945,-1.748,0.0,-1.9998,-2.1791,-2.2516,-2.2643,-2.2974,-2.3091,-2.2886,-2.1533,-2.1435,-2.1553,0.0,0.0,0.0,-1.9046,0.0,0.0,0.0,0.0,0.0,0.0,0.0,0.0,-1.8815,-1.8447,-1.8399,0.0,0.0,0.0,0.0,0.0,0.0,0.0,0.0,0.0,0.0,0.0,0.0,0.0,0.0,0.0,-2.3218,-2.3218,-2.3257,-2.3335,-2.3711,-2.4209,-2.4949,-2.5067,-2.5234,-2.5547,-2.5645,-2.5693,-2.5693,-2.5693,-2.5957,-2.6387,-2.6387,-2.6611,-2.7012,-2.71,-2.7334,-2.7718,-2.7806,-2.7978,-2.8291,-2.8291,-2.8291,-2.834,-2.8848,-2.9258,-2.9629,-3.0137,-3.0566,-3.0889,0.0,0.0,-1.1183,-1.1277,-1.1653,-1.2037,-1.2266,-1.267,0.0,0.0,0.0,0.0,0.0,0.0,-1.4286,-1.4255,-1.3722,-1.3375,-1.3299,-1.2475,-1.2058,-1.2236,-1.1671,-1.1379,-1.1415,-1.1141,-1.1141,0.0,0.0,0.0,0.0,0.0,0.0,0.0,0.0,0.0,0.0,0.0,-1.4803,-1.6538,-1.7342,0.0,-1.9897,-2.1797,-2.2202,-2.1854,-2.2761,-2.3091,-2.2896,-2.166,-2.1564,0.0,0.0,-1.9666,-1.9287,0.0,-1.8682,-1.7974,0.0,0.0,0.0,-1.7862,0.0,0.0,0.0,-1.8241,-1.8255,0.0,0.0,0.0,0.0,0.0,0.0,0.0,0.0,0.0,0.0,0.0,0.0,0.0,0.0,0.0,-2.3091,-2.3091,-2.3091,-2.3091,-2.334,-2.3652,-2.4082,-2.4307,-2.4629,-2.5021,-2.5293,-2.5508,-2.5693,-2.5693,-2.5801,-2.6064,-2.6064,-2.6182,-2.6337,-2.6602,-2.6934,-2.7353,-2.762,-2.791,-2.8291,-2.8291,-2.8291,-2.833,-2.875,-2.9053,-2.9326,-2.9961,-3.0342,-3.0576,0.0,0.0,0.0,-1.1187,-1.1851,-1.2442,-1.2535,-1.3144,0.0,0.0,0.0,0.0,0.0,0.0,0.0,0.0,-1.4429,-1.3926,-1.3624,-1.2674,-1.2041,-1.187,-1.1243,-1.1071,-1.142,-1.1002,-1.1002,-1.1448,0.0,0.0,0.0,0.0,0.0,0.0,0.0,0.0,0.0,0.0,0.0,-1.6168,0.0,-1.8012,-1.9344,-2.1355,-2.1408,-2.0688,-2.2476,-2.3091,-2.2964,-2.2168,-2.1992,-2.1943,-2.0938,-2.0126,0.0,0.0,0.0,0.0,0.0,0.0,0.0,0.0,0.0,-1.8008,0.0,0.0,0.0,0.0,0.0,0.0,0.0,0.0,0.0,0.0,0.0,0.0,0.0,0.0,0.0,0.0,0.0,0.0,0.0,-2.3003,-2.3091,-2.3091,-2.3091,-2.313,-2.3218,-2.3603,-2.4023,-2.4521,-2.4883,-2.5283,-2.5684,-2.5693,-2.5693,-2.5693,-2.5693,-2.5693,-2.5703,-2.6103,-2.6543,-2.7031,-2.7393,-2.7822,-2.8291,-2.8291,-2.8291,-2.833,-2.8672,-2.8848,-2.9004,-2.9697,-3.0059,-3.0244,-1.1233,-1.1522,0.0,0.0,-1.2513,-1.2967,-1.3403,-1.3548,0.0,0.0,0.0,0.0,0.0,0.0,0.0,0.0,0.0,0.0,-1.2303,0.0,-1.2151,-1.2066,-1.1526,-1.1361,-1.1567,-1.1512,-1.1512,-1.1574,0.0,0.0,0.0,0.0,0.0,0.0,-1.2228,0.0,0.0,0.0,-1.5627,0.0,-1.7797,-1.8587,0.0,-2.2002,-2.1988,-2.089,-2.252,-2.3091,-2.2964,0.0,-2.2383,-2.2672,0.0,-2.0537,-2.0312,-1.9549,0.0,0.0,0.0,0.0,0.0,0.0,-1.8008,0.0,0.0,0.0,-1.8037,-1.8135,0.0,0.0,0.0,0.0,0.0,0.0,0.0,0.0,0.0,0.0,0.0,0.0,0.0,0.0,0.0,-2.2705,-2.3091,-2.3091,-2.3091,-2.3266,-2.3691,-2.376,-2.416,-2.4971,-2.5086,-2.5283,-2.5684,-2.5693,-2.5693,-2.5693,-2.5693,-2.5693,-2.5693,-2.5742,-2.625,-2.7012,-2.707,-2.7549,-2.8291,-2.8291,-2.8291,-2.8301,-2.834,-2.8594,-2.8926,-2.9033,-2.9551,-3.0205,-1.1625,-1.1695,0.0,0.0,-1.2803,-1.306,-1.3524,-1.3814,0.0,0.0,0.0,0.0,0.0,0.0,0.0,0.0,0.0,-1.4827,0.0,0.0,0.0,-1.3432,-1.2372,-1.194,-1.2352,-1.1853,-1.1591,-1.1591,-1.1591,0.0,0.0,0.0,0.0,0.0,-1.2432,0.0,-1.2954,0.0,-1.6131,0.0,0.0,0.0,0.0,-2.1165,-2.2195,-2.2198,-2.2877,-2.3091,-2.3042,0.0,-2.2519,0.0,0.0,0.0,0.0,0.0,0.0,0.0,0.0,0.0,0.0,0.0,0.0,0.0,-1.8125,0.0,-1.8008,0.0,0.0,0.0,0.0,0.0,0.0,0.0,-1.8203,0.0,0.0,0.0,0.0,0.0,0.0,0.0,0.0,0.0,0.0,0.0,-2.2412,-2.249,-2.2676,-2.3144,-2.3809,-2.4668,-2.4687,-2.5029,-2.5684,-2.5693,-2.5693,-2.5693,-2.5693,-2.5693,-2.5693,-2.5693,-2.6074,-2.667,-2.6904,-2.7363,-2.7949,-2.8193,-2.8291,-2.8291,-2.8291,-2.8398,-2.8584,-2.8828,-2.9307,-2.9863,-1.2202,0.0,0.0,0.0,0.0,-1.3245,-1.371,0.0,0.0,0.0,0.0,0.0,-1.5455,-1.5522,0.0,0.0,-1.6458,-1.6031,0.0,0.0,-1.4639,0.0,0.0,0.0,-1.2905,-1.2203,-1.1767,-1.1591,-1.1591,0.0,0.0,0.0,0.0,0.0,0.0,-1.311,-1.3447,0.0,0.0,-1.5978,-1.7943,-1.8208,-1.7679,-2.0131,-2.1907,-2.3057,-2.2828,-2.2872,-2.3091,-2.3091,-2.2691,0.0,-2.2676,0.0,0.0,0.0,0.0,0.0,-1.9463,0.0,0.0,0.0,0.0,0.0,0.0,0.0,0.0,0.0,0.0,0.0,0.0,0.0,0.0,0.0,0.0,-1.7969,0.0,0.0,0.0,0.0,0.0,0.0,0.0,0.0,0.0,-2.1515,-2.1523,-2.1672,-2.1875,-2.2461,-2.3198,-2.4219,-2.4248,-2.4668,-2.5547,-2.5557,-2.5567,-2.5693,-2.5693,-2.5693,-2.5693,-2.5693,-2.5977,-2.6406,-2.6709,-2.7158,-2.7738,-2.7998,-2.8193,-2.8291,-2.8291,-2.8291,-2.833,-2.8633,-2.9092,-2.9619,-1.2919,-1.3053,0.0,0.0,0.0,0.0,0.0,0.0,0.0,0.0,0.0,0.0,0.0,0.0,0.0,0.0,0.0,-1.6732,-1.5939,0.0,-1.4353,0.0,0.0,-1.2815,0.0,-1.2613,-1.2189,-1.1591,0.0,0.0,0.0,0.0,0.0,0.0,0.0,-1.3362,-1.4065,-1.5372,-1.6818,-1.8142,-1.7612,-1.7925,-1.879,0.0,-2.0921,-2.296,-2.205,0.0,0.0,-2.3091,-2.3081,0.0,0.0,0.0,0.0,0.0,0.0,0.0,0.0,0.0,0.0,-2.0351,0.0,0.0,0.0,0.0,-1.8008,0.0,0.0,0.0,0.0,0.0,0.0,0.0,0.0,0.0,0.0,0.0,0.0,0.0,0.0,0.0,0.0,0.0,0.0,-2.0644,-2.0644,-2.1026,-2.1836,-2.1904,-2.25,-2.3769,-2.3809,-2.4219,-2.5125,-2.5135,-2.5303,-2.5693,-2.5693,-2.5693,-2.5693,-2.5693,-2.5977,-2.6387,-2.6406,-2.6885,-2.7718,-2.7738,-2.793,-2.8291,-2.8291,-2.8291,-2.8291,-2.831,-2.8848,-2.9626,0.0,0.0,0.0,0.0,0.0,0.0,0.0,-1.472,0.0,0.0,0.0,0.0,0.0,-1.6954,-1.6812,0.0,0.0,-1.7227,-1.6868,-1.635,0.0,0.0,0.0,-1.3925,0.0,0.0,0.0,0.0,0.0,0.0,0.0,0.0,0.0,0.0,0.0,-1.3494,0.0,0.0,0.0,0.0,0.0,-1.8246,-1.9382,0.0,-2.1948,-2.2192,-2.2511,-2.2818,0.0,-2.3091,-2.3091,-2.3042,-2.276,-2.2334,-2.1826,-2.1533,-2.1065,-2.0732,0.0,0.0,-2.1074,-2.1407,0.0,0.0,0.0,0.0,0.0,0.0,0.0,0.0,0.0,0.0,0.0,0.0,0.0,0.0,0.0,0.0,0.0,0.0,0.0,0.0,0.0,0.0,0.0,-1.9715,-1.9754,-2.0136,-2.1006,-2.1572,-2.2471,-2.375,-2.3789,-2.4062,-2.4629,-2.4922,-2.5194,-2.5293,-2.5547,-2.5693,-2.5693,-2.5693,-2.5771,-2.5977,-2.6269,-2.6709,-2.7256,-2.7549,-2.7963,-2.8291,-2.8291,-2.8291,-2.8291,-2.8291,-2.8828,-2.9658,-1.3236,0.0,0.0,0.0,0.0,0.0,0.0,0.0,0.0,0.0,-1.6736,0.0,-1.8127,0.0,-1.7365,0.0,-1.8171,-1.7772,-1.7752,-1.7184,0.0,-1.7504,-1.5848,0.0,0.0,0.0,0.0,0.0,0.0,-1.1654,0.0,0.0,0.0,0.0,0.0,0.0,-1.4263,0.0,-1.6452,0.0,0.0,-1.8397,0.0,0.0,-2.2064,-2.1842,0.0,-2.2828,-2.3091,-2.3091,-2.3091,-2.3091,-2.3091,-2.2721,-2.2334,-2.2334,-2.1924,-2.1602,-2.2178,-2.2119,0.0,-2.2256,-2.1445,0.0,-2.0264,0.0,-1.8916,0.0,0.0,0.0,0.0,0.0,0.0,0.0,0.0,0.0,0.0,-1.8008,0.0,0.0,0.0,0.0,0.0,0.0,-1.8232,-1.8799,-1.8838,-1.9336,0.0,0.0,-2.208,-2.3516,-2.3555,-2.376,-2.4189,-2.4619,-2.4912,-2.5116,-2.5527,-2.5693,-2.5693,-2.5693,-2.5693,-2.5703,-2.6035,-2.6484,-2.7041,-2.7314,-2.7773,-2.8291,-2.8291,-2.8291,-2.8291,-2.8291,-2.8828,-2.9678,0.0,0.0,0.0,0.0,-1.4035,0.0,0.0,0.0,-1.7184,0.0,-1.7157,-1.8063,-1.8164,-1.7683,-1.8194,-2.025,-1.9111,-1.8361,-1.8464,-1.7383,0.0,0.0,-1.6572,-1.6359,-1.6078,0.0,0.0,0.0,0.0,0.0,0.0,0.0,0.0,0.0,-1.1897,0.0,-1.3623,-1.4533,-1.5585,-1.6676,-1.7517,-1.8378,-1.9264,-2.0268,-2.1169,-2.1909,-2.1814,-2.2325,-2.3091,-2.3091,-2.3091,-2.3091,-2.3091,-2.3091,-2.3091,-2.3091,-2.3091,-2.3091,-2.3091,-2.2559,-2.2139,-2.2896,-2.1875,0.0,0.0,0.0,-2.0605,0.0,0.0,0.0,0.0,0.0,0.0,0.0,0.0,0.0,0.0,0.0,0.0,0.0,0.0,0.0,0.0,-1.8008,-1.8008,-1.8008,-1.8008,-1.874,0.0,0.0,-2.1338,-2.2984,-2.3071,-2.335,-2.3789,-2.4209,-2.4639,-2.5116,-2.5527,-2.5693,-2.5693,-2.5693,-2.5693,-2.5693,-2.5693,-2.6171,-2.7012,-2.7012,-2.7519,-2.8291,-2.8291,-2.8291,-2.8291,-2.831,-2.8848,-2.9629,-1.38,-1.3973,-1.4128,0.0,-1.4511,-1.4651,0.0,0.0,0.0,0.0,-1.6877,-1.7817,-1.8798,-1.8638,-1.8643,-1.9167,-1.866,0.0,0.0,0.0,0.0,-1.8447,-1.768,-1.7265,-1.7356,-1.5527,-1.4269,-1.3553,0.0,0.0,-1.1965,0.0,0.0,0.0,0.0,0.0,-1.4361,-1.5003,-1.6946,-1.9538,-1.884,-1.958,-2.109,0.0,-2.0973,-2.1951,-2.2529,-2.2916,-2.3091,-2.3091,-2.3091,-2.3091,-2.3091,-2.3091,-2.3091,-2.3091,-2.3091,-2.3091,-2.3091,-2.2935,-2.2828,-2.3042,-2.2334,-2.1602,0.0,0.0,0.0,0.0,0.0,0.0,0.0,0.0,0.0,0.0,0.0,0.0,0.0,0.0,0.0,-1.8008,0.0,0.0,0.0,-1.8008,-1.8008,-1.8008,-1.8008,-1.8477,-1.9597,0.0,0.0,-2.2168,-2.2769,-2.335,-2.3789,-2.4209,-2.4639,-2.5116,-2.5527,-2.5693,-2.5693,-2.5693,-2.5693,-2.5693,-2.5693,-2.6171,-2.7012,-2.7012,-2.7519,-2.8291,-2.8291,-2.8291,-2.833,-2.8643,-2.9101,-2.9629,-1.4222,0.0,0.0,-1.4883,0.0,0.0,-1.5162,-1.6332,0.0,-1.6833,-1.7829,0.0,-1.9144,-1.8983,-1.8966,-1.9409,-1.8865,0.0,-1.8311,0.0,0.0,-1.8516,-1.8205,-1.8065,-1.8009,-1.696,0.0,-1.44,0.0,0.0,-1.1965,0.0,0.0,0.0,0.0,-1.2615,0.0,-1.5386,-1.7378,-1.9481,-1.9139,-2.0156,0.0,-2.0816,-2.1228,-2.249,-2.2925,-2.3091,-2.3091,-2.3091,-2.3091,-2.3091,-2.3091,-2.3091,-2.3091,-2.3091,-2.3091,-2.3091,-2.3091,-2.3091,-2.3091,-2.3091,-2.274,-2.2432,-2.2432,-2.2051,-2.1689,0.0,-2.1396,-2.1036,0.0,0.0,0.0,0.0,0.0,0.0,0.0,0.0,0.0,0.0,-1.8008,0.0,-1.8008,-1.8008,-1.8008,-1.8008,-1.8008,-1.8555,0.0,0.0,0.0,-2.1846,-2.2519,-2.2705,-2.2383,-2.3926,-2.4541,-2.4294,-2.5254,-2.5693,-2.5693,-2.5693,-2.5693,-2.5693,-2.5693,-2.6064,-2.6758,-2.6943,-2.7412,-2.8037,-2.8223,-2.8291,-2.832,-2.8555,-2.9043,-2.96,0.0,0.0,0.0,0.0,0.0,0.0,0.0,-1.8305,0.0,-1.7803,0.0,-1.9855,-1.9118,-1.8885,-1.9142,-2.0031,0.0,-1.8692,-1.839,-1.8653,-1.8557,-1.7938,-1.8494,-1.873,-1.8546,-1.8641,-1.77,0.0,-1.5436,-1.4156,0.0,0.0,0.0,0.0,0.0,0.0,0.0,-1.6191,-1.7838,-1.8496,-1.9345,-2.0649,-2.1958,-2.1156,-2.1779,-2.3091,-2.3091,-2.3091,-2.3091,-2.3091,-2.3091,-2.3091,-2.3091,-2.3091,-2.3091,-2.3091,-2.3091,-2.3091,-2.3091,-2.3091,-2.3091,-2.3091,-2.3091,-2.3091,-2.3091,-2.3091,-2.3091,-2.3091,-2.2559,-2.2012,-2.1904,0.0,0.0,0.0,0.0,0.0,0.0,0.0,0.0,0.0,0.0,0.0,0.0,0.0,-1.8008,-1.8008,-1.8008,0.0,0.0,0.0,0.0,-2.1494,-2.2178,-2.1992,-2.0957,-2.3717,-2.4587,-2.356,-2.5019,-2.5693,-2.5693,-2.5693,-2.5693,-2.5693,-2.5693,-2.5986,-2.6426,-2.6846,-2.7305,-2.7783,-2.8144,-2.8291,-2.8291,-2.8291,-2.8799,-2.9492,0.0,0.0,0.0,0.0,0.0,-1.7752,-2.0353,-1.9605,-1.8491,-1.7722,-1.8629,-1.9066,-1.8127,-1.8497,-1.8874,-1.905,-1.892,0.0,0.0,0.0,0.0,-1.8645,-1.8764,-1.9155,-1.9929,-1.911,-1.8095,-1.6809,-1.5965,-1.4501,-1.2467,0.0,0.0,0.0,0.0,0.0,-1.5852,-1.9085,0.0,-2.0629,-2.1491,-2.2282,-2.2823,-2.2055,-2.2324,-2.3091,-2.3091,-2.3091,-2.3091,-2.3091,-2.3091,-2.3091,-2.3091,-2.3091,-2.3091,-2.3091,-2.3091,-2.3091,-2.3091,-2.3091,-2.3091,-2.3091,-2.3091,-2.3091,-2.3091,-2.3091,-2.3091,-2.3091,-2.2974,-2.2705,-2.2012,0.0,0.0,0.0,0.0,0.0,0.0,0.0,0.0,0.0,0.0,-1.8789,0.0,0.0,0.0,0.0,0.0,0.0,0.0,0.0,0.0,0.0,-2.1543,0.0,0.0,0.0,-2.5137,-2.5293,-2.5547,-2.5693,-2.5693,-2.5693,-2.5693,-2.5693,-2.5693,-2.5986,-2.6426,-2.6846,-2.7471,-2.8193,-2.8262,-2.8291,-2.8291,-2.8291,-2.8603,-2.9082,0.0,0.0,0.0,0.0,0.0,0.0,0.0,-2.1155,-2.0596,-1.9408,-1.9539,-1.9409,-1.8409,-1.8629,-1.8781,-1.8781,-1.8781,-1.8781,-1.8781,-1.8781,-1.8781,-1.8781,-1.9317,-1.9803,-2.0303,-2.0761,-1.9802,-1.7367,-1.7189,-1.559,-1.2704,0.0,0.0,0.0,0.0,-1.5234,0.0,0.0,0.0,-2.1355,-2.2634,-2.3256,-2.3396,-2.3071,-2.3169,-2.344,-2.344,-2.3406,-2.3276,-2.3144,-2.3091,-2.3091,-2.3091,-2.3091,-2.3091,-2.3091,-2.3091,-2.3091,-2.3091,-2.3091,-2.3091,-2.3091,-2.3091,-2.3091,-2.3091,-2.3091,-2.3091,-2.3091,-2.3091,-2.2838,-2.2041,-2.1201,0.0,0.0,0.0,0.0,0.0,0.0,-1.9131,0.0,0.0,0.0,0.0,0.0,0.0,0.0,0.0,-1.8203,-1.8652,0.0,-1.9033,0.0,0.0,0.0,-2.1424,0.0,-2.4727,-2.4036,-2.5157,-2.5693,-2.5693,-2.5693,-2.5693,-2.5693,-2.5693,-2.5986,-2.6435,-2.709,-2.7725,-2.8291,-2.8291,-2.8291,-2.8291,-2.8291,-2.8555,-2.8984,0.0,-1.8571,0.0,0.0,-1.9222,0.0,-2.1358,-2.2602,-2.2762,-2.1207,-2.0826,-2.0332,-1.9339,-1.9209,-1.9209,-1.9255,-1.9182,-1.905,-1.8827,-1.8781,-1.892,-1.9096,-1.9903,-2.0475,-2.0881,-2.234,-2.1583,-1.8428,-1.8489,-1.6829,0.0,0.0,0.0,0.0,0.0,0.0,0.0,0.0,-2.1841,-2.2107,-2.342,-2.3884,-2.3797,-2.3841,-2.3841,-2.3797,-2.3797,-2.3711,-2.3537,-2.3319,-2.3178,-2.3101,-2.3188,-2.3144,-2.3091,-2.3091,-2.3091,-2.3091,-2.3091,-2.3091,-2.3091,-2.3091,-2.3091,-2.3091,-2.3091,-2.3091,-2.3091,-2.3091,-2.3091,-2.2896,-2.2275,-2.2012,0.0,0.0,0.0,0.0,0.0,0.0,0.0,0.0,0.0,0.0,-1.9307,0.0,0.0,0.0,0.0,-1.8379,-1.9238,-1.8477,-1.8711,0.0,0.0,-2.0674,-2.0167,0.0,-2.4209,-2.3076,-2.4836,-2.5693,-2.5693,-2.5693,-2.5693,-2.5693,-2.5693,-2.5986,-2.6582,-2.7405,-2.7963,-2.8291,-2.8291,-2.8291,-2.8291,-2.8291,-2.8506,-2.8848,0.0,0.0,0.0,0.0,0.0,0.0,-2.2924,-2.3565,-2.3307,-2.1828,-2.1862,-2.1686,-2.08,-2.067,-2.0623,-2.0708,-2.0354,-1.9766,-1.8874,-1.8781,-1.9225,-2.0121,-2.0257,-2.1096,-2.278,-2.3008,-2.2464,0.0,-1.9373,-1.7688,0.0,0.0,0.0,0.0,0.0,0.0,0.0,-2.2544,-2.337,-2.3955,-2.4284,-2.4186,-2.3841,-2.4067,-2.4024,-2.3797,-2.3797,-2.3797,-2.3754,-2.3754,-2.345,-2.3144,-2.3373,-2.3319,-2.3091,-2.3091,-2.3091,-2.3091,-2.3091,-2.3091,-2.3091,-2.3091,-2.3091,-2.3091,-2.3091,-2.3091,-2.3091,-2.3091,-2.3091,-2.3071,-2.2994,-2.2402,-2.1602,0.0,0.0,0.0,0.0,0.0,-2.0194,-1.9375,0.0,0.0,0.0,-1.8516,0.0,0.0,-1.8008,-1.8379,-1.9238,-1.8477,-1.8437,-1.9375,-1.9814,-2.0342,-2.1064,-2.2969,-2.4219,-2.4881,-2.5449,-2.5693,-2.5693,-2.5693,-2.5693,-2.5693,-2.5693,-2.6152,-2.6992,-2.7471,-2.7963,-2.8291,-2.8291,-2.8291,-2.8291,-2.8291,-2.831,-2.8408,0.0,0.0,0.0,0.0,0.0,0.0,0.0,-2.5008,-2.492,-2.3712,-2.3348,-2.2508,-2.0717,-2.1276,-2.1651,-2.14,-2.0698,-2.0121,-1.972,-1.9142,-1.9225,-2.0249,-2.0836,-2.1774,-2.3052,-2.3637,-2.3255,0.0,0.0,0.0,0.0,0.0,0.0,0.0,0.0,-2.1212,-2.2706,-2.3597,-2.4124,-2.4378,-2.4454,-2.4411,-2.4229,-2.4325,-2.4325,-2.4239,-2.4239,-2.4153,-2.4067,-2.4196,-2.3927,-2.3537,-2.3493,-2.3416,-2.3319,-2.3144,-2.3091,-2.3091,-2.3091,-2.3091,-2.3091,-2.3091,-2.3091,-2.3091,-2.3091,-2.3091,-2.3091,-2.3091,-2.3091,-2.3091,-2.3091,-2.2818,-2.2353,-2.1535,0.0,0.0,0.0,0.0,0.0,-1.9453,0.0,-2.0468,0.0,0.0,0.0,0.0,0.0,-1.8164,-1.8506,-1.8682,-1.917,-2.0067,0.0,-2.085,-2.1992,-2.293,-2.3701,-2.4316,-2.5273,-2.5693,-2.5693,-2.5693,-2.5693,-2.5713,-2.623,-2.6699,-2.707,-2.7754,-2.8135,-2.8291,-2.8291,-2.8291,-2.8291,-2.8291,-2.8291,-2.831,-2.4741,0.0,-2.4252,0.0,-2.4785,-2.5166,-2.5369,-2.6082,-2.6212,-2.5037,-2.4866,-2.4039,-2.1971,-2.2465,-2.2822,-2.2567,-2.1689,-2.1015,-2.0746,-2.0039,-2.0076,-2.1096,-2.1774,0.0,-2.3507,-2.4176,-2.3922,-2.2822,-2.1312,0.0,0.0,0.0,0.0,0.0,-2.1767,-2.2605,-2.3629,-2.4228,-2.4497,-2.4497,-2.4497,-2.4497,-2.4497,-2.4497,-2.4497,-2.4497,-2.4497,-2.4411,-2.4292,-2.4454,-2.4282,-2.397,-2.3764,-2.3634,-2.3537,-2.3353,-2.3276,-2.3232,-2.3232,-2.3144,-2.3091,-2.3091,-2.3091,-2.3091,-2.3091,-2.3091,-2.3091,-2.3091,-2.3091,-2.3091,-2.3091,-2.3091,-2.2818,-2.2021,0.0,0.0,0.0,-2.0791,0.0,-1.9492,-2.0077,-2.0605,-2.0605,-1.9238,0.0,0.0,0.0,-1.8389,-1.8389,-1.8721,-1.9307,0.0,0.0,0.0,-2.1924,-2.2321,-2.3003,-2.3984,-2.5039,-2.5605,-2.5693,-2.5693,-2.5693,-2.5732,-2.6641,-2.7012,-2.708,-2.7939,-2.8291,-2.8291,-2.8291,-2.8291,-2.8291,-2.8291,-2.8291,-2.8291,-2.7664,-2.6846,-2.6026,-2.6464,-2.6336,-2.6045,-2.5677,-2.6569,-2.6774,-2.5386,-2.641,-2.6712,-2.5303,-2.4639,-2.4339,-2.4477,-2.3594,-2.2658,-2.1739,-2.165,-2.2085,0.0,0.0,-2.3507,-2.4454,-2.4497,-2.4487,-2.4476,0.0,0.0,-2.2459,0.0,-2.1229,-2.1551,-2.2675,-2.3681,-2.4476,-2.4497,-2.4497,-2.4497,-2.4497,-2.4497,-2.4497,-2.4497,-2.4497,-2.4497,-2.4497,-2.4497,-2.4497,-2.4497,-2.4497,-2.4454,-2.4239,-2.4024,-2.3797,-2.3797,-2.3667,-2.3503,-2.3503,-2.3319,-2.3091,-2.3091,-2.3091,-2.3091,-2.3091,-2.3091,-2.3091,-2.3091,-2.3091,-2.3091,-2.3091,-2.3091,-2.2818,-2.2021,0.0,0.0,0.0,-2.0791,0.0,-1.9492,-2.0077,-2.0605,-2.0605,-1.9822,0.0,0.0,0.0,0.0,0.0,0.0,0.0,-1.9277,-1.8477,0.0,-2.0615,-2.1035,-2.2272,-2.4414,-2.4863,-2.5312,-2.5693,-2.5693,-2.5693,-2.5732,-2.6641,-2.7012,-2.708,-2.7939,-2.8291,-2.8291,-2.8291,-2.8291,-2.8291,-2.8291,-2.8291,-2.8291,-2.7718,-2.7631,-2.7369,-2.7522,-2.7805,-2.7924,-2.7827,-2.7912,-2.7871,-2.7423,-2.7622,-2.7461,-2.6739,-2.6063,-2.5358,0.0,-2.3622,-2.2965,0.0,-2.205,-2.2129,-2.3052,-2.3096,-2.3551,-2.4497,-2.4497,-2.4497,-2.4497,0.0,0.0,0.0,-2.3298,-2.3474,-2.3543,-2.3907,-2.4228,-2.4497,-2.4497,-2.4497,-2.4497,-2.4497,-2.4497,-2.4497,-2.4497,-2.4497,-2.4497,-2.4497,-2.4497,-2.4497,-2.4497,-2.4497,-2.4497,-2.4411,-2.4239,-2.4024,-2.3841,-2.3754,-2.3711,-2.3711,-2.3624,-2.358,-2.358,-2.358,-2.3537,-2.3406,-2.3232,-2.3091,-2.3091,-2.3091,-2.3091,-2.3091,-2.3091,-2.2818,-2.2021,-2.2363,0.0,-2.0439,0.0,-2.1455,-2.0331,-2.0439,-2.084,-2.1447,-2.0713,0.0,0.0,0.0,0.0,0.0,0.0,0.0,0.0,-2.0791,0.0,-2.2305,-2.2418,-2.312,-2.4424,-2.5166,-2.5596,-2.5703,-2.6045,-2.6182,-2.623,-2.709,-2.7461,-2.75,-2.8066,-2.8291,-2.8291,-2.8291,-2.8291,-2.8291,-2.8291,-2.8291,-2.8291,-2.7783,-2.7991,-2.7936,-2.7762,-2.8167,-2.8429,-2.8233,-2.8085,-2.7993,-2.7993,-2.7845,-2.7525,-2.6984,-2.654,0.0,-2.497,-2.4224,-2.3714,-2.3637,-2.3071,-2.3028,-2.3594,-2.3637,-2.3907,-2.4497,-2.4497,0.0,-2.4497,-2.3929,-2.3701,-2.3712,-2.4239,-2.4497,-2.4497,-2.4497,-2.4497,-2.4497,-2.4497,-2.4497,-2.4497,-2.4497,-2.4497,-2.4497,-2.4497,-2.4497,-2.4497,-2.4497,-2.4497,-2.4497,-2.4497,-2.4497,-2.4497,-2.4497,-2.4411,-2.4282,-2.411,-2.4024,-2.3927,-2.3927,-2.3884,-2.3797,-2.3797,-2.3797,-2.3754,-2.3547,-2.3406,-2.3309,-2.3144,-2.3188,-2.3232,-2.3135,-2.3091,-2.2925,-2.2441,-2.275,-2.2613,-2.13,0.0,-2.1914,0.0,0.0,0.0,0.0,-2.1427,-2.1104,0.0,0.0,0.0,0.0,0.0,0.0,-2.1377,-2.1387,-2.1875,-2.2847,-2.2857,-2.3496,-2.4668,-2.5343,-2.5869,-2.6124,-2.6309,-2.6475,-2.666,-2.7415,-2.7718,-2.7748,-2.8125,-2.8291,-2.8291,-2.8291,-2.8291,-2.8291,-2.8291,-2.8291,-2.8291,-2.7849,-2.7947,-2.7805,0.0,-2.7718,-2.7882,-2.7435,-2.737,-2.7348,-2.7315,-2.7315,-2.7053,-2.6379,-2.6325,-2.613,-2.5653,0.0,0.0,-2.454,-2.454,-2.4497,-2.4497,-2.4497,-2.4497,-2.4497,-2.4466,-2.4456,-2.4456,-2.4456,-2.4466,-2.4497,-2.4497,-2.4497,-2.4497,-2.4497,-2.4497,-2.4497,-2.4497,-2.4497,-2.4497,-2.4497,-2.4497,-2.4497,-2.4497,-2.4497,-2.4497,-2.4497,-2.4497,-2.4497,-2.4497,-2.4497,-2.4497,-2.4497,-2.4497,-2.4497,-2.4497,-2.4378,-2.4206,-2.4206,-2.4024,-2.3841,-2.3841,-2.3841,-2.3797,-2.359,-2.3667,-2.3667,-2.3222,-2.3363,-2.345,-2.3188,-2.3144,-2.3144,-2.3144,-2.3091,-2.2799,-2.2002,-2.2559,-2.2461,0.0,0.0,0.0,-2.1963,-2.1973,-2.1953,0.0,0.0,0.0,0.0,0.0,-2.083,-2.083,-2.083,-2.1387,-2.2637,-2.2676,-2.3506,-2.5165,-2.5566,-2.6133,-2.6804,-2.6585,-2.6689,-2.708,-2.7519,-2.7767,-2.7796,-2.8135,-2.8291,-2.8291,-2.8291,-2.8291,-2.8291,-2.8291,-2.8291,-2.8291,0.0,0.0,-2.7522,-2.7773,-2.8265,-2.8429,-2.7893,-2.7827,-2.7696,-2.7359,-2.7315,-2.7097,-2.6595,-2.6541,-2.626,-2.5637,-2.5317,-2.5031,-2.4818,-2.4828,-2.47,-2.4497,-2.4497,-2.4497,-2.4497,-2.4209,-2.4033,-2.4033,-2.4033,-2.4209,-2.4497,-2.4497,-2.4497,-2.4497,-2.4497,-2.4497,-2.4497,-2.4497,-2.4497,-2.4497,-2.4497,-2.4497,-2.4497,-2.4497,-2.4497,-2.4497,-2.4497,-2.4497,-2.4497,-2.4497,-2.4497,-2.4497,-2.4497,-2.4497,-2.4497,-2.4497,-2.4454,-2.4411,-2.4411,-2.4368,-2.4315,-2.4315,-2.4239,-2.4067,-2.4034,-2.3894,-2.3754,-2.3667,-2.3667,-2.3711,-2.3667,-2.3493,-2.3416,-2.3416,-2.3232,-2.2799,-2.2002,-2.206,-2.2031,0.0,-2.1758,-2.2139,-2.2783,-2.2799,-2.2578,0.0,0.0,0.0,-2.0977,-2.2246,-2.3027,-2.3027,-2.3027,-2.333,-2.3955,-2.4297,-2.4975,-2.5856,-2.6114,-2.6418,-2.6755,-2.7204,-2.7412,-2.7539,-2.7959,-2.8144,-2.8154,-2.8252,-2.8291,-2.8291,-2.8291,-2.8291,-2.8291,-2.8291,-2.8291,-2.8291,-2.6911,-2.6998,-2.7009,-2.7009,-2.7468,-2.7621,-2.714,-2.702,-2.6966,-2.6704,-2.6671,-2.6573,-2.6321,-2.6299,-2.6148,-2.576,-2.5506,-2.5295,-2.5031,-2.5031,-2.4988,-2.4828,-2.4828,-2.4734,-2.4493,-2.4211,-2.3898,-2.3567,-2.3774,-2.4002,-2.424,-2.4404,-2.4497,-2.4497,-2.4497,-2.4497,-2.4497,-2.4497,-2.4497,-2.4497,-2.4497,-2.4497,-2.4497,-2.4497,-2.4497,-2.4497,-2.4497,-2.4497,-2.4497,-2.4497,-2.4497,-2.4497,-2.4497,-2.4497,-2.4497,-2.4497,-2.4497,-2.4497,-2.4497,-2.4497,-2.4497,-2.4497,-2.4411,-2.4325,-2.4206,-2.4153,-2.4057,-2.3841,-2.3884,-2.3937,-2.3841,-2.3711,-2.3634,-2.3634,-2.3199,-2.2688,-2.2233,-2.2164,-2.2164,-2.2164,-2.2436,-2.2817,-2.3226,-2.3178,-2.2906,-2.249,-2.2519,0.0,-2.2278,-2.2955,-2.3344,-2.3203,-2.3869,-2.4425,-2.4717,-2.5289,-2.5815,-2.6304,-2.6616,-2.6923,-2.7212,-2.7653,-2.7921,-2.7969,-2.8193,-2.8291,-2.8291,-2.8291,-2.8291,-2.8291,-2.8291,-2.8291,-2.8291,-2.8291,-2.8291,-2.8291,-2.6441,-2.653,-2.6453,-2.6092,-2.6409,-2.653,-2.6092,-2.6016,-2.5983,-2.5906,-2.5895,-2.5895,-2.5895,-2.5895,-2.5895,-2.5895,-2.5728,-2.5559,-2.5285,-2.5242,-2.5242,-2.52,-2.5136,-2.4924,-2.4499,-2.4186,-2.3719,-2.3121,-2.3556,-2.3743,-2.3784,-2.4229,-2.4394,-2.4404,-2.4466,-2.4497,-2.4497,-2.4425,-2.4435,-2.4487,-2.4425,-2.4435,-2.4497,-2.4497,-2.4497,-2.4497,-2.4497,-2.4497,-2.4497,-2.4497,-2.4497,-2.4497,-2.4497,-2.4497,-2.4497,-2.4497,-2.4497,-2.4497,-2.4497,-2.4497,-2.4497,-2.4497,-2.4497,-2.4454,-2.4282,-2.4368,-2.4411,-2.397,-2.411,-2.4196,-2.3927,-2.3884,-2.38,-2.367,-2.2974,-2.2432,-2.2301,-2.2402,-2.2482,-2.2523,-2.3096,-2.3523,-2.3593,-2.3374,-2.3262,-2.333,-2.2719,-2.2857,-2.4098,-2.364,-2.3196,-2.2834,-2.4202,-2.5053,-2.5261,-2.5768,-2.6237,-2.6607,-2.7049,-2.7452,-2.7885,-2.8131,-2.8269,-2.8353,-2.83,-2.83,-2.8353,-2.83,-2.83,-2.831,-2.8368,-2.8344,-2.8344,-2.8291,-2.8291,-2.8291,-2.5994,-2.6343,-2.6562,-2.6486,-2.69,-2.7053,-2.654,-2.6475,-2.6376,-2.595,-2.5895,-2.5895,-2.5895,-2.5895,-2.5895,-2.5895,-2.5853,-2.577,-2.5559,-2.5559,-2.5422,-2.52,-2.4838,-2.4563,-2.4489,-2.3703,-2.3139,-2.2869,-2.2953,-2.3114,-2.3308,-2.3764,-2.3981,-2.4002,-2.4332,-2.4497,-2.4476,-2.4146,-2.4198,-2.4466,-2.4136,-2.4209,-2.4497,-2.4497,-2.4497,-2.4497,-2.4497,-2.4497,-2.4497,-2.4497,-2.4497,-2.4497,-2.4497,-2.4497,-2.4497,-2.4497,-2.4497,-2.4497,-2.4497,-2.4497,-2.4497,-2.4497,-2.4497,-2.4497,-2.4454,-2.4497,-2.4497,-2.4411,-2.4411,-2.4454,-2.4411,-2.4239,-2.3823,-2.2916,-2.2623,-2.217,-2.1291,0.0,-2.2533,-2.2584,-2.3148,-2.3642,-2.3955,-2.3826,-2.3928,-2.4473,-2.4429,-2.4247,-2.3961,-2.4832,-2.5022,-2.4313,-2.5173,-2.5744,-2.5943,-2.5839,-2.6201,-2.707,-2.7292,-2.7643,-2.8157,-2.8711,-2.8765,-2.8485,-2.8214,-2.8267,-2.8433,-2.8214,-2.8267,-2.8473,-2.8579,-2.8621,-2.8621,-2.8398,-2.8291,-2.8291,-2.5895,-2.6081,-2.6234,-2.6234,-2.6409,-2.6474,-2.6267,-2.6234,-2.6157,-2.5928,-2.5895,-2.5895,-2.5895,-2.5895,-2.5895,-2.5895,-2.5895,-2.5864,-2.578,-2.577,-2.5608,-2.5224,-2.5008,-2.457,-2.3934,-2.3238,-2.277,-2.2579,-2.2717,-2.3006,-2.3356,-2.3743,-2.3919,-2.3929,-2.4095,-2.4188,-2.4167,-2.396,-2.4002,-2.4188,-2.4219,-2.4219,-2.4209,-2.4404,-2.4497,-2.4497,-2.4497,-2.4497,-2.4497,-2.4497,-2.4497,-2.4497,-2.4497,-2.4497,-2.4497,-2.4497,-2.4497,-2.4497,-2.4497,-2.4497,-2.4497,-2.4497,-2.4497,-2.4497,-2.4497,-2.4497,-2.4497,-2.4497,-2.4497,-2.4497,-2.4497,-2.4411,-2.4038,-2.3094,-2.29,-2.2533,-2.1537,-2.2238,-2.2992,-2.3289,-2.3851,-2.4438,-2.4882,-2.4686,-2.4685,-2.4975,-2.5041,-2.5042,-2.5122,-2.5711,-2.5975,-2.5823,-2.6067,-2.6396,-2.6887,-2.68,-2.707,-2.7762,-2.8208,-2.835,-2.8207,-2.8756,-2.8652,-2.8136,-2.8274,-2.8271,-2.8249,-2.8521,-2.8568,-2.844,-2.8797,-2.8834,-2.8684,-2.8568,-2.8514,-2.8514,-2.6052,-2.5979,-2.5895,-2.5895,-2.5895,-2.5895,-2.5895,-2.5895,-2.5895,-2.5895,-2.5895,-2.5895,-2.5895,-2.5895,-2.5895,-2.5895,-2.5895,-2.5895,-2.5895,-2.5895,-2.5732,-2.5401,-2.527,-2.4636,-2.3485,-2.3134,-2.2773,-2.2478,-2.2698,-2.2942,-2.3271,-2.3543,-2.3639,-2.3639,-2.3712,-2.3753,-2.3712,-2.3598,-2.3619,-2.3732,-2.3971,-2.3929,-2.3764,-2.4219,-2.4342,-2.4363,-2.4466,-2.4497,-2.4497,-2.4497,-2.4497,-2.4497,-2.4497,-2.4497,-2.4497,-2.4497,-2.4497,-2.4497,-2.4497,-2.4497,-2.4497,-2.4497,-2.4497,-2.4497,-2.4497,-2.4497,-2.4497,-2.4497,-2.4497,-2.4497,-2.4497,-2.4497,-2.4197,-2.3288,0.0,-2.2936,-2.2183,-2.2739,-2.3432,-2.4115,-2.4635,-2.5104,-2.5666,-2.5477,-2.5426,-2.5573,-2.5583,-2.5863,-2.6412,-2.648,-2.6607,-2.6976,-2.6651,-2.6853,-2.7582,-2.7435,-2.771,-2.835,-2.887,-2.887,-2.8451,-2.8962,-2.8768,-2.8188,-2.8481,-2.8478,-2.8353,-2.884,-2.8876,-2.8569,-2.8933,-2.9036,-2.8887,-2.8737,-2.8727,-2.8781,-2.6445,-2.6177,-2.5895,-2.5895,-2.5895,-2.5895,-2.5895,-2.5895,-2.5895,-2.5895,-2.5895,-2.5895,-2.5895,-2.5895,-2.5895,-2.5895,-2.5895,-2.5895,-2.5895,-2.5895,-2.5884,-2.5852,-2.5415,-2.4716,-2.3716,-2.3651,-2.3297,-2.2665,-2.2698,-2.2617,-2.2482,-2.2766,-2.2869,-2.289,-2.313,-2.3236,-2.3215,-2.278,-2.2842,-2.3205,-2.2811,-2.2884,-2.3287,-2.3753,-2.3929,-2.3981,-2.4352,-2.4497,-2.4497,-2.4497,-2.4497,-2.4497,-2.4497,-2.4497,-2.4497,-2.4497,-2.4497,-2.4497,-2.4497,-2.4497,-2.4497,-2.4497,-2.4497,-2.4497,-2.4497,-2.4497,-2.4497,-2.4497,-2.4497,-2.4497,-2.4497,-2.4497,-2.4155,-2.3094,0.0,0.0,-2.2858,-2.3051,-2.367,-2.4931,-2.4972,-2.5227,-2.6084,-2.5922,-2.6047,-2.672,-2.6751,-2.6904,-2.72,-2.721,-2.722,-2.7262,-2.6784,-2.6853,-2.7582,-2.7031,-2.7462,-2.887,-2.8664,-2.8777,-2.9219,-2.9684,-2.9642,-2.9157,-2.8962,-2.8983,-2.9198,-2.8962,-2.9034,-2.924,-2.9128,-2.929,-2.9448,-2.8887,-2.8887,-2.9079,-2.694,-2.6816,-2.6622,-2.6332,-2.6249,-2.6177,-2.5937,-2.5895,-2.5895,-2.5895,-2.5895,-2.5895,-2.5895,-2.5895,-2.5895,-2.5895,-2.5895,-2.5895,-2.5895,-2.5895,-2.5764,-2.5459,-2.504,-2.4574,-2.4203,-2.3886,-2.3569,-2.3297,-2.288,-2.2816,-2.3003,-2.2991,-2.2921,-2.2814,-2.2914,-2.2879,-2.2749,-2.2573,-2.2594,-2.277,-2.2884,-2.2863,-2.2842,-2.3598,-2.3919,-2.3939,-2.4342,-2.4497,-2.4497,-2.4497,-2.4497,-2.4497,-2.4497,-2.4497,-2.4497,-2.4497,-2.4497,-2.4497,-2.4497,-2.4497,-2.4497,-2.4497,-2.4497,-2.4497,-2.4497,-2.4497,-2.4497,-2.4497,-2.4497,-2.4497,-2.4497,-2.4497,-2.4197,-2.3237,0.0,-2.3887,-2.3557,-2.4053,-2.485,-2.5937,-2.6016,-2.6218,-2.68,-2.6814,-2.6839,-2.7119,-2.7177,-2.7167,-2.7309,-2.7309,-2.7309,-2.7309,-2.7119,-2.7372,-2.82,-2.8277,-2.8737,-2.9569,-2.9475,-2.9373,-2.9311,-2.9487,-2.9321,-2.8897,-2.9075,-2.9096,-2.9086,-2.9456,-2.9413,-2.9215,-2.9545,-2.9606,-2.9554,-2.9353,-2.929,-2.9396,-2.74,-2.7307,-2.7103,-2.6775,-2.6734,-2.661,-2.6343,-2.6177,-2.6093,-2.6093,-2.5979,-2.5895,-2.5895,-2.5895,-2.5895,-2.5895,-2.5895,-2.5895,-2.5895,-2.5895,-2.5753,-2.5415,-2.4956,-2.4639,-2.4486,-2.4148,-2.382,-2.3504,-2.3167,-2.3091,-2.3264,-2.3084,-2.2892,-2.2776,-2.2699,-2.2583,-2.2467,-2.239,-2.2351,-2.2382,-2.2664,-2.2563,-2.2366,-2.3153,-2.3443,-2.3505,-2.395,-2.4073,-2.4094,-2.4239,-2.4333,-2.4321,-2.4456,-2.4497,-2.4497,-2.4497,-2.4497,-2.4497,-2.4497,-2.4497,-2.4497,-2.4497,-2.4497,-2.4497,-2.4497,-2.4497,-2.4497,-2.4497,-2.4497,-2.4497,-2.4497,-2.4621,-2.4507,-2.3929,-2.4467,-2.485,-2.455,-2.5047,-2.572,-2.6532,-2.6615,-2.6801,-2.7258,-2.7309,-2.7309,-2.7309,-2.7309,-2.7309,-2.7309,-2.7309,-2.7309,-2.7309,-2.7444,-2.7769,-2.839,-2.8755,-2.9291,-2.9994,-2.9755,-2.959,-2.9518,-2.9373,-2.9208,-2.9063,-2.9384,-2.9425,-2.9301,-2.9766,-2.9784,-2.9396,-2.9722,-2.9827,-2.9722,-2.9606,-2.9659,-2.9669,-2.7893,-2.7534,-2.7226,-2.7226,-2.7226,-2.7185,-2.7185,-2.6805,-2.6487,-2.6487,-2.6135,-2.5895,-2.5895,-2.5895,-2.5895,-2.5895,-2.5895,-2.5895,-2.5895,-2.5895,-2.5895,-2.5895,-2.5437,-2.5007,-2.4508,-2.4497,-2.4006,-2.3012,-2.3455,-2.3482,-2.3001,-2.2815,-2.2703,-2.2703,-2.2478,-2.2402,-2.2402,-2.2176,-2.2101,-2.2063,-2.1873,-2.1807,-2.1859,-2.2325,-2.2501,-2.2563,-2.3029,-2.3194,-2.3267,-2.3774,-2.3888,-2.396,-2.4363,-2.4497,-2.4497,-2.4497,-2.4497,-2.4497,-2.4497,-2.4497,-2.4497,-2.4497,-2.4497,-2.4497,-2.4497,-2.4497,-2.4497,-2.4497,-2.4497,-2.4507,-2.4507,-2.4879,-2.5199,-2.5199,-2.5595,-2.5875,-2.5885,-2.593,-2.6096,-2.6563,-2.6625,-2.6801,-2.7258,-2.7309,-2.7309,-2.7309,-2.7309,-2.7309,-2.7309,-2.7309,-2.7309,-2.7309,-2.7686,-2.7914,-2.7924,-2.8102,-2.8788,-2.9984,-2.9229,-2.9301,-2.9973,-2.9518,-2.9559,-2.9984,-2.9984,-2.9984,-2.9984,-2.9984,-2.9994,-2.9994,-2.9711,-2.9764,-2.9994,-2.9722,-2.9774,-2.9994,-2.8391,-2.8219,-2.8018,-2.7748,-2.7708,-2.7574,-2.7267,-2.7092,-2.6846,-2.6528,-2.6415,-2.6207,-2.5937,-2.5895,-2.5895,-2.5895,-2.5895,-2.5895,-2.5895,-2.5895,-2.5895,-2.5895,-2.5764,-2.5622,-2.548,-2.4836,-2.4344,-2.4039,-2.3493,-2.3143,-2.3001,-2.2927,-2.2852,-2.2703,-2.2628,-2.2515,-2.2402,-2.2327,-2.2327,-2.2289,-2.2111,-2.1987,-2.2039,-2.2392,-2.2697,-2.3039,-2.3505,-2.3867,-2.4115,-2.4259,-2.4301,-2.4321,-2.4456,-2.4497,-2.4497,-2.4497,-2.4497,-2.4497,-2.4497,-2.4497,-2.4497,-2.4497,-2.4497,-2.4497,-2.4497,-2.4497,-2.4497,-2.4497,-2.4755,-2.4983,-2.4983,-2.5388,-2.5689,-2.5689,-2.5792,-2.5989,-2.6366,-2.6407,-2.6584,-2.705,-2.7102,-2.7154,-2.7299,-2.7309,-2.7309,-2.7309,-2.7309,-2.7309,-2.7309,-2.7309,-2.7309,-2.7309,-2.7434,-2.7603,-2.7914,-2.8291,-2.8817,-2.9508,-2.9271,-2.9446,-2.9973,-2.9518,-2.9384,-2.9508,-2.9508,-2.9508,-2.9508,-2.9508,-2.9704,-2.9963,-2.9528,-2.9653,-2.9994,-2.9931,-2.9942,-2.9994,-2.9263,-2.9,-2.8776,-2.8538,-2.8311,-2.803,-2.7765,-2.7563,-2.736,-2.7074,-2.6734,-2.6415,-2.6177,-2.6021,-2.5895,-2.5895,-2.5721,-2.5611,-2.5611,-2.5611,-2.5699,-2.5895,-2.5895,-2.5808,-2.5622,-2.488,-2.4388,-2.4181,-2.358,-2.3187,-2.3001,-2.3001,-2.2927,-2.2815,-2.2815,-2.274,-2.2628,-2.2553,-2.2515,-2.2515,-2.2289,-2.2176,-2.2143,-2.2272,-2.2475,-2.2708,-2.3163,-2.3505,-2.3784,-2.4157,-2.4352,-2.4497,-2.4497,-2.4497,-2.4497,-2.4497,-2.4497,-2.4497,-2.4497,-2.4497,-2.4497,-2.4497,-2.4497,-2.4497,-2.4497,-2.4642,-2.4776,-2.4776,-2.5127,-2.5492,-2.5492,-2.5854,-2.62,-2.62,-2.6345,-2.6573,-2.6853,-2.6895,-2.6988,-2.7278,-2.7309,-2.7309,-2.7309,-2.7309,-2.7309,-2.7309,-2.7309,-2.7309,-2.7309,-2.7309,-2.7309,-2.7309,-2.7309,-2.7434,-2.7655,-2.7935,-2.84,-2.9032,-2.8845,-2.9094,-2.9704,-2.9239,-2.9228,-2.957,-2.9384,-2.9301,-2.9301,-2.9301,-2.9466,-2.9715,-2.9622,-2.9746,-2.9994,-2.9994,-2.9994,-2.9994,-3.0317,-2.9871,-2.9496,-2.9496,-2.904,-2.8657,-2.8657,-2.8311,-2.8002,-2.8002,-2.7208,-2.6599,-2.6502,-2.6152,-2.585,-2.5806,-2.5445,-2.5193,-2.515,-2.5237,-2.5415,-2.5819,-2.5874,-2.5666,-2.5226,-2.476,-2.4279,-2.3694,-2.3694,-2.3482,-2.3001,-2.3001,-2.3001,-2.3001,-2.3001,-2.3001,-2.3001,-2.2815,-2.274,-2.2703,-2.2515,-2.2327,-2.2149,-2.2191,-2.2081,-2.2032,-2.2488,-2.2646,-2.2811,-2.366,-2.4209,-2.4497,-2.4497,-2.4497,-2.4497,-2.4497,-2.4497,-2.4497,-2.4497,-2.4497,-2.4497,-2.4497,-2.4497,-2.4507,-2.4549,-2.489,-2.5199,-2.5241,-2.5637,-2.5937,-2.5937,-2.6366,-2.6677,-2.6677,-2.7029,-2.7309,-2.7309,-2.7309,-2.7309,-2.7309,-2.7309,-2.7309,-2.7309,-2.7309,-2.7309,-2.7309,-2.7309,-2.7309,-2.7309,-2.7309,-2.7309,-2.7309,-2.7309,-2.7309,-2.7309,-2.7309,-2.7696,-2.8545,-2.8121,-2.8411,-2.929,-2.8783,-2.9032,-2.9849,-2.9384,-2.9177,-2.9177,-2.9177,-2.9208,-2.928,-2.9663,-2.9839,-2.987,-2.987,-2.9901,-2.9932,-3.0393,-3.0203,-3.0088,-3.0088,-2.9986,-2.9909,-2.9909,-2.9419,-2.8961,-2.8645,-2.8018,-2.7313,-2.6514,-2.6066,-2.5639,-2.5249,-2.5213,-2.5022,-2.4661,-2.5327,-2.5622,-2.5338,-2.5699,-2.5666,-2.5226,-2.5117,-2.4596,-2.3694,-2.3694,-2.3482,-2.3001,-2.3001,-2.3001,-2.3001,-2.3001,-2.3001,-2.3001,-2.2964,-2.2927,-2.2927,-2.2703,-2.2628,-2.2596,-2.2817,-2.3005,-2.3186,-2.3656,-2.3929,-2.4084,-2.429,-2.4425,-2.4497,-2.4497,-2.4497,-2.4497,-2.4497,-2.4497,-2.4497,-2.4497,-2.4497,-2.4497,-2.4497,-2.4497,-2.459,-2.4952,-2.5117,-2.5282,-2.5668,-2.6103,-2.647,-2.647,-2.6843,-2.7154,-2.7154,-2.7247,-2.7309,-2.7309,-2.7309,-2.7309,-2.7309,-2.7309,-2.7309,-2.7309,-2.7309,-2.7309,-2.7309,-2.7309,-2.7309,-2.7309,-2.7309,-2.7309,-2.7309,-2.7309,-2.7309,-2.7309,-2.7309,-2.7531,-2.8069,-2.7976,-2.8411,-2.928,-2.8452,-2.838,-2.8887,-2.8421,-2.8224,-2.8224,-2.8224,-2.8442,-2.8742,-2.8473,-2.8597,-2.8918,-2.8918,-2.9145,-2.9456,-3.1283,-3.0934,-3.0733,-3.0733,-3.0469,-3.0279,-3.0279,-3.0024,-2.9755,-2.9523,-2.8821,-2.802,-2.7238,-2.6511,-2.5686,-2.4747,-2.4726,-2.4585,-2.4148,-2.4585,-2.4858,-2.4887,-2.5087,-2.4989,-2.4497,-2.4727,-2.4476,-2.3694,-2.3504,-2.3252,-2.3001,-2.3001,-2.3001,-2.3001,-2.3001,-2.3001,-2.3001,-2.3001,-2.3001,-2.3001,-2.2889,-2.2918,-2.3031,-2.3174,-2.3402,-2.371,-2.4073,-2.4325,-2.4497,-2.4497,-2.4497,-2.4497,-2.4497,-2.4497,-2.4497,-2.4497,-2.4497,-2.4497,-2.4497,-2.4497,-2.4497,-2.4497,-2.4662,-2.4828,-2.4859,-2.5034,-2.5313,-2.5792,-2.6248,-2.6687,-2.6905,-2.7143,-2.7309,-2.7309,-2.7309,-2.7309,-2.7309,-2.7309,-2.7309,-2.7309,-2.7309,-2.7309,-2.7309,-2.7309,-2.7309,-2.7309,-2.7309,-2.7309,-2.7309,-2.7309,-2.7309,-2.7309,-2.7309,-2.7413,-2.7572,-2.7413,-2.7479,-2.7924,-2.7924,-2.8297,-2.897,-2.87,-2.8711,-2.8918,-2.8452,-2.8131,-2.7924,-2.7924,-2.802,-2.8276,-2.8266,-2.84,-2.8618,-2.8618,-2.8763,-2.898,-3.2218,-3.174,-3.1381,-3.1381,-3.0972,-3.0633,-3.0633,-3.0507,-3.0405,-3.0353,-2.9491,-2.8675,-2.8037,-2.7024,-2.5887,-2.4544,-2.4438,-2.4223,-2.3727,-2.3766,-2.4006,-2.4344,-2.4443,-2.4246,-2.3705,-2.4148,-2.4115,-2.3564,-2.3285,-2.3078,-2.3001,-2.3001,-2.3001,-2.3001,-2.3001,-2.3001,-2.3001,-2.3001,-2.3001,-2.3012,-2.3088,-2.3248,-2.3474,-2.3636,-2.382,-2.4006,-2.4312,-2.4514,-2.4625,-2.4583,-2.4583,-2.4583,-2.4497,-2.4497,-2.4497,-2.4497,-2.4497,-2.4497,-2.4497,-2.4497,-2.4497,-2.4497,-2.4786,-2.4993,-2.4683,-2.5034,-2.5564,-2.5916,-2.6407,-2.6853,-2.7237,-2.7309,-2.7309,-2.7309,-2.7309,-2.7309,-2.7309,-2.7309,-2.7309,-2.7309,-2.7309,-2.7309,-2.7309,-2.7309,-2.7309,-2.7309,-2.7309,-2.7309,-2.7309,-2.7309,-2.7309,-2.7309,-2.7309,-2.7486,-2.781,-2.7521,-2.7521,-2.781,-2.7966,-2.8245,-2.8628,-2.9011,-2.9187,-2.9156,-2.869,-2.8235,-2.781,-2.781,-2.781,-2.7852,-2.8235,-2.838,-2.839,-2.8473,-2.8493,-2.8493,-3.2218,-3.2132,-3.2059,-3.2059,-3.1986,-3.195,-3.195,-3.1468,-3.09,-3.044,-2.9757,-2.8929,-2.7926,-2.6977,-2.6009,-2.498,-2.498,-2.4605,-2.369,-2.4101,-2.4224,-2.3853,-2.4257,-2.4246,-2.3705,-2.376,-2.3553,-2.3099,-2.346,-2.3416,-2.3001,-2.3001,-2.3001,-2.3001,-2.3001,-2.3001,-2.3001,-2.3001,-2.3001,-2.3045,-2.346,-2.3629,-2.3743,-2.4621,-2.4838,-2.4742,-2.5248,-2.5284,-2.5073,-2.4903,-2.4861,-2.4828,-2.4583,-2.4497,-2.4497,-2.4497,-2.4497,-2.4497,-2.4497,-2.4497,-2.4497,-2.4497,-2.4549,-2.4683,-2.5024,-2.5782,-2.6449,-2.6511,-2.6895,-2.7226,-2.7299,-2.7309,-2.7309,-2.7309,-2.7309,-2.7309,-2.7309,-2.7309,-2.7309,-2.7309,-2.7309,-2.7309,-2.7309,-2.7309,-2.7309,-2.7309,-2.7309,-2.7309,-2.7309,-2.7309,-2.7309,-2.7309,-2.7309,-2.734,-2.7392,-2.7665,-2.7665,-2.7403,-2.8142,-2.8556,-2.8618,-2.868,-2.8711,-2.868,-2.8214,-2.7759,-2.7392,-2.7392,-2.7392,-2.7403,-2.7465,-2.7496,-2.7537,-2.7872,-2.7968,-2.7968,-3.1327,-3.1721,-3.211,-3.1748,-3.168,-3.168,-3.168,-3.1168,-3.0681,-3.044,-2.9834,-2.9179,-2.839,-2.7361,-2.6492,-2.5824,-2.5787,-2.554,-2.4862,-2.5069,-2.489,-2.4118,-2.4333,-2.4093,-2.3329,-2.3329,-2.322,-2.3001,-2.322,-2.3209,-2.3001,-2.3001,-2.3001,-2.3001,-2.3001,-2.3001,-2.3023,-2.3296,-2.3405,-2.3427,-2.3607,-2.405,-2.4552,-2.4727,-2.5068,-2.5435,-2.5568,-2.5433,-2.52,-2.5115,-2.5073,-2.5031,-2.4786,-2.4743,-2.47,-2.454,-2.4497,-2.4497,-2.4497,-2.4497,-2.4559,-2.4817,-2.5109,-2.5347,-2.5544,-2.6299,-2.6926,-2.6667,-2.6781,-2.6998,-2.7258,-2.7309,-2.7309,-2.7309,-2.7309,-2.7309,-2.7309,-2.7309,-2.7309,-2.7309,-2.7309,-2.7309,-2.7309,-2.7309,-2.7309,-2.7309,-2.7309,-2.7309,-2.7309,-2.7309,-2.7309,-2.7309,-2.7309,-2.7423,-2.7624,-2.7583,-2.7583,-2.7634,-2.8038,-2.8235,-2.8235,-2.8493,-2.8473,-2.8214,-2.8007,-2.7665,-2.7309,-2.7309,-2.7309,-2.7309,-2.7309,-2.7309,-2.733,-2.7479,-2.7552,-2.7552]},{"header":{"parameterUnit":"m.s-1","parameterCategory":1,"la1":30.6,"la2":28.766,"lo1":-90.7593,"lo2":-88.6598,"dy":0.0162,"dx":0.0183,"nx":116,"ny":114,"refTime":"2023-06-10T06:00:00:Z","depth":0,"parameterNumber":3,"parameterNumberName":"V-component_of_WINDS"},"data":[0.0,0.0,0.0,0.0,0.0,0.0,0.0,0.0,0.0,0.0,0.0,0.0,0.0,0.0,0.0,0.0,0.0,0.0,0.0,0.0,0.0,0.0,0.0,0.0,0.0,0.0,0.0,0.0,0.0,0.0,0.0,0.0,0.0,0.0,0.0,0.0,0.0,0.0,0.0,0.0,0.0,0.0,0.0,0.0,0.0,0.0,0.0,0.0,0.0,0.0,0.0,0.0,0.0,0.0,0.0,0.0,0.0,0.0,0.0,0.0,0.0,0.0,0.0,0.0,0.0,0.0,0.0,0.0,0.0,0.0,0.0,0.0,0.0,0.0,0.0,0.0,0.0,0.0,0.0,0.0,0.0,0.0,0.0,0.0,0.0,0.0,0.0,0.0,0.0,0.0,0.0,0.0,0.0,0.0,0.0,0.0,0.0,0.0,0.0,0.0,0.0,0.0,0.0,0.0,0.0,0.0,0.0,0.0,0.0,0.0,0.0,0.0,0.0,0.0,0.0,0.0,0.0,0.0,0.0,0.0,0.0,0.0,0.0,0.0,0.0,0.0,0.0,0.0,0.0,0.0,0.0,0.0,0.0,0.0,0.0,0.0,0.0,0.0,0.0,0.0,0.0,0.0,0.0,0.0,0.0,0.0,0.0,0.0,0.0,0.0,0.0,0.0,0.0,0.0,0.0,0.0,0.0,0.0,0.0,0.0,0.0,0.0,0.0,0.0,0.0,0.0,0.0,0.0,0.0,0.0,0.0,0.0,0.0,0.0,0.0,0.0,0.0,0.0,0.0,0.0,0.0,0.0,0.0,0.0,0.0,0.0,0.0,0.0,0.0,0.0,0.0,0.0,0.0,0.0,0.0,0.0,0.0,0.0,0.0,0.0,0.0,0.0,0.0,0.0,0.0,0.0,0.0,0.0,0.0,0.0,0.0,0.0,0.0,0.0,0.0,0.0,0.0,0.0,0.0,0.0,0.0,0.0,0.0,0.0,0.0,0.0,0.0,0.0,0.0,0.0,0.0,0.0,0.0,0.0,0.0,0.0,0.0,0.0,0.0,0.0,0.0,0.0,0.0,0.0,0.0,0.0,0.0,0.0,0.0,0.0,0.0,0.0,0.0,0.0,0.0,0.0,0.0,0.0,0.0,0.0,0.0,0.0,0.0,0.0,0.0,0.0,0.0,0.0,0.0,0.0,0.0,0.0,0.0,0.0,0.0,0.0,0.0,0.0,0.0,0.0,0.0,0.0,0.0,0.0,0.0,0.0,0.0,0.0,0.0,0.0,0.0,0.0,0.0,0.0,0.0,0.0,0.0,0.0,0.0,0.0,0.0,0.0,0.0,0.0,0.0,0.0,0.0,0.0,0.0,0.0,0.0,0.0,0.0,0.0,0.0,0.0,0.0,0.0,0.0,0.0,0.0,0.0,0.0,0.0,0.0,0.0,0.0,0.0,0.0,0.0,0.0,0.0,0.0,0.0,0.0,0.0,0.0,0.0,0.0,0.0,0.0,0.0,0.0,0.0,0.0,0.0,0.0,0.0,0.0,0.0,0.0,0.0,0.0,0.0,0.0,0.0,0.0,0.0,0.0,0.0,0.0,0.0,0.0,0.0,0.0,0.0,0.0,0.0,0.0,0.0,0.0,0.0,0.0,0.0,0.0,0.0,0.0,0.0,0.0,0.0,0.0,0.0,0.0,0.0,0.0,0.0,0.0,0.0,0.0,0.0,0.0,0.0,0.0,0.0,0.0,0.0,0.0,0.0,0.0,0.0,0.0,0.0,0.0,0.0,0.0,0.0,0.0,0.0,0.0,0.0,0.0,0.0,0.0,0.0,0.0,0.0,0.0,0.0,0.0,0.0,0.0,0.0,0.0,0.0,0.0,0.0,0.0,0.0,0.0,0.0,0.0,0.0,0.0,0.0,0.0,0.0,0.0,0.0,0.0,0.0,0.0,0.0,0.0,0.0,0.0,0.0,0.0,0.0,0.0,0.0,0.0,0.0,0.0,0.0,0.0,0.0,0.0,0.0,0.0,0.0,0.0,0.0,0.0,0.0,0.0,0.0,0.0,0.0,0.0,0.0,0.0,0.0,0.0,0.0,0.0,0.0,0.0,0.0,0.0,0.0,0.0,0.0,0.0,0.0,0.0,0.0,0.0,0.0,0.0,0.0,0.0,0.0,0.0,0.0,0.0,0.0,0.0,0.0,0.0,0.0,0.0,0.0,0.0,0.0,0.0,0.0,0.0,0.0,0.0,0.0,0.0,0.0,0.0,0.0,0.0,0.0,0.0,0.0,0.0,0.0,0.0,0.0,0.0,0.0,0.0,0.0,0.0,0.0,0.0,0.0,0.0,0.0,0.0,0.0,0.0,0.0,0.0,0.0,0.0,0.0,0.0,0.0,0.0,0.0,0.0,0.0,0.0,0.0,0.0,0.0,0.0,0.0,0.0,0.0,0.0,0.0,0.0,0.0,0.0,0.0,0.0,0.0,0.0,0.0,0.0,0.0,0.0,0.0,0.0,0.0,0.0,0.0,0.0,0.0,0.0,0.0,0.0,0.0,0.0,0.0,0.0,0.0,0.0,0.0,0.0,0.0,0.0,0.0,0.0,0.0,0.0,0.0,0.0,0.0,0.0,0.0,0.0,0.0,0.0,0.0,0.0,0.0,0.0,0.0,0.0,0.0,0.0,0.0,0.0,0.0,0.0,0.0,0.0,0.0,0.0,0.0,0.0,0.0,0.0,0.0,0.0,0.0,0.0,0.0,0.0,0.0,0.0,0.0,0.0,0.0,0.0,0.0,0.0,0.0,0.0,0.0,0.0,0.0,0.0,0.0,0.0,0.0,0.0,0.0,0.0,0.0,0.0,0.0,0.0,0.0,0.0,0.0,0.0,0.0,0.0,0.0,0.0,0.0,0.0,0.0,0.0,0.0,0.0,0.0,0.0,0.0,0.0,0.0,0.0,0.0,0.0,0.0,0.0,0.0,0.0,0.0,0.0,0.0,0.0,0.0,0.0,0.0,0.0,0.0,0.0,0.0,0.0,0.0,0.0,0.0,0.0,0.0,0.0,0.0,0.0,0.0,0.0,0.0,0.0,0.0,0.0,0.0,0.0,0.0,0.0,0.0,0.0,0.0,0.0,0.0,0.0,0.0,0.0,0.0,0.0,0.0,0.0,0.0,0.0,0.0,0.0,0.0,0.0,0.0,0.0,0.0,0.0,0.0,0.0,0.0,0.0,0.0,0.0,0.0,0.0,0.0,0.0,0.0,0.0,0.0,0.0,0.0,0.0,0.0,0.0,0.0,0.0,0.0,0.0,0.0,0.0,0.0,0.0,0.0,0.0,0.0,0.0,0.0,0.0,0.0,0.0,0.0,0.0,0.0,0.0,0.0,0.0,0.0,0.0,0.0,0.0,0.0,0.0,0.0,0.0,0.0,0.0,0.0,0.0,0.0,0.0,0.0,0.0,0.0,0.0,0.0,0.0,0.0,0.0,0.0,0.0,0.0,0.0,0.0,0.0,0.0,0.0,0.0,0.0,0.0,0.0,0.0,0.0,0.0,0.0,0.0,0.0,0.0,0.0,0.0,0.0,0.0,0.0,0.0,0.0,0.0,0.0,0.0,0.0,0.0,0.0,0.0,0.0,0.0,0.0,0.0,0.0,0.0,0.0,0.0,0.0,0.0,0.0,0.0,0.0,0.0,0.0,0.0,0.0,0.0,0.0,0.0,0.0,0.0,0.0,0.0,0.0,0.0,0.0,0.0,0.0,0.0,0.0,0.0,0.0,0.0,0.0,0.0,0.0,0.0,0.0,0.0,0.0,0.0,0.0,0.0,0.0,0.0,0.0,0.0,0.0,0.0,0.0,0.0,0.0,0.0,0.0,0.0,0.0,0.0,0.0,0.0,0.0,0.0,0.0,0.0,0.0,0.0,0.0,0.0,0.0,0.0,0.0,0.0,0.0,0.0,0.0,0.0,0.0,0.0,0.0,0.0,0.0,0.0,0.0,0.0,0.0,0.0,0.0,0.0,0.0,0.0,0.0,0.0,0.0,0.0,0.0,0.0,0.0,0.0,0.0,0.0,0.0,0.0,0.0,0.0,0.0,0.0,0.0,0.0,0.0,0.0,0.0,0.0,0.0,0.0,0.0,0.0,0.0,0.0,0.0,0.0,0.0,0.0,0.0,0.0,0.0,0.0,0.0,0.0,0.0,0.0,0.0,0.0,0.0,0.0,0.0,0.0,0.0,0.0,0.0,0.0,0.0,0.0,0.0,0.0,0.0,0.0,0.0,0.0,0.0,0.0,0.0,0.0,0.0,0.0,0.0,0.0,0.0,0.0,0.0,0.0,0.0,0.0,0.0,0.0,0.0,0.0,0.0,0.0,0.0,0.0,0.0,0.0,0.0,0.0,0.0,0.0,0.0,0.0,0.0,0.0,0.0,0.0,0.0,0.0,0.0,0.0,0.0,0.0,0.0,0.0,0.0,0.0,0.0,0.0,0.0,0.0,0.0,0.0,0.0,0.0,0.0,0.0,0.0,0.0,0.0,0.0,0.0,0.0,0.0,0.0,0.0,0.0,0.0,0.0,0.0,0.0,0.0,0.0,0.0,0.0,0.0,0.0,0.0,0.0,0.0,0.0,0.0,0.0,0.0,0.0,0.0,0.0,0.0,0.0,0.0,0.0,0.0,0.0,0.0,0.0,0.0,0.0,0.0,0.0,0.0,0.0,0.0,0.0,0.0,0.0,0.0,0.0,0.0,0.0,0.0,0.0,0.0,0.0,0.0,0.0,0.0,0.0,0.0,0.0,0.0,0.0,0.0,0.0,0.0,0.0,0.0,0.0,0.0,0.0,0.0,0.0,0.0,0.0,0.0,0.0,0.0,0.0,0.0,0.0,0.0,0.0,0.0,0.0,0.0,0.0,0.0,0.0,0.0,0.0,0.0,0.0,0.0,0.0,0.0,0.0,0.0,0.0,0.0,0.0,0.0,0.0,0.0,0.0,0.0,0.0,0.0,0.0,0.0,0.0,0.0,0.0,0.0,0.0,0.0,0.0,0.0,0.0,0.0,0.0,0.0,0.0,0.0,0.0,0.0,0.0,0.0,0.0,0.0,0.0,0.0,0.0,0.0,0.0,0.0,0.0,0.0,0.0,0.0,0.0,0.0,0.0,0.0,0.0,0.0,0.0,0.0,0.0,0.0,0.0,0.0,0.0,0.0,0.0,0.0,0.0,0.0,0.0,0.0,0.0,0.0,0.0,0.0,0.0,0.0,0.0,0.0,0.0,0.0,0.0,0.0,0.0,0.0,0.0,0.0,0.0,0.0,0.0,0.0,0.0,0.0,0.0,0.0,0.0,0.0,0.0,0.0,0.0,0.0,0.0,0.0,0.0,0.0,0.0,0.0,0.0,0.0,0.0,0.0,0.0,0.0,0.0,0.0,0.0,0.0,0.0,0.0,0.0,0.0,0.0,0.0,0.0,0.0,0.0,0.0,0.0,0.0,0.0,0.0,0.0,0.0,0.0,0.0,0.0,0.0,0.0,0.0,0.0,0.0,0.0,0.0,0.0,0.0,0.0,0.0,0.0,0.0,0.0,0.0,0.0,0.0,0.0,0.0,0.0,0.0,0.0,0.0,0.0,0.0,0.0,0.0,0.0,0.0,0.0,0.0,0.0,0.0,0.0,0.0,0.0,0.0,0.0,0.0,0.0,0.0,0.0,0.0,0.0,0.0,0.0,0.0,0.0,0.0,0.0,0.0,0.0,0.0,0.0,0.0,0.0,0.0,0.0,0.0,0.0,0.0,0.0,0.0,0.0,0.0,0.0,0.0,0.0,0.0,0.0,0.0,0.0,0.0,0.0,0.0,0.0,0.0,0.0,0.0,0.0,0.0,0.0,0.0,0.0,0.0,0.0,0.0,0.0,0.0,0.0,0.0,0.0,0.0,0.0,0.0,0.0,0.0,0.0,0.0,0.0,0.0,0.0,0.0,0.0,0.0,0.0,0.0,0.0,0.0,0.0,0.0,0.0,0.0,0.0,0.0,0.0,0.0,0.0,0.0,0.0,0.0,0.0,0.0,0.0,0.0,0.0,0.0,0.0,0.0,0.0,-2.8098,0.0,0.0,0.0,0.0,0.0,0.0,0.0,0.0,0.0,0.0,0.0,0.0,0.0,0.0,0.0,0.0,0.0,0.0,0.0,0.0,0.0,0.0,0.0,0.0,0.0,0.0,0.0,0.0,0.0,0.0,0.0,0.0,0.0,0.0,0.0,0.0,0.0,0.0,0.0,0.0,0.0,0.0,0.0,0.0,0.0,0.0,0.0,0.0,0.0,0.0,0.0,0.0,0.0,0.0,0.0,0.0,0.0,0.0,0.0,0.0,0.0,0.0,0.0,0.0,0.0,0.0,0.0,0.0,0.0,0.0,0.0,0.0,0.0,0.0,0.0,0.0,0.0,0.0,0.0,0.0,0.0,0.0,0.0,0.0,0.0,0.0,0.0,0.0,0.0,0.0,0.0,0.0,0.0,0.0,0.0,0.0,0.0,0.0,0.0,0.0,0.0,0.0,0.0,0.0,0.0,0.0,0.0,0.0,0.0,0.0,0.0,0.0,0.0,0.0,0.0,0.0,-2.9694,0.0,0.0,0.0,0.0,0.0,0.0,0.0,0.0,0.0,0.0,0.0,0.0,0.0,0.0,0.0,0.0,0.0,0.0,0.0,0.0,0.0,0.0,0.0,0.0,0.0,0.0,0.0,0.0,0.0,0.0,0.0,0.0,0.0,0.0,0.0,0.0,0.0,0.0,0.0,0.0,0.0,0.0,0.0,0.0,0.0,0.0,0.0,0.0,0.0,0.0,0.0,0.0,0.0,0.0,0.0,0.0,0.0,0.0,0.0,0.0,0.0,0.0,0.0,0.0,0.0,0.0,0.0,0.0,0.0,0.0,0.0,0.0,0.0,0.0,0.0,0.0,0.0,0.0,0.0,0.0,0.0,0.0,0.0,0.0,0.0,0.0,0.0,0.0,0.0,0.0,0.0,0.0,0.0,0.0,0.0,0.0,0.0,0.0,0.0,0.0,0.0,0.0,0.0,0.0,0.0,0.0,0.0,0.0,-3.51,-3.5441,-3.5479,-3.5497,-3.5465,-3.5335,-3.3758,-3.3658,-3.442,-3.173,0.0,0.0,0.0,0.0,0.0,0.0,0.0,0.0,0.0,0.0,0.0,0.0,0.0,0.0,0.0,0.0,0.0,0.0,0.0,0.0,0.0,0.0,0.0,0.0,0.0,0.0,0.0,0.0,0.0,0.0,0.0,0.0,0.0,0.0,0.0,0.0,0.0,0.0,-2.9262,-2.9842,-2.9618,-2.8668,0.0,0.0,0.0,0.0,0.0,0.0,0.0,0.0,0.0,0.0,0.0,0.0,0.0,0.0,0.0,0.0,0.0,0.0,0.0,0.0,0.0,0.0,0.0,0.0,0.0,0.0,0.0,0.0,0.0,0.0,0.0,0.0,0.0,0.0,0.0,0.0,0.0,0.0,0.0,0.0,0.0,0.0,0.0,0.0,-2.5271,-2.7798,0.0,0.0,0.0,0.0,0.0,0.0,0.0,0.0,0.0,0.0,0.0,0.0,0.0,-3.3698,-3.6489,-3.6993,-3.8197,-4.0031,-4.0207,-4.0399,-4.0624,-4.0384,-4.0293,-4.0201,-3.8757,0.0,-3.632,-3.5657,0.0,0.0,0.0,0.0,0.0,0.0,0.0,0.0,0.0,0.0,0.0,0.0,0.0,0.0,0.0,0.0,0.0,0.0,0.0,0.0,0.0,0.0,0.0,0.0,0.0,0.0,0.0,0.0,0.0,0.0,0.0,0.0,0.0,0.0,0.0,0.0,-2.7828,-3.062,-3.2931,-3.4101,-3.4279,-3.3568,-3.258,-2.9708,-2.563,-2.5465,0.0,0.0,0.0,0.0,0.0,0.0,0.0,0.0,0.0,0.0,0.0,0.0,0.0,0.0,0.0,0.0,0.0,0.0,0.0,0.0,0.0,0.0,0.0,0.0,0.0,0.0,0.0,0.0,0.0,0.0,0.0,0.0,0.0,0.0,0.0,0.0,0.0,0.0,0.0,-2.5569,-2.8653,-3.0623,-3.0381,-2.9787,0.0,0.0,0.0,0.0,0.0,0.0,0.0,0.0,0.0,-3.5033,-3.625,-3.7937,-4.0118,-4.1866,-4.3229,-4.42,-4.4911,-4.5307,-4.5411,-4.5095,-4.4821,-4.452,-4.3558,-4.2059,-4.0171,-3.8382,-3.7499,-3.7137,0.0,0.0,0.0,0.0,-3.4389,-3.4524,0.0,0.0,0.0,0.0,0.0,0.0,0.0,0.0,0.0,0.0,0.0,0.0,0.0,0.0,0.0,-1.922,0.0,0.0,0.0,0.0,0.0,0.0,0.0,0.0,0.0,0.0,0.0,0.0,0.0,-3.3996,-3.6288,-3.7734,-3.7991,-3.7202,-3.7,-3.3642,-2.8117,-2.7848,-2.6309,0.0,0.0,0.0,0.0,0.0,0.0,0.0,0.0,0.0,0.0,0.0,0.0,0.0,0.0,0.0,0.0,0.0,0.0,0.0,0.0,0.0,0.0,0.0,0.0,0.0,0.0,0.0,0.0,0.0,0.0,0.0,0.0,0.0,0.0,0.0,0.0,0.0,0.0,-2.8152,-3.1199,-3.2816,-3.2685,-3.2221,0.0,0.0,0.0,0.0,0.0,0.0,-3.5442,-3.6449,-3.7765,-3.9454,-4.1065,-4.2656,-4.4191,-4.6055,-4.7058,-4.7254,-4.7671,-4.7917,-4.7957,-4.7423,-4.7004,-4.6652,-4.6261,-4.5273,-4.3704,-4.0877,-3.9509,-3.9153,-3.853,-3.7542,-3.6458,-3.6594,-3.6635,-3.6709,0.0,0.0,0.0,0.0,0.0,0.0,0.0,0.0,0.0,0.0,0.0,0.0,0.0,0.0,-2.3105,-2.3122,-2.3864,-2.3391,0.0,0.0,0.0,0.0,0.0,0.0,0.0,0.0,0.0,0.0,0.0,0.0,-3.9662,-4.0524,-4.0487,-3.9696,-3.8927,-3.6248,-3.221,-3.0817,-2.8739,-2.624,0.0,0.0,0.0,0.0,0.0,0.0,0.0,0.0,0.0,0.0,0.0,0.0,0.0,0.0,0.0,0.0,0.0,0.0,0.0,0.0,0.0,0.0,0.0,0.0,0.0,0.0,0.0,0.0,0.0,0.0,0.0,0.0,0.0,0.0,0.0,0.0,0.0,0.0,0.0,-3.2816,-3.5683,0.0,0.0,0.0,0.0,-3.5138,-3.5993,-3.8209,-4.2092,-4.2374,-4.3859,-4.7051,-4.7239,-4.7954,-4.9304,-4.866,-4.8544,-4.8956,-4.7228,-4.654,-4.6749,-4.5705,-4.5222,-4.5226,-4.5429,-4.5769,-4.5957,-4.3505,-4.1741,-4.0464,-3.8902,-3.8249,-3.8252,-3.8741,-3.8923,-3.9229,0.0,0.0,0.0,0.0,0.0,0.0,0.0,0.0,0.0,0.0,0.0,0.0,0.0,-2.3794,-2.6337,-2.6945,-2.7672,-2.7148,-2.4897,0.0,0.0,0.0,0.0,0.0,0.0,0.0,0.0,0.0,0.0,0.0,0.0,-4.2234,-4.2213,-4.1405,-4.0616,-3.9148,-3.711,-3.4485,-3.1948,-2.9536,-2.7818,-2.5401,0.0,0.0,0.0,0.0,0.0,0.0,0.0,0.0,0.0,0.0,0.0,0.0,0.0,0.0,0.0,0.0,0.0,0.0,0.0,0.0,0.0,0.0,0.0,0.0,0.0,0.0,0.0,0.0,0.0,0.0,0.0,0.0,0.0,0.0,0.0,0.0,0.0,-3.6612,-3.8247,0.0,-3.8251,-3.8284,-3.8644,-3.9366,-4.1646,-4.3875,-4.5844,-4.7252,-4.8292,-4.8901,-4.9972,-5.065,-5.0853,-5.0804,-5.0725,-5.063,-5.0267,-4.9995,-4.9789,-4.9473,-4.8928,-4.8197,-4.8569,-4.7967,-4.6731,-4.639,-4.5468,-4.4216,-4.342,-4.2819,-4.2368,-4.2573,-4.264,-4.2693,0.0,0.0,0.0,0.0,0.0,0.0,0.0,0.0,0.0,0.0,0.0,-2.1074,-2.3061,-2.6808,-2.9419,-3.0,-3.0309,-2.9194,-2.6166,0.0,0.0,0.0,0.0,0.0,0.0,0.0,0.0,0.0,0.0,0.0,0.0,0.0,-4.3222,-4.2671,-4.1864,-4.1222,-4.0524,-3.7808,-3.5257,-3.2865,-3.0788,-2.8044,-2.4976,0.0,0.0,0.0,0.0,0.0,0.0,0.0,0.0,0.0,0.0,0.0,0.0,0.0,0.0,0.0,0.0,0.0,0.0,0.0,0.0,0.0,0.0,0.0,0.0,0.0,0.0,0.0,0.0,0.0,0.0,0.0,0.0,0.0,0.0,0.0,-3.7503,-3.9677,-4.148,-4.2506,-4.2467,-4.2498,-4.3077,-4.4361,-4.6754,-4.8742,-5.0098,-5.1509,-5.2152,-5.1872,-5.2808,-5.3258,-5.313,-5.3002,-5.2893,-5.2725,-5.2268,-5.1861,-5.1565,-5.1089,-5.0462,-4.9711,-4.9967,-4.9371,-4.8193,-4.8461,-4.8082,-4.7236,-4.6498,-4.5873,-4.541,-4.541,-4.5343,-4.5112,0.0,0.0,0.0,0.0,0.0,0.0,0.0,0.0,0.0,0.0,0.0,-2.3504,-2.7063,-3.0359,-3.2283,-3.2189,-3.1567,-2.9313,-2.488,-2.3156,0.0,0.0,0.0,0.0,0.0,0.0,0.0,0.0,0.0,0.0,0.0,0.0,0.0,-4.3515,-4.2708,-4.2378,-4.2268,-4.0671,-3.8652,-3.6193,-3.2871,-3.0654,-2.8892,0.0,0.0,0.0,0.0,0.0,0.0,0.0,0.0,0.0,0.0,0.0,0.0,0.0,0.0,0.0,0.0,0.0,0.0,0.0,0.0,0.0,0.0,0.0,0.0,0.0,0.0,0.0,0.0,0.0,0.0,0.0,0.0,0.0,-3.3052,-3.8154,-4.1757,-4.1876,-4.5421,-4.7537,-4.6758,-4.7389,-4.8503,-5.0099,-5.099,-5.2512,-5.4869,-5.5056,-5.5426,-5.6262,-5.5934,-5.5913,-5.6279,-5.5148,-5.4792,-5.5116,-5.2803,-5.169,-5.1662,-5.0066,-4.9347,-4.9364,-4.9364,-4.981,-5.0477,-4.9668,-4.9329,-4.9186,-4.7676,-4.7051,-4.7033,-4.7051,-4.689,-4.6401,0.0,0.0,0.0,0.0,0.0,0.0,0.0,0.0,0.0,0.0,-2.1769,-2.473,-2.8045,-3.109,-3.3136,-3.3782,-3.2219,-2.9973,-2.708,0.0,0.0,0.0,0.0,0.0,0.0,0.0,0.0,0.0,0.0,0.0,0.0,0.0,0.0,0.0,-4.414,-4.4048,-4.3975,-4.2947,-4.1791,-4.0322,-3.6486,-3.3632,-3.144,0.0,0.0,0.0,0.0,0.0,0.0,0.0,0.0,0.0,0.0,0.0,0.0,0.0,0.0,0.0,0.0,0.0,0.0,0.0,0.0,0.0,0.0,0.0,0.0,0.0,0.0,0.0,0.0,0.0,0.0,0.0,0.0,-3.7838,-3.9439,-4.2329,-4.5384,-4.8355,-5.0314,-5.1287,-5.1025,-5.0979,-5.1482,-5.2764,-5.3078,-5.3778,-5.5005,-5.5892,-5.6246,-5.5933,-5.6351,-5.6373,-5.5951,-5.5033,-5.4478,-5.4232,-5.2509,-5.184,-5.2024,-5.076,-5.0495,-5.1048,-5.1048,-5.1173,-5.1315,-5.0513,-5.0174,-5.0084,-4.9067,-4.8336,-4.7931,-4.8478,-4.8271,-4.7689,0.0,0.0,0.0,0.0,0.0,0.0,0.0,0.0,0.0,0.0,-2.271,-2.5462,-2.912,-3.1415,-3.2757,-3.2938,-3.0996,-2.8704,-2.6116,0.0,0.0,0.0,0.0,0.0,0.0,0.0,0.0,0.0,0.0,0.0,0.0,0.0,0.0,0.0,0.0,-4.5204,-4.5168,-4.469,-4.4232,-4.3552,-4.0524,-3.7643,-3.4959,-3.3111,-3.1302,-2.9629,-2.8795,-2.8556,-2.8368,-2.6778,0.0,0.0,0.0,0.0,0.0,0.0,0.0,0.0,0.0,0.0,0.0,0.0,0.0,0.0,0.0,0.0,0.0,0.0,0.0,0.0,0.0,0.0,0.0,0.0,-3.8927,-4.2799,-4.6305,-4.7445,-4.9099,-5.2322,-5.3474,-5.3924,-5.3745,-5.3835,-5.4186,-5.4856,-5.5049,-5.5437,-5.6101,-5.6804,-5.7008,-5.6568,-5.68,-5.6678,-5.606,-5.5584,-5.5141,-5.4694,-5.3674,-5.3274,-5.3423,-5.2408,-5.2225,-5.2671,-5.2671,-5.2493,-5.2144,-5.1333,-5.0798,0.0,0.0,0.0,0.0,0.0,-4.9591,-4.9038,0.0,0.0,0.0,0.0,0.0,0.0,0.0,0.0,0.0,0.0,0.0,-2.5762,-2.995,-3.1332,-3.1661,-3.0905,-2.8895,-2.6488,0.0,0.0,0.0,0.0,0.0,0.0,0.0,0.0,0.0,0.0,0.0,0.0,0.0,0.0,0.0,0.0,0.0,-4.6159,-4.6159,-4.6269,-4.6214,-4.5902,-4.447,-4.1974,-3.8869,-3.6592,-3.5146,-3.4104,-3.2196,-3.1032,-3.0276,-2.9409,0.0,0.0,0.0,0.0,0.0,0.0,0.0,0.0,0.0,0.0,0.0,0.0,0.0,0.0,0.0,0.0,0.0,0.0,0.0,0.0,0.0,0.0,0.0,0.0,-4.2526,-4.6771,-5.2524,-5.2593,-5.2744,-5.4626,-5.5434,-5.5742,-5.5489,-5.5956,-5.6359,-5.6448,-5.6689,-5.6992,-5.7322,0.0,0.0,0.0,0.0,-5.6758,-5.6261,-5.6346,-5.6215,-5.5862,-5.5337,-5.5116,-5.5187,-5.4269,-5.3966,-5.4126,-5.4037,-5.3689,-5.309,-5.219,-5.1273,-5.0392,-4.9703,-4.9942,-5.0635,-5.0797,-5.0729,-5.0289,0.0,0.0,0.0,0.0,0.0,0.0,0.0,0.0,0.0,-2.1237,-2.3061,-2.5493,-2.9356,-3.058,0.0,-3.0972,0.0,0.0,0.0,0.0,0.0,0.0,0.0,0.0,0.0,0.0,0.0,0.0,0.0,0.0,0.0,0.0,0.0,0.0,0.0,0.0,-4.7805,-4.8562,-4.8104,-4.6837,-4.6526,-4.4488,-4.1405,-3.9656,-3.8481,-3.7698,-3.7294,-3.7423,-3.7529,-3.5565,-3.4321,-3.3191,-3.0756,0.0,0.0,0.0,0.0,0.0,0.0,0.0,0.0,0.0,0.0,0.0,0.0,0.0,0.0,0.0,0.0,0.0,0.0,0.0,0.0,-4.2537,-4.6663,-5.0614,-5.3813,-5.4942,-5.5837,-5.6875,-5.6849,-5.6989,-5.7539,-5.6861,-5.6668,-5.7317,-5.6814,-5.624,-5.5677,-5.659,-5.6382,-5.4745,-5.6189,-5.6495,-5.5426,-5.6071,-5.6366,-5.6286,0.0,0.0,-5.5152,-5.3742,-5.3778,-5.4937,-5.4269,-5.4287,-5.4652,-5.3225,-5.1671,-5.0171,-5.0236,-5.0762,-5.1451,-5.128,-5.1176,-5.1044,0.0,0.0,0.0,0.0,0.0,0.0,0.0,0.0,0.0,0.0,-2.173,0.0,0.0,0.0,0.0,0.0,0.0,0.0,0.0,0.0,0.0,0.0,0.0,0.0,0.0,0.0,0.0,0.0,0.0,0.0,0.0,0.0,0.0,0.0,0.0,0.0,-4.9332,-4.9874,-4.9383,-4.8209,-4.7846,-4.6269,-4.392,-4.2304,-4.1442,-4.1038,-4.0653,-4.0506,-4.0265,-3.8718,-3.7628,-3.6615,-3.472,-3.1911,-2.8973,0.0,0.0,0.0,0.0,0.0,0.0,0.0,0.0,0.0,0.0,0.0,0.0,0.0,0.0,-3.5361,0.0,0.0,-4.3782,-4.6643,-5.0231,-5.3369,-5.5414,-5.6447,-5.7201,-5.7785,-5.7524,-5.7463,-5.7855,-5.7341,-5.6982,-5.7009,-5.7173,-5.6842,-5.5847,-5.6761,-5.6653,-5.5259,-5.6188,-5.6206,-5.5223,-5.5598,-5.5794,-5.5794,-5.4991,-5.5027,-5.5776,-5.4991,-5.5062,-5.5776,-5.5384,-5.5205,-5.5089,-5.378,-5.2582,-5.1607,-5.1768,-5.1017,-4.9916,-5.0189,-5.0196,-5.0095,0.0,0.0,0.0,0.0,0.0,0.0,0.0,0.0,0.0,0.0,0.0,0.0,0.0,0.0,0.0,0.0,0.0,0.0,0.0,0.0,0.0,0.0,0.0,0.0,0.0,0.0,0.0,0.0,0.0,0.0,0.0,0.0,0.0,0.0,0.0,0.0,0.0,-5.0942,-5.0511,-4.9578,-4.8854,-4.7498,-4.5736,-4.4287,-4.3626,-4.3369,-4.2415,-4.135,-4.0359,-4.001,-3.9056,-3.7955,-3.7804,-3.5713,-3.2871,-3.0546,-2.8735,0.0,0.0,0.0,0.0,0.0,0.0,0.0,0.0,0.0,-3.3473,-3.6896,-3.8377,-3.977,-4.211,-4.4952,-4.7868,-5.0673,-5.3279,-5.5432,-5.6721,-5.7308,-5.7673,-5.7867,-5.7644,-5.754,-5.7665,-5.7624,-5.7394,-5.6884,-5.7711,-5.7738,-5.6696,-5.7267,-5.715,-5.6204,-5.6311,-5.6008,-5.5223,-5.5366,-5.5437,-5.5437,-5.5437,-5.5776,-5.6401,-5.6401,-5.6355,-5.63,-5.6245,-5.5861,-5.5176,-5.4148,-5.3447,-5.2989,-5.2691,-5.0896,-4.8583,-4.9587,-4.9691,-4.9424,0.0,0.0,0.0,0.0,0.0,0.0,0.0,0.0,0.0,0.0,0.0,0.0,0.0,0.0,0.0,0.0,0.0,0.0,0.0,0.0,0.0,0.0,0.0,0.0,0.0,0.0,0.0,0.0,0.0,0.0,0.0,0.0,0.0,0.0,0.0,0.0,0.0,0.0,-5.1846,-5.0421,-4.9716,-4.8031,-4.5792,-4.4911,-4.4121,-4.3313,-4.1791,-3.9808,-3.8117,-3.9457,-3.79,-3.5775,-3.79,-3.6817,-3.4293,-3.1887,0.0,-2.8128,-2.5095,-2.445,-2.5338,-2.8316,-2.9572,-3.1641,0.0,0.0,-4.0405,-4.43,-4.639,-4.8073,-4.9837,-5.1639,-5.32,-5.4296,-5.5683,-5.6684,-5.6868,-5.7308,-5.7473,-5.7162,-5.709,-5.7317,-5.797,-5.7783,-5.7833,-5.8417,-5.857,-5.8284,-5.7517,-5.757,-5.6882,-5.5384,-5.6026,-5.6008,-5.5223,-5.5919,-5.6258,-5.6258,-5.6258,-5.6311,-5.6401,-5.6401,-5.6245,-5.5947,-5.5689,-5.5537,-5.5396,-5.4558,-5.3637,-5.2596,-5.1248,-5.0337,-4.9994,-5.1691,-5.1848,-5.117,0.0,0.0,0.0,0.0,0.0,0.0,0.0,0.0,0.0,0.0,0.0,0.0,0.0,0.0,0.0,0.0,0.0,0.0,0.0,0.0,0.0,0.0,0.0,0.0,0.0,0.0,0.0,0.0,0.0,0.0,0.0,0.0,0.0,0.0,0.0,0.0,0.0,0.0,-5.194,-5.0483,-5.0356,-4.8526,-4.581,-4.5021,-4.3332,-4.1185,-3.957,-3.7734,0.0,0.0,-3.5752,-3.5279,-3.6817,-3.5917,-3.4022,-3.2662,-3.1059,0.0,-2.9246,-2.9163,-2.9994,0.0,-3.4845,-3.6811,-4.1897,-4.3515,-4.4971,-4.8522,-5.0582,-5.2122,-5.3292,-5.4853,-5.606,0.0,-5.7106,-5.7518,-5.7331,-5.7058,-5.6491,-5.5387,-5.5443,-5.5998,-5.7003,-5.6974,-5.7221,-5.8006,-5.8442,-5.8399,-5.766,-5.8452,-5.8006,-5.5955,-5.6668,-5.6704,-5.5901,-5.5776,-5.5937,-5.6383,-5.5727,-5.5644,-5.6088,-5.5964,-5.5793,-5.566,-5.5561,-5.5383,-5.5169,-5.4837,-5.4343,-5.364,-5.2567,-5.2079,-5.189,-5.1348,-5.091,-5.0685,0.0,0.0,0.0,0.0,0.0,0.0,0.0,0.0,0.0,0.0,0.0,0.0,0.0,0.0,0.0,0.0,0.0,0.0,0.0,0.0,0.0,0.0,0.0,0.0,0.0,0.0,0.0,0.0,0.0,0.0,0.0,0.0,0.0,0.0,0.0,0.0,0.0,0.0,0.0,-5.007,-5.0076,-4.8268,-4.5461,-4.4433,-4.1625,-3.8065,-3.6905,-3.4981,0.0,0.0,-3.21,-3.2289,-3.3807,-3.3605,-3.2676,-3.2016,-3.0586,-2.9671,-3.1789,0.0,0.0,-3.7742,-3.9723,-4.1696,-4.5564,-4.7355,-4.8927,-5.1491,-5.331,-5.461,-5.5204,-5.6484,-5.745,-5.745,-5.7805,-5.8033,-5.7755,-5.6618,-5.5317,-5.401,-5.3756,-5.4054,-5.5018,-5.5883,-5.6811,-5.7828,-5.8388,-5.8577,-5.8238,-5.8899,-5.8488,-5.6775,-5.7061,-5.6989,-5.6401,-5.573,-5.5675,-5.6245,-5.5334,-5.5228,-5.5775,-5.5484,-5.5231,-5.5038,-5.5159,-5.5083,-5.4852,-5.4643,-5.442,-5.4098,-5.3149,-5.3028,-5.3166,-5.1304,-5.0493,-5.039,0.0,0.0,0.0,0.0,0.0,0.0,0.0,0.0,0.0,0.0,0.0,0.0,0.0,0.0,0.0,0.0,0.0,0.0,0.0,0.0,0.0,0.0,0.0,0.0,0.0,0.0,0.0,0.0,0.0,0.0,0.0,0.0,0.0,0.0,0.0,0.0,0.0,0.0,0.0,-4.9177,-4.8532,-4.6854,-4.4544,-4.2983,-3.8872,-3.3972,-3.3935,0.0,0.0,0.0,-2.6429,-2.5071,-2.8235,-2.9721,0.0,-2.9347,-2.7959,0.0,0.0,0.0,-3.4099,-3.9926,-4.3175,-4.5786,-4.9102,-5.1176,-5.2661,-5.3456,-5.49,-5.6031,-5.6049,-5.6753,-5.7309,-5.7309,-5.7743,-5.8082,-5.8082,-5.588,-5.409,-5.3574,-5.2265,-5.1533,0.0,-5.4598,-5.7025,-5.8549,-5.8692,-5.903,-5.9809,-5.8452,-5.766,-5.7588,-5.6829,-5.6418,-5.6401,-5.6042,-5.5883,-5.5918,-5.5613,-5.5484,-5.5502,-5.5174,-5.4604,-5.3878,-5.4323,-5.4543,-5.446,-5.3736,-5.3442,-5.3287,-5.177,-5.208,-5.3304,-5.2459,-5.1671,-5.108,0.0,0.0,0.0,0.0,0.0,0.0,0.0,0.0,0.0,0.0,0.0,0.0,0.0,0.0,0.0,0.0,0.0,0.0,0.0,0.0,0.0,0.0,0.0,0.0,0.0,0.0,0.0,0.0,0.0,0.0,0.0,0.0,0.0,0.0,0.0,0.0,0.0,0.0,0.0,0.0,-4.7247,-4.5114,-4.2679,-4.0006,-3.5823,-3.1127,0.0,0.0,0.0,0.0,0.0,0.0,-2.5933,-2.6806,0.0,-2.8601,-2.9757,-3.1421,0.0,0.0,-4.0058,-4.4189,-4.6708,-4.8716,-5.0894,-5.2338,-5.3118,-5.2821,-5.2359,-5.1823,-5.1286,-5.0583,-5.0972,-5.3678,-5.4367,-5.5397,-5.7712,-5.6242,-5.4338,-5.2774,-5.2448,0.0,0.0,0.0,0.0,-5.6681,-5.7056,-5.7441,-5.8005,-5.8232,-5.7779,-5.6514,-5.6745,-5.6507,-5.5793,-5.5689,-5.5631,-5.5631,-5.5324,-5.5053,-5.4838,-5.4714,-5.4513,-5.4271,-5.4422,-5.4512,-5.4443,-5.3701,-5.3701,-5.3994,-5.2442,-5.2477,-5.3253,-5.1959,-5.1291,-5.1183,0.0,0.0,0.0,0.0,0.0,0.0,0.0,0.0,0.0,0.0,0.0,0.0,0.0,0.0,0.0,0.0,0.0,0.0,0.0,0.0,0.0,0.0,0.0,0.0,0.0,0.0,0.0,0.0,0.0,0.0,0.0,0.0,0.0,0.0,0.0,0.0,0.0,0.0,0.0,0.0,0.0,-4.128,-3.8387,-3.5736,-3.1937,0.0,0.0,0.0,0.0,0.0,0.0,0.0,0.0,-2.5136,-2.6366,-2.9072,-3.1152,-3.361,-3.8303,-4.1332,-4.4011,-4.7573,-4.9505,-5.0926,-5.2292,-5.2832,-5.2596,-5.0933,-4.9492,-4.8015,-4.621,-4.5634,-4.6459,-4.9584,-5.0993,-5.2761,-5.5907,-5.4736,-5.3159,-5.219,-5.1773,-5.1264,0.0,0.0,0.0,-5.5741,-5.6021,-5.6482,-5.7441,-5.7794,-5.7399,-5.6188,-5.6646,-5.6576,-5.5906,-5.5506,-5.5264,-5.5144,-5.493,-5.4575,-5.4132,-5.4391,-5.4374,-5.4132,-5.4391,-5.4512,-5.4443,-5.3701,-5.3684,-5.396,-5.2425,-5.2287,-5.2839,-5.1563,-5.1114,-5.1149,0.0,0.0,0.0,0.0,0.0,0.0,0.0,0.0,0.0,0.0,0.0,0.0,0.0,0.0,0.0,0.0,0.0,0.0,0.0,0.0,0.0,0.0,0.0,0.0,0.0,0.0,0.0,0.0,0.0,0.0,0.0,0.0,0.0,0.0,0.0,0.0,0.0,0.0,0.0,0.0,0.0,0.0,-3.2255,-3.0611,0.0,0.0,0.0,0.0,0.0,0.0,0.0,0.0,0.0,-2.5006,-2.7567,-3.087,-3.243,-3.4325,-3.9994,-4.3278,-4.6085,-5.0095,-5.1643,-5.2438,-5.3237,-5.2687,-5.1118,-4.7903,-4.6336,-4.4502,0.0,0.0,-4.3855,-4.5498,-4.7902,-5.0508,-5.3217,-5.1835,-5.0933,0.0,0.0,0.0,0.0,0.0,0.0,-5.5748,0.0,-5.627,-5.7989,-5.7186,-5.6666,-5.6636,-5.6636,-5.6618,-5.6535,-5.551,-5.4807,-5.4512,-5.4512,-5.4132,-5.3477,-5.4184,-5.4132,-5.3494,-5.4201,-5.4494,-5.4391,-5.3649,-5.3339,-5.3201,-5.1701,-5.1533,-5.2101,-5.136,-5.1114,-5.0994,0.0,0.0,0.0,0.0,0.0,0.0,0.0,0.0,0.0,0.0,0.0,0.0,0.0,0.0,0.0,0.0,0.0,0.0,0.0,0.0,0.0,0.0,0.0,0.0,0.0,0.0,0.0,0.0,0.0,0.0,0.0,0.0,0.0,0.0,0.0,0.0,0.0,0.0,0.0,0.0,0.0,0.0,-3.121,0.0,0.0,0.0,0.0,0.0,0.0,0.0,0.0,0.0,0.0,-2.961,-3.194,-3.6413,-3.8726,-4.0928,-4.5993,-4.9169,-5.1426,-5.3101,-5.3653,-5.3542,-5.2592,-5.0331,-4.75,-4.4282,-4.0533,-3.7364,0.0,0.0,0.0,-4.439,-4.7422,0.0,-5.565,-5.4865,0.0,-5.317,0.0,-5.2553,-5.1412,-5.2527,0.0,0.0,-5.5366,-5.5769,-5.658,-5.7123,-5.732,-5.7119,-5.7119,-5.6715,-5.5871,-5.5032,-5.4589,-5.4512,-5.4512,-5.4408,-5.4236,-5.4425,-5.4408,-5.4236,-5.4425,-5.4201,-5.3632,-5.2839,-5.2528,-5.2425,-5.1476,-5.1533,-5.2101,-5.136,-5.1114,-5.0994,0.0,0.0,0.0,0.0,0.0,0.0,0.0,0.0,0.0,0.0,0.0,0.0,0.0,0.0,0.0,0.0,0.0,0.0,0.0,0.0,0.0,0.0,0.0,0.0,0.0,0.0,0.0,0.0,0.0,0.0,0.0,0.0,0.0,0.0,0.0,0.0,0.0,0.0,0.0,0.0,0.0,0.0,0.0,0.0,0.0,0.0,0.0,0.0,0.0,0.0,0.0,-3.0656,-3.2742,-3.5,-3.7679,-4.1846,0.0,-4.5847,-4.9994,-5.2656,-5.4363,-5.4803,-5.4399,-5.3261,-5.0912,-4.7865,-4.4251,-3.9829,-3.6271,0.0,0.0,0.0,0.0,0.0,0.0,0.0,-5.3759,-5.3873,-5.3589,0.0,-5.4201,0.0,-5.3376,-5.4087,-5.4918,0.0,-5.5608,-5.598,-5.7063,-5.7532,-5.7712,-5.7567,-5.7567,-5.6932,-5.5615,-5.5201,-5.4822,-5.4512,-5.4512,-5.4512,-5.4512,-5.4512,-5.4322,-5.4029,0.0,-5.358,-5.2822,-5.2046,-5.1705,-5.1636,-5.0925,-5.0873,-5.1171,-5.0787,-5.0631,-5.0562,0.0,0.0,0.0,0.0,0.0,0.0,0.0,0.0,0.0,0.0,0.0,0.0,0.0,0.0,0.0,0.0,0.0,0.0,0.0,0.0,0.0,0.0,0.0,0.0,0.0,0.0,0.0,0.0,0.0,0.0,0.0,0.0,0.0,0.0,0.0,0.0,0.0,0.0,0.0,0.0,0.0,0.0,0.0,0.0,0.0,0.0,0.0,0.0,0.0,0.0,-3.3647,-3.5977,-3.7845,-4.0653,-4.3846,-4.6856,-4.8305,-4.9627,-5.2692,-5.462,-5.5721,-5.5633,-5.4399,-5.2289,-4.8783,-4.5296,-4.1177,-3.5511,0.0,-3.2083,-3.1876,-3.3016,-3.5663,-4.0789,0.0,-4.6392,-5.0664,-5.1549,-5.2488,-5.444,-5.4563,-5.4839,-5.5701,-5.5667,-5.5977,-5.6874,-5.6305,-5.6625,-5.8253,-5.8162,-5.8012,-5.7909,-5.7823,-5.7064,-5.56,-5.548,-5.515,-5.4512,-5.4512,-5.4512,-5.4512,-5.4512,-5.4149,-5.3546,-5.3546,-5.3046,-5.2136,-5.1528,-5.12,-5.1045,-5.0407,-5.0149,-5.0149,-5.0149,-5.0097,-5.0011,0.0,0.0,0.0,0.0,0.0,0.0,0.0,0.0,0.0,0.0,-1.7716,-1.8038,0.0,0.0,0.0,0.0,0.0,0.0,0.0,0.0,0.0,0.0,0.0,0.0,0.0,0.0,0.0,0.0,0.0,0.0,0.0,0.0,0.0,0.0,0.0,0.0,0.0,0.0,0.0,0.0,0.0,0.0,0.0,0.0,0.0,0.0,0.0,0.0,0.0,0.0,-3.7008,-3.957,-4.2525,-4.5663,-4.8618,-5.0582,-5.172,-5.2766,-5.4656,-5.5868,-5.6436,-5.5757,-5.4399,-5.1995,-4.737,-4.2573,0.0,0.0,-3.1302,-3.0291,-3.1711,-3.3602,0.0,-4.2947,0.0,0.0,0.0,0.0,-5.366,0.0,0.0,0.0,0.0,0.0,0.0,0.0,0.0,-5.7649,-5.7959,-5.8512,-5.853,-5.7926,-5.7305,-5.6546,-5.5615,-5.5012,-5.4632,-5.4512,-5.4512,-5.4512,-5.4512,-5.4512,-5.4443,-5.4322,-5.4322,0.0,-5.217,-5.205,-5.1636,-5.1097,-5.0976,-5.0925,-5.0925,-5.0925,-5.0528,-5.0011,0.0,0.0,0.0,0.0,0.0,0.0,0.0,-1.7039,-1.78,-1.806,-1.8401,-1.8998,-2.0058,-1.986,-1.9926,0.0,0.0,0.0,0.0,0.0,0.0,0.0,0.0,0.0,0.0,0.0,0.0,0.0,0.0,0.0,0.0,0.0,0.0,0.0,0.0,0.0,0.0,0.0,0.0,0.0,0.0,0.0,0.0,0.0,0.0,0.0,0.0,0.0,0.0,0.0,-3.5555,-3.9512,-4.4415,-4.8177,-5.0949,-5.1756,-5.3151,-5.462,-5.5372,-5.6492,-5.7157,-5.6085,-5.3707,-5.0201,-4.4663,0.0,0.0,0.0,-2.9919,-3.0018,-3.239,0.0,0.0,0.0,0.0,0.0,0.0,0.0,0.0,0.0,0.0,0.0,0.0,0.0,0.0,0.0,0.0,-5.8081,-5.8461,-5.8443,-5.8271,-5.7926,-5.6788,-5.5995,-5.5615,-5.4874,-5.4512,-5.4512,-5.4512,-5.4512,-5.4512,-5.4512,-5.4305,-5.3942,-5.3942,-5.3287,-5.2188,-5.2188,-5.1981,-5.1653,-5.1653,-5.1653,-5.1653,-5.1653,-5.1459,-5.1149,0.0,0.0,0.0,0.0,0.0,0.0,0.0,-1.723,-1.8057,-1.843,-1.9411,-2.0227,-2.0652,-2.0702,-2.0752,0.0,0.0,0.0,0.0,0.0,0.0,0.0,0.0,0.0,0.0,0.0,0.0,0.0,0.0,0.0,0.0,0.0,0.0,0.0,0.0,0.0,0.0,0.0,0.0,0.0,0.0,0.0,0.0,0.0,0.0,0.0,0.0,0.0,0.0,0.0,-3.3211,-3.7679,-4.3261,-4.7498,-5.0527,-5.1059,-5.2931,-5.4946,-5.5518,-5.6699,-5.7405,-5.5721,-5.2627,-4.8352,-4.2018,-3.7737,0.0,0.0,-2.9147,-3.0203,-3.3036,0.0,0.0,0.0,0.0,0.0,0.0,0.0,0.0,0.0,0.0,0.0,0.0,0.0,0.0,0.0,0.0,0.0,-5.8754,-5.8219,-5.7754,-5.7426,-5.6236,-5.5497,-5.5374,-5.4805,-5.4512,-5.4512,-5.4512,-5.4512,-5.4512,-5.4512,-5.4184,-5.3649,-5.3649,-5.3201,-5.2477,-5.2477,-5.2477,-5.2477,-5.2477,-5.2477,-5.2477,-5.2477,-5.2356,-5.2188,0.0,0.0,0.0,0.0,0.0,0.0,0.0,-1.7818,-1.8923,-1.956,-2.0766,-2.1381,-2.0768,-2.0702,-2.0967,0.0,0.0,0.0,0.0,0.0,0.0,0.0,0.0,0.0,0.0,0.0,0.0,0.0,0.0,0.0,0.0,0.0,0.0,0.0,0.0,0.0,0.0,0.0,0.0,0.0,0.0,0.0,0.0,0.0,0.0,0.0,0.0,0.0,0.0,0.0,0.0,-3.4632,-3.7421,-4.1557,-4.581,-4.8012,0.0,0.0,-5.5243,-5.652,-5.6523,-5.3785,-5.1182,-4.7459,-4.0508,0.0,0.0,-3.0015,-2.9372,-3.03,-3.2931,-3.263,0.0,0.0,0.0,0.0,0.0,0.0,0.0,0.0,0.0,0.0,0.0,0.0,0.0,0.0,0.0,0.0,-5.803,-5.7943,-5.7271,-5.5874,-5.5652,-5.5288,-5.4615,-5.4546,-5.4512,-5.4512,-5.4512,-5.4512,-5.4512,-5.4512,-5.4477,-5.4408,-5.4408,-5.3994,0.0,-5.3287,-5.3287,-5.3287,-5.3287,-5.3287,-5.3287,-5.3287,-5.2839,-5.2188,0.0,0.0,0.0,0.0,0.0,0.0,-1.5995,-1.7589,-1.8847,-1.9162,-2.0715,-2.1696,-2.1398,-2.0967,-2.0818,-2.1116,0.0,0.0,0.0,0.0,0.0,0.0,0.0,0.0,0.0,0.0,0.0,0.0,0.0,0.0,0.0,0.0,0.0,0.0,0.0,0.0,0.0,0.0,0.0,0.0,0.0,0.0,0.0,0.0,0.0,0.0,0.0,0.0,0.0,0.0,0.0,0.0,-3.1323,-3.3959,0.0,0.0,-4.6465,-5.0228,-5.128,-5.4042,-5.6027,-5.3602,-5.0529,-4.6448,-4.0087,0.0,0.0,-3.0013,-2.9467,-3.0093,-3.2069,-3.2082,-3.2386,0.0,0.0,0.0,0.0,0.0,0.0,0.0,0.0,0.0,0.0,0.0,0.0,0.0,0.0,0.0,-5.6564,-5.6978,-5.6736,-5.5617,-5.5184,-5.4805,-5.4512,-5.4512,-5.4512,-5.4512,-5.4512,-5.4512,-5.4512,-5.4512,-5.4512,-5.4512,-5.4512,-5.4339,0.0,-5.4063,-5.4063,-5.4063,-5.4063,-5.4063,-5.4063,-5.4063,-5.3873,-5.3598,0.0,0.0,0.0,0.0,0.0,-1.564,-1.6009,-1.7402,-1.8514,-1.8851,-2.0205,-2.1151,-2.1151,-2.0688,-2.0456,-2.0685,-2.1166,0.0,0.0,0.0,0.0,0.0,0.0,0.0,0.0,0.0,0.0,0.0,0.0,0.0,0.0,0.0,0.0,0.0,0.0,0.0,0.0,0.0,0.0,0.0,0.0,0.0,0.0,0.0,0.0,0.0,0.0,0.0,0.0,0.0,0.0,0.0,0.0,0.0,0.0,0.0,-4.1994,-4.6256,-4.7705,-5.1164,-5.3903,-5.1994,-4.8968,-4.4984,0.0,0.0,0.0,-3.0282,-2.9851,-3.0248,-3.1558,-3.18,-3.18,0.0,0.0,0.0,0.0,0.0,0.0,0.0,0.0,0.0,0.0,0.0,0.0,0.0,0.0,0.0,-5.5339,-5.6029,-5.6098,-5.5322,-5.4787,-5.4512,-5.4512,-5.4512,-5.4512,-5.4512,-5.4512,-5.4512,-5.4512,-5.4512,-5.4512,-5.4512,-5.4512,-5.4512,0.0,-5.4512,-5.4512,-5.4512,-5.4512,-5.4512,-5.4512,-5.4512,-5.4512,-5.4512,0.0,0.0,0.0,0.0,0.0,0.0,-1.7012,-1.748,-1.8041,-1.8974,-1.9394,-1.9617,-1.9617,-1.9617,-1.9912,-2.0635,-2.0702,0.0,0.0,0.0,0.0,0.0,0.0,0.0,0.0,0.0,-2.3122,-2.4988,-2.5339,0.0,0.0,0.0,0.0,0.0,0.0,0.0,0.0,0.0,0.0,0.0,0.0,0.0,0.0,0.0,0.0,0.0,0.0,0.0,0.0,0.0,0.0,0.0,0.0,0.0,0.0,0.0,-3.7106,-4.0474,-4.5379,-4.8215,-4.9433,-4.809,-4.6036,-4.293,0.0,0.0,0.0,-3.0989,-3.0697,-3.0903,-3.1662,-3.18,-3.18,-3.18,0.0,0.0,0.0,0.0,0.0,0.0,0.0,0.0,0.0,0.0,0.0,0.0,0.0,0.0,-5.4598,-5.5219,-5.5288,-5.4546,-5.4512,-5.4512,-5.4512,-5.4512,-5.4512,-5.4512,-5.4512,-5.4512,-5.4512,-5.4512,-5.4512,-5.4512,0.0,-5.4512,0.0,-5.4512,-5.4512,-5.4512,-5.4512,-5.4512,-5.4512,-5.4512,-5.4512,-5.4512,0.0,0.0,0.0,0.0,0.0,0.0,0.0,-1.7453,-1.8174,-1.9722,-1.9731,-1.9796,-2.029,-1.9449,-1.9151,-1.9879,-2.0406,0.0,0.0,0.0,0.0,0.0,0.0,0.0,0.0,0.0,-2.4562,-2.6156,-2.6823,-2.7602,-2.8471,-2.8536,0.0,0.0,0.0,0.0,0.0,0.0,0.0,0.0,0.0,0.0,0.0,0.0,0.0,0.0,0.0,0.0,0.0,0.0,0.0,0.0,0.0,0.0,0.0,0.0,0.0,0.0,-3.9221,-4.2125,-4.4339,-4.3905,-4.2457,-4.0164,-3.6404,0.0,0.0,-3.0989,-3.0714,-3.0938,-3.1662,-3.18,-3.18,-3.18,-3.18,0.0,0.0,0.0,0.0,0.0,0.0,0.0,0.0,0.0,0.0,0.0,0.0,0.0,-5.4529,-5.4736,-5.4753,-5.4512,-5.4512,-5.4512,-5.4512,-5.4512,-5.4512,-5.4512,-5.4512,-5.4512,-5.4512,-5.4512,-5.4512,0.0,0.0,0.0,0.0,-5.4512,-5.4512,-5.4512,-5.4512,-5.4512,-5.4512,-5.4512,-5.4512,-5.4512,0.0,0.0,0.0,0.0,0.0,0.0,0.0,-1.7872,-1.8505,-1.9864,-1.9783,-1.9766,-2.024,-1.9217,-1.8803,-1.9535,-1.9763,0.0,0.0,0.0,0.0,0.0,0.0,0.0,0.0,-2.3769,-2.4782,-2.6278,-2.7038,-2.7712,-2.8291,-2.8466,-2.8574,-2.86,0.0,0.0,0.0,0.0,0.0,0.0,0.0,0.0,-2.86,0.0,0.0,0.0,0.0,0.0,0.0,0.0,0.0,0.0,0.0,0.0,0.0,0.0,-2.9769,0.0,0.0,-3.7422,-3.9491,-3.9767,-3.8698,0.0,0.0,0.0,0.0,0.0,-3.111,-3.1248,-3.1714,-3.18,-3.18,-3.18,0.0,0.0,0.0,0.0,0.0,0.0,0.0,0.0,0.0,0.0,0.0,0.0,0.0,0.0,-5.4512,-5.4512,-5.4512,-5.4512,-5.4512,-5.4512,-5.4512,-5.4512,-5.4512,-5.4512,-5.4512,-5.4512,-5.4512,-5.4512,-5.4512,0.0,0.0,0.0,0.0,-5.4512,-5.4512,-5.4512,-5.4512,-5.4512,-5.4512,-5.4512,-5.4512,-5.4512,0.0,0.0,0.0,0.0,0.0,0.0,0.0,-1.8619,-1.893,-1.9624,-1.9637,-1.9601,-1.9601,-1.8939,-1.877,-1.9386,0.0,0.0,0.0,0.0,0.0,0.0,0.0,0.0,0.0,-2.3095,-2.4,-2.5569,-2.6257,-2.7021,-2.7897,-2.8291,-2.8505,-2.8574,-2.8587,0.0,0.0,0.0,0.0,0.0,0.0,0.0,0.0,0.0,0.0,0.0,0.0,0.0,0.0,0.0,0.0,0.0,0.0,0.0,0.0,0.0,0.0,0.0,0.0,0.0,0.0,0.0,0.0,0.0,0.0,0.0,0.0,0.0,0.0,0.0,0.0,0.0,-3.18,-3.18,0.0,0.0,0.0,0.0,0.0,0.0,0.0,0.0,0.0,0.0,0.0,0.0,0.0,0.0,-5.4512,-5.4512,-5.4512,-5.4512,-5.4512,-5.4512,-5.4512,-5.4512,-5.4512,-5.4512,-5.4512,-5.4512,-5.4512,-5.4512,-5.4512,0.0,0.0,0.0,0.0,-5.4512,-5.4512,-5.4512,-5.4512,-5.4512,-5.4512,-5.4512,-5.4512,-5.4512,0.0,0.0,0.0,0.0,0.0,0.0,0.0,0.0,0.0,0.0,-2.008,-1.9601,-1.9601,-1.8939,-1.8356,0.0,0.0,0.0,0.0,0.0,0.0,0.0,0.0,0.0,0.0,-2.2494,-2.3434,-2.5288,-2.6008,-2.6836,-2.7742,-2.8051,-2.8201,-2.8228,-2.8492,-2.86,0.0,0.0,0.0,0.0,0.0,0.0,0.0,0.0,0.0,0.0,-2.8518,-2.8453,0.0,0.0,0.0,0.0,0.0,0.0,0.0,0.0,-2.7742,-2.8229,-2.8622,0.0,-3.0179,-3.092,0.0,0.0,0.0,0.0,0.0,0.0,0.0,0.0,0.0,0.0,0.0,0.0,0.0,0.0,0.0,0.0,0.0,0.0,0.0,0.0,0.0,0.0,0.0,0.0,0.0,-5.4512,-5.4512,-5.4512,-5.4512,-5.4512,-5.4512,-5.4512,-5.4512,-5.4512,-5.4512,-5.4512,-5.4512,-5.4512,-5.4512,-5.4512,-5.4512,0.0,0.0,0.0,-5.4512,-5.4512,-5.4512,-5.4512,-5.4512,-5.4512,-5.4512,-5.4512,-5.4512,-5.448,0.0,0.0,0.0,0.0,0.0,0.0,0.0,0.0,0.0,0.0,0.0,0.0,0.0,0.0,0.0,0.0,0.0,0.0,0.0,0.0,0.0,0.0,0.0,0.0,-2.2559,-2.2897,-2.3786,-2.5193,-2.6115,-2.6931,-2.7622,-2.795,-2.817,-2.8339,-2.8352,-2.8365,0.0,0.0,0.0,0.0,-2.817,0.0,0.0,0.0,0.0,0.0,-2.8197,-2.8115,0.0,-2.8847,-2.9208,-2.9353,0.0,0.0,0.0,0.0,-2.8351,-2.8385,-2.8334,-2.8351,-2.8506,-2.8903,-2.9575,-3.0248,0.0,0.0,0.0,0.0,0.0,0.0,0.0,0.0,0.0,0.0,0.0,0.0,0.0,0.0,0.0,0.0,0.0,0.0,0.0,0.0,0.0,0.0,0.0,-5.4512,-5.4512,-5.4512,-5.4512,-5.4512,-5.4512,-5.4512,-5.4512,-5.4512,-5.4512,-5.4512,-5.4512,-5.4512,-5.4512,-5.4512,-5.4512,0.0,0.0,0.0,-5.4512,-5.4512,-5.4512,-5.4512,-5.4512,-5.4431,-5.4367,-5.4367,-5.4303,-5.4257,0.0,0.0,0.0,0.0,0.0,0.0,0.0,0.0,0.0,0.0,0.0,0.0,0.0,0.0,0.0,0.0,0.0,0.0,0.0,0.0,0.0,0.0,0.0,-2.1864,-2.2708,-2.3354,-2.4148,-2.5063,-2.6079,-2.6857,-2.7374,-2.771,-2.8081,-2.8453,-2.8215,-2.8102,0.0,0.0,0.0,0.0,-2.8006,0.0,0.0,0.0,0.0,0.0,0.0,0.0,0.0,-2.8611,-2.9169,-2.9523,-2.9644,0.0,0.0,0.0,0.0,0.0,-2.9334,-2.9041,-2.8575,-2.8575,-2.9127,-2.9868,0.0,0.0,0.0,0.0,0.0,0.0,0.0,0.0,0.0,0.0,0.0,0.0,0.0,0.0,0.0,0.0,0.0,0.0,0.0,0.0,0.0,0.0,0.0,-5.4512,-5.4512,-5.4512,-5.4512,-5.4512,-5.4512,-5.4512,-5.4512,-5.4512,-5.4512,-5.4512,-5.4512,-5.4448,-5.4367,-5.4367,-5.4367,-5.4367,0.0,0.0,-5.4512,-5.4512,-5.4512,-5.4512,-5.4512,-5.4367,-5.419,-5.419,-5.411,-5.3997,0.0,0.0,0.0,0.0,0.0,0.0,0.0,0.0,0.0,0.0,0.0,0.0,0.0,0.0,0.0,0.0,0.0,0.0,0.0,0.0,0.0,0.0,-1.9879,-2.0574,-2.1945,-2.2185,-2.3009,-2.4442,-2.49,-2.5707,-2.6824,-2.678,-2.7137,-2.7861,-2.802,-2.8102,-2.8088,-2.7855,-2.7897,-2.8061,-2.7547,0.0,0.0,0.0,0.0,0.0,0.0,0.0,0.0,-2.8984,-2.9437,-2.9627,-3.03,0.0,0.0,0.0,0.0,0.0,-2.9472,-2.942,-2.9334,-2.9334,-2.992,-3.0559,0.0,0.0,0.0,0.0,0.0,0.0,0.0,0.0,0.0,0.0,0.0,0.0,0.0,0.0,0.0,0.0,0.0,0.0,0.0,0.0,0.0,0.0,0.0,-5.4512,-5.4512,-5.4512,-5.4512,-5.4512,-5.4512,-5.4512,-5.4512,-5.4512,-5.4512,-5.4512,-5.4512,-5.4271,-5.3816,-5.3816,-5.3816,-5.3816,0.0,-5.4078,-5.4512,-5.4512,-5.4512,-5.4512,-5.4512,-5.4367,-5.419,-5.419,-5.411,-5.398,0.0,0.0,0.0,0.0,0.0,0.0,0.0,0.0,0.0,0.0,0.0,0.0,0.0,0.0,0.0,0.0,0.0,0.0,0.0,0.0,0.0,-2.1319,-2.1369,-2.1516,-2.1781,-2.2684,-2.3494,-2.4258,-2.4477,-2.519,-2.6389,-2.6902,-2.7419,-2.7926,-2.7897,-2.7883,-2.7869,-2.7742,-2.7669,-2.7592,0.0,0.0,0.0,0.0,0.0,0.0,0.0,0.0,0.0,0.0,-2.9455,-3.0213,-3.0575,0.0,0.0,0.0,0.0,0.0,-3.0144,-3.0144,-3.0334,-3.1145,-3.1317,0.0,0.0,0.0,0.0,0.0,0.0,0.0,0.0,0.0,0.0,0.0,0.0,0.0,0.0,0.0,0.0,0.0,0.0,0.0,0.0,0.0,0.0,0.0,0.0,0.0,-5.4512,-5.4512,-5.4512,-5.4512,-5.4512,-5.4367,-5.4078,-5.4078,-5.4078,-5.4078,-5.3749,-5.3466,-5.323,-5.3567,-5.37,-5.3717,0.0,-5.411,-5.4078,-5.4367,-5.4271,-5.3946,-5.4222,-5.4175,-5.3898,-5.3866,-5.3767,-5.3718,0.0,0.0,0.0,0.0,0.0,0.0,0.0,0.0,0.0,0.0,0.0,0.0,0.0,0.0,0.0,0.0,0.0,0.0,0.0,0.0,-2.0359,-2.2062,-2.2791,-2.2906,-2.2341,-2.3515,-2.4162,-2.4258,-2.4263,-2.4739,-2.5675,-2.6966,-2.7593,-2.7614,-2.7669,-2.7657,-2.758,-2.758,-2.7533,-2.7455,0.0,0.0,0.0,0.0,0.0,0.0,0.0,0.0,0.0,0.0,0.0,0.0,0.0,0.0,0.0,-3.18,-3.1145,-3.0489,-3.0851,-3.0679,-3.0765,-3.2265,0.0,0.0,0.0,0.0,0.0,0.0,0.0,0.0,0.0,0.0,0.0,0.0,0.0,0.0,0.0,0.0,0.0,0.0,0.0,0.0,0.0,0.0,0.0,0.0,0.0,0.0,-5.4512,-5.4512,-5.4512,-5.4512,-5.4367,-5.411,-5.37,-5.3433,-5.3349,-5.3483,-5.3025,-5.2802,-5.2802,-5.3128,-5.3382,-5.3517,-5.3913,-5.3963,-5.3733,-5.4239,-5.4093,-5.3633,-5.3996,-5.3963,-5.3684,-5.3551,-5.3501,-5.3501,0.0,0.0,0.0,0.0,0.0,0.0,0.0,0.0,0.0,0.0,0.0,0.0,0.0,0.0,0.0,0.0,0.0,0.0,0.0,0.0,-1.9667,-1.9832,-2.246,-2.3934,-2.3915,-2.4095,-2.4258,-2.4386,-2.402,-2.4002,-2.4388,-2.6331,-2.6849,-2.6193,-2.7235,-2.7537,-2.7228,-2.7228,-2.7609,-2.8215,-2.8015,0.0,0.0,0.0,0.0,0.0,0.0,0.0,0.0,0.0,0.0,0.0,0.0,0.0,-3.18,-3.18,-3.0748,-2.9903,-3.1334,-3.0679,-2.9972,-3.1489,0.0,0.0,0.0,0.0,0.0,0.0,0.0,0.0,0.0,0.0,0.0,0.0,0.0,0.0,0.0,0.0,0.0,0.0,0.0,0.0,0.0,0.0,0.0,0.0,0.0,0.0,-5.4512,-5.4512,-5.4512,-5.4512,-5.4013,-5.3733,-5.37,-5.2627,-5.2381,-5.2871,-5.2836,-5.2802,-5.2802,-5.2345,-5.2381,-5.2871,-5.2905,-5.323,-5.375,-5.4061,-5.419,-5.4126,-5.4045,-5.3882,-5.3684,-5.3551,-5.3501,-5.3501,0.0,0.0,0.0,0.0,0.0,0.0,0.0,0.0,0.0,0.0,0.0,0.0,0.0,0.0,0.0,0.0,0.0,0.0,0.0,0.0,-2.0011,-2.0936,-2.2924,-2.4066,-2.4145,-2.4177,-2.4056,-2.3712,-2.3602,-2.3608,-2.3741,-2.542,-2.6149,-2.6109,-2.6991,-2.7322,-2.7197,-2.7197,-2.724,-2.7351,-2.7725,-2.8099,0.0,0.0,0.0,0.0,0.0,0.0,0.0,0.0,-2.9799,-3.0714,0.0,-3.1196,-3.18,-3.18,-3.1386,-3.0955,-3.1076,-3.1714,-3.261,-3.3645,0.0,0.0,0.0,0.0,0.0,0.0,0.0,0.0,0.0,0.0,0.0,0.0,0.0,0.0,0.0,0.0,0.0,0.0,0.0,0.0,0.0,0.0,0.0,0.0,0.0,0.0,-5.4512,-5.408,-5.3679,-5.3342,-5.2673,-5.1996,-5.1327,-5.1328,-5.124,-5.1129,-5.1589,-5.1802,-5.1802,-5.1931,-5.2095,-5.2345,-5.306,-5.3247,-5.3076,-5.3848,-5.3865,-5.3399,-5.3601,-5.3651,-5.3584,-5.3534,-5.3501,-5.3501,0.0,0.0,0.0,0.0,0.0,0.0,0.0,0.0,0.0,0.0,0.0,0.0,0.0,0.0,0.0,0.0,0.0,0.0,0.0,-1.8853,-1.9697,-2.0704,-2.2193,-2.3167,-2.3523,-2.3789,-2.3733,-2.3336,-2.3378,-2.3318,-2.3232,-2.4951,-2.574,-2.5779,-2.699,-2.7494,-2.7414,-2.7654,-2.7777,-2.7807,-2.8403,-2.8813,0.0,0.0,0.0,0.0,0.0,0.0,0.0,0.0,-2.9834,0.0,0.0,0.0,0.0,0.0,-3.1627,-3.1386,-3.111,-3.237,-3.3886,0.0,0.0,0.0,0.0,0.0,0.0,0.0,0.0,0.0,0.0,0.0,0.0,0.0,0.0,0.0,0.0,0.0,0.0,0.0,0.0,0.0,0.0,0.0,0.0,0.0,0.0,0.0,0.0,-5.3442,-5.2794,-5.2252,-5.1598,-5.0857,-5.0138,-5.0484,-5.054,-5.0355,-5.0939,-5.128,-5.145,-5.1655,-5.1858,-5.2059,-5.2957,-5.2922,-5.2326,-5.355,-5.3684,-5.3127,-5.3382,-5.3501,-5.3501,-5.3501,-5.3501,-5.3501,0.0,0.0,0.0,0.0,0.0,0.0,0.0,0.0,0.0,0.0,0.0,0.0,0.0,0.0,0.0,0.0,0.0,0.0,-1.7503,-1.8137,-1.8505,-1.8505,-1.998,-2.1211,-2.2094,-2.2906,-2.3336,-2.3393,-2.3393,-2.3147,-2.275,-2.502,-2.5661,-2.5011,-2.7267,-2.8117,-2.7858,-2.8653,-2.9414,-3.0127,-3.0316,-3.0834,-3.15,0.0,0.0,0.0,0.0,0.0,0.0,0.0,-2.9437,-3.0558,0.0,0.0,0.0,0.0,-3.1282,-3.0904,-3.161,-3.2369,0.0,0.0,0.0,0.0,0.0,0.0,0.0,0.0,0.0,0.0,0.0,0.0,0.0,0.0,0.0,0.0,0.0,0.0,0.0,0.0,0.0,0.0,0.0,0.0,0.0,0.0,0.0,0.0,0.0,-5.2649,-5.197,-5.1486,-5.0889,-5.0576,-5.0576,-5.0255,-5.0359,-5.0897,-5.1071,-5.1487,-5.1951,-5.145,-5.1487,-5.2023,-5.2433,-5.2131,-5.1533,-5.306,-5.3601,-5.3467,-5.3501,-5.3501,-5.3501,-5.3501,-5.3501,-5.3501,0.0,0.0,0.0,0.0,0.0,0.0,0.0,0.0,0.0,0.0,0.0,0.0,0.0,0.0,0.0,0.0,0.0,0.0,-1.7503,-1.8137,-1.8505,-1.8505,-2.0475,-2.1976,-2.285,-2.3708,-2.3902,-2.3393,-2.2885,-2.2573,-2.247,-2.4168,-2.5122,-2.5465,-2.7182,-2.82,-2.8671,-2.8947,-2.9203,-2.9458,-3.0131,-3.0564,-3.086,0.0,0.0,0.0,0.0,0.0,0.0,0.0,0.0,0.0,0.0,0.0,0.0,-3.18,-3.2403,-3.3147,-3.3371,0.0,0.0,0.0,0.0,0.0,0.0,0.0,0.0,0.0,0.0,0.0,0.0,0.0,0.0,0.0,0.0,0.0,0.0,0.0,0.0,0.0,0.0,0.0,0.0,0.0,0.0,0.0,0.0,0.0,0.0,-5.1856,-5.1197,-5.0686,-4.9989,-4.9278,-4.8547,-4.8936,-4.9281,-4.9554,-4.9844,-5.0494,-5.1413,-5.0924,-5.1151,-5.1871,-5.2043,-5.2222,-5.2449,-5.2626,-5.2362,-5.1862,-5.2449,-5.2642,-5.2712,-5.328,-5.3501,-5.3501,0.0,0.0,0.0,0.0,0.0,0.0,0.0,0.0,0.0,0.0,0.0,0.0,0.0,0.0,0.0,0.0,0.0,0.0,0.0,0.0,-1.8104,-1.8104,-1.9734,-2.1315,-2.2807,-2.3635,-2.4,-2.3848,-2.3105,-2.2584,-2.233,-2.4103,-2.5017,-2.5236,-2.7012,-2.8247,-2.901,-2.9353,-2.9678,-2.9949,-3.0266,-3.0597,-3.0928,0.0,0.0,0.0,0.0,0.0,0.0,0.0,0.0,0.0,0.0,0.0,0.0,-3.18,-3.2886,-3.4113,-3.4113,0.0,0.0,0.0,0.0,0.0,0.0,0.0,0.0,0.0,0.0,0.0,0.0,0.0,0.0,0.0,0.0,0.0,0.0,0.0,0.0,0.0,0.0,0.0,0.0,0.0,0.0,0.0,0.0,0.0,0.0,-5.108,-5.0424,-4.9872,-4.9447,-4.8903,-4.829,-4.858,-4.8785,-4.8968,-4.9066,-4.94,-4.9892,-5.0169,-5.0541,-5.1038,-5.1273,-5.2023,-5.3093,-5.2537,-5.1987,-5.1659,-5.2449,-5.2572,-5.2378,-5.3212,-5.3501,-5.3501,0.0,0.0,0.0,0.0,0.0,0.0,0.0,0.0,0.0,0.0,0.0,0.0,0.0,0.0,0.0,0.0,0.0,0.0,0.0,0.0,-1.7519,-1.7586,-1.8501,-2.0034,-2.2245,-2.3021,-2.3729,-2.4406,-2.3729,-2.3088,-2.255,-2.4629,-2.527,-2.4795,-2.6945,-2.8349,-2.9145,-2.9907,-3.0601,-3.1198,-3.0726,-3.0919,-3.1451,-3.0986,0.0,0.0,0.0,0.0,0.0,0.0,0.0,0.0,0.0,0.0,-3.18,-3.18,-3.2886,-3.413,0.0,0.0,0.0,0.0,0.0,0.0,0.0,0.0,0.0,0.0,0.0,0.0,0.0,0.0,0.0,0.0,0.0,0.0,0.0,0.0,0.0,0.0,0.0,0.0,0.0,0.0,0.0,0.0,0.0,0.0,0.0,-5.0343,-4.9772,-4.9286,-4.9256,-4.9226,-4.9178,-4.8827,-4.8677,-4.8794,-4.8469,-4.8137,-4.7893,-4.9196,-4.9836,-5.0041,-5.057,-5.1749,-5.3314,-5.2607,-5.2272,-5.2272,-5.3093,-5.2938,-5.2378,-5.3212,-5.3501,-5.3501,0.0,0.0,0.0,0.0,0.0,0.0,0.0,0.0,0.0,0.0,0.0,0.0,0.0,0.0,0.0,0.0,0.0,0.0,0.0,0.0,-1.7735,-1.8257,-2.0271,-2.1647,-2.2296,-2.3021,-2.3477,-2.3644,-2.3477,-2.3613,0.0,0.0,0.0,-2.6302,0.0,-2.9161,-2.9922,-3.0821,-3.1287,-3.1443,-3.1479,-3.1534,-3.1579,-3.1445,-3.1498,0.0,0.0,0.0,0.0,0.0,0.0,0.0,-3.1558,-3.1662,-3.18,-3.18,-3.2886,0.0,0.0,0.0,0.0,0.0,0.0,0.0,0.0,0.0,0.0,0.0,0.0,0.0,0.0,0.0,0.0,0.0,0.0,0.0,0.0,0.0,0.0,0.0,0.0,0.0,0.0,0.0,0.0,0.0,0.0,0.0,-5.0252,-4.9946,-4.9784,-4.983,-4.9679,-4.9411,-4.9063,-4.8392,-4.8082,0.0,-4.7135,-4.6946,-4.7472,-4.8336,-4.9505,-5.0916,-5.2271,-5.2764,-5.2537,-5.2378,-5.1931,-5.1459,-5.2255,-5.2449,-5.2378,-5.3212,-5.3501,-5.3501,0.0,0.0,0.0,0.0,0.0,0.0,0.0,0.0,0.0,0.0,0.0,0.0,0.0,0.0,0.0,0.0,0.0,0.0,0.0,0.0,0.0,-1.9118,-2.074,-2.1841,-2.2296,-2.3021,-2.3577,-2.3932,-2.4272,0.0,0.0,0.0,0.0,-2.5743,0.0,-2.8856,-2.9636,-3.0476,-3.1023,-3.1349,-3.1126,-3.1233,-3.1524,-3.1202,-3.1326,-3.169,-3.169,0.0,0.0,0.0,0.0,0.0,0.0,0.0,-3.18,-3.18,-3.2886,-3.4404,0.0,0.0,0.0,0.0,0.0,0.0,0.0,0.0,0.0,0.0,0.0,0.0,0.0,0.0,0.0,0.0,0.0,0.0,0.0,0.0,0.0,0.0,0.0,0.0,0.0,0.0,0.0,0.0,0.0,-4.9964,-4.986,-4.9755,-4.9725,-4.9772,-4.9666,-4.9303,-4.8702,-4.8433,-4.7836,-4.6924,-4.6813,-4.7057,-4.7621,-4.8302,-4.9729,-5.1711,-5.258,-5.2903,-5.2868,-5.2868,-5.2414,-5.1753,-5.2572,-5.2642,-5.2378,-5.3212,-5.3501,-5.3501,0.0,0.0,0.0,0.0,0.0,0.0,0.0,0.0,0.0,0.0,0.0,0.0,0.0,0.0,0.0,0.0,0.0,0.0,0.0,0.0,0.0,0.0,-2.0857,-2.1616,-2.2279,-2.3021,-2.3763,-2.4491,0.0,0.0,0.0,0.0,0.0,-2.5168,0.0,-2.8383,-2.9061,-2.9941,-3.0651,-3.1162,-3.0647,-3.0842,-3.1393,-3.0855,-3.1102,-3.1744,-3.1744,-3.1763,-3.18,-3.18,0.0,0.0,0.0,0.0,-3.18,-3.18,-3.2697,-3.4044,0.0,0.0,0.0,0.0,0.0,0.0,0.0,0.0,0.0,0.0,0.0,0.0,0.0,0.0,0.0,0.0,0.0,0.0,0.0,0.0,0.0,0.0,0.0,0.0,0.0,0.0,0.0,0.0,0.0,-4.986,-4.9708,-4.9649,-4.959,-4.9518,-4.9458,-4.9152,-4.8543,-4.8591,-4.7803,-4.624,-4.6949,-4.7588,-4.81,-4.8607,-5.0038,-5.2119,-5.2235,-5.2751,-5.3501,-5.3501,-5.3093,-5.2572,-5.3246,-5.3093,-5.2572,-5.3246,-5.3501,-5.3501,0.0,0.0,0.0,0.0,0.0,0.0,0.0,0.0,0.0,0.0,0.0,0.0,0.0,0.0,0.0,0.0,0.0,0.0,0.0,0.0,0.0,-2.0826,-2.1617,-2.2124,-2.2296,-2.3021,-2.3763,0.0,0.0,0.0,0.0,0.0,0.0,-2.7401,0.0,0.0,-2.9077,-3.0525,-3.1191,-3.1295,-3.1321,-3.1321,-3.1315,-3.1232,-3.134,-3.1536,-3.1536,-3.1651,-3.18,-3.18,-3.18,0.0,0.0,0.0,-3.18,-3.18,-3.1955,0.0,0.0,0.0,0.0,0.0,0.0,0.0,0.0,0.0,0.0,0.0,0.0,0.0,0.0,0.0,0.0,0.0,0.0,0.0,0.0,0.0,0.0,0.0,0.0,0.0,0.0,0.0,0.0,0.0,-4.983,-4.9737,-4.9708,-4.9411,-4.935,-4.9488,-4.932,-4.9199,-4.909,-4.8511,-4.7998,-4.7638,-4.7119,-4.7581,-4.8862,-4.8942,-4.9842,-5.1375,-5.1999,-5.2758,-5.3501,-5.3501,-5.3433,-5.3348,-5.3467,-5.3433,-5.3348,-5.3467,-5.3501,-5.3501,0.0,0.0,0.0,0.0,0.0,0.0,0.0,0.0,0.0,0.0,0.0,0.0,0.0,0.0,0.0,0.0,0.0,0.0,0.0,0.0,0.0,-2.0991,-2.1768,-2.2242,-2.2296,-2.3441,-2.4186,0.0,0.0,0.0,0.0,-2.6319,-2.6268,0.0,0.0,0.0,0.0,0.0,0.0,-3.1252,-3.1308,0.0,0.0,-3.1142,-3.0878,-3.0372,-3.1191,-3.1321,-3.1124,-3.1535,-3.1727,-3.18,-3.18,0.0,0.0,0.0,-3.18,0.0,0.0,0.0,0.0,0.0,0.0,0.0,0.0,0.0,0.0,0.0,0.0,0.0,0.0,0.0,0.0,0.0,0.0,0.0,0.0,0.0,0.0,0.0,0.0,0.0,0.0,0.0,0.0,0.0,-4.9119,-4.8814,-4.8211,-4.8422,-4.857,-4.8604,-4.8514,-4.847,-4.848,-4.8157,-4.8174,-4.8513,-4.7754,-4.7968,-4.8999,-4.8999,-4.9798,-5.1251,-5.1995,-5.2503,-5.2858,-5.3315,-5.3501,-5.3501,-5.3501,-5.3501,-5.3501,-5.3501,-5.3501,-5.3501,0.0,0.0,0.0,0.0,0.0,0.0,0.0,0.0,0.0,0.0,0.0,0.0,0.0,0.0,0.0,0.0,0.0,0.0,0.0,0.0,0.0,-2.1242,-2.1869,-2.2327,-2.2567,-2.3848,0.0,0.0,0.0,0.0,-2.7486,-2.6015,-2.5524,0.0,-2.7232,0.0,0.0,0.0,0.0,0.0,0.0,0.0,0.0,0.0,-3.0379,-2.9688,-3.0798,-3.1045,-3.0863,-3.1409,-3.169,-3.18,-3.1746,-3.1764,0.0,0.0,0.0,0.0,0.0,0.0,0.0,0.0,0.0,0.0,0.0,0.0,0.0,0.0,0.0,0.0,0.0,0.0,0.0,0.0,0.0,0.0,0.0,0.0,0.0,0.0,0.0,0.0,0.0,0.0,0.0,0.0,-4.8232,-4.7831,-4.7037,-4.75,-4.7717,-4.7631,-4.7631,-4.7625,-4.7611,-4.7827,-4.8291,-4.9001,-4.845,-4.8482,-4.9001,-4.9001,-4.961,-5.0693,-5.142,-5.186,-5.208,-5.2875,-5.3196,-5.3213,-5.3416,-5.3501,-5.3501,-5.3501,-5.3501,-5.3501,0.0,0.0,0.0,0.0,0.0,0.0,0.0,0.0,0.0,0.0,0.0,0.0,0.0,-1.7503,-1.7768,-1.8439,-1.7888,-1.8071,-1.9452,-2.0941,-2.1826,-2.1931,-2.2104,0.0,-2.3325,-2.4101,0.0,0.0,0.0,0.0,-2.6725,-2.5252,-2.5303,-2.6674,-2.7452,-2.7998,-2.8422,0.0,0.0,0.0,0.0,0.0,0.0,0.0,0.0,0.0,0.0,-3.0925,-3.1547,-3.1581,-3.169,-3.1781,-3.1635,-3.1709,-3.18,0.0,0.0,0.0,0.0,0.0,0.0,0.0,0.0,0.0,0.0,0.0,0.0,0.0,0.0,0.0,0.0,0.0,0.0,0.0,0.0,0.0,0.0,0.0,0.0,0.0,0.0,0.0,0.0,0.0,0.0,0.0,-4.7244,-4.7066,-4.7003,-4.6908,-4.6883,-4.6853,-4.6853,-4.687,-4.6874,-4.7551,-4.8291,-4.9001,-4.897,-4.897,-4.9001,-4.9001,-4.9035,-4.9171,-4.9881,-5.0608,-5.1319,-5.2063,-5.2367,-5.2435,-5.3213,-5.3501,-5.3501,-5.3501,-5.3501,-5.3501,0.0,0.0,0.0,0.0,0.0,0.0,0.0,0.0,0.0,0.0,0.0,0.0,0.0,-1.8141,-1.8617,-1.981,-1.9691,-1.9774,-2.0274,-2.0829,-2.1399,-2.1965,-2.253,-2.2805,-2.2699,-2.434,0.0,0.0,0.0,-2.5015,-2.5981,-2.5181,-2.5234,-2.6031,-2.6975,-2.7622,-2.8049,-2.8903,0.0,0.0,0.0,0.0,0.0,0.0,0.0,0.0,0.0,0.0,0.0,-3.3932,-3.3802,-3.3036,-3.3171,-3.2479,-3.1614,-3.1653,-3.1727,0.0,0.0,0.0,0.0,0.0,0.0,0.0,0.0,0.0,0.0,0.0,0.0,0.0,0.0,0.0,0.0,0.0,0.0,0.0,0.0,0.0,0.0,0.0,0.0,0.0,0.0,0.0,0.0,0.0,0.0,-4.6039,-4.5496,-4.585,-4.6092,-4.6092,-4.6092,-4.6092,-4.6092,-4.728,-4.8024,-4.8308,-4.8781,-4.9001,-4.9001,-4.9001,-4.9001,-4.9018,-4.9272,-4.9813,-5.0557,-5.1302,-5.1877,-5.2334,-5.2621,-5.3044,-5.3501,-5.3501,-5.3501,-5.3501,0.0,0.0,0.0,0.0,0.0,0.0,0.0,0.0,0.0,0.0,0.0,0.0,0.0,0.0,-1.9267,-2.024,-2.0771,-2.1066,-2.1066,-2.1095,-2.1468,-2.2333,-2.2681,-2.2805,-2.2668,-2.3868,0.0,0.0,0.0,0.0,0.0,-2.5289,-2.5459,-2.5958,-2.7322,-2.7808,0.0,0.0,0.0,-2.8956,0.0,0.0,-2.9171,0.0,0.0,0.0,0.0,0.0,0.0,0.0,0.0,-3.3741,-3.3877,-3.2831,-3.1557,-3.1596,-3.1671,0.0,0.0,0.0,0.0,0.0,0.0,0.0,0.0,0.0,0.0,0.0,0.0,0.0,0.0,0.0,0.0,0.0,0.0,0.0,0.0,0.0,0.0,0.0,0.0,0.0,0.0,0.0,0.0,0.0,0.0,0.0,-4.4632,-4.506,-4.5331,-4.5331,-4.5331,-4.5449,-4.5703,-4.6684,-4.7398,-4.7889,-4.8409,-4.8765,-4.9001,-4.9001,-4.9001,-4.9001,-4.9001,-4.9272,-4.9779,-5.0541,-5.1116,-5.1606,-5.2114,-5.2638,-5.3129,-5.3399,-5.3501,-5.3501,0.0,0.0,0.0,0.0,0.0,0.0,0.0,0.0,0.0,-1.7519,0.0,0.0,0.0,0.0,0.0,-1.965,-2.0969,-2.1812,-2.1812,-2.1869,-2.226,-2.3021,-2.2526,-2.2594,-2.3357,-2.273,0.0,0.0,0.0,0.0,0.0,0.0,-2.5953,0.0,-2.8569,-2.8611,-2.7267,0.0,-2.8201,-2.8782,0.0,-2.9208,-2.9609,0.0,0.0,0.0,-3.419,-3.5251,0.0,-3.5914,0.0,0.0,0.0,0.0,-3.1598,-3.1598,0.0,0.0,0.0,0.0,0.0,0.0,0.0,0.0,0.0,0.0,0.0,0.0,0.0,0.0,0.0,0.0,0.0,0.0,0.0,0.0,0.0,0.0,0.0,0.0,0.0,0.0,0.0,0.0,0.0,0.0,-4.4648,-4.4564,-4.4564,-4.4598,-4.4615,-4.4615,-4.4615,-4.4925,-4.5669,-4.5703,-4.6447,-4.7855,-4.7872,-4.8308,-4.9001,-4.9001,-4.9001,-4.9001,-4.9001,-4.9001,-4.9069,-4.9763,-5.0067,-5.0236,-5.1708,-5.2283,-5.2401,-5.3213,-5.3501,-5.3501,0.0,0.0,0.0,0.0,0.0,0.0,-1.7491,-1.7503,-1.7669,0.0,0.0,0.0,-1.9959,-2.0754,-2.1185,-2.1185,-2.1549,-2.1812,-2.1812,-2.1869,-2.2026,-2.2283,-2.2757,-2.2951,-2.2904,-2.3744,0.0,0.0,0.0,0.0,0.0,0.0,0.0,0.0,-2.9115,-2.9406,-2.8088,-2.8392,0.0,0.0,-2.9506,-3.0484,0.0,0.0,0.0,0.0,0.0,-3.6683,-3.7496,0.0,-3.7284,-3.4689,0.0,0.0,0.0,0.0,0.0,0.0,-3.1596,0.0,0.0,0.0,0.0,0.0,0.0,0.0,0.0,0.0,0.0,0.0,0.0,0.0,0.0,0.0,0.0,0.0,0.0,0.0,0.0,0.0,0.0,0.0,0.0,0.0,0.0,0.0,-4.3447,-4.3741,-4.3741,-4.4265,-4.4615,-4.4615,-4.4615,-4.4699,-4.4919,-4.5432,-4.6177,-4.7107,-4.7665,-4.8308,-4.9001,-4.9001,-4.9001,-4.9001,-4.9001,-4.9001,-4.9018,-4.9221,-4.961,-5.0185,-5.115,-5.1843,-5.2401,-5.3213,-5.3501,-5.3501,0.0,0.0,0.0,0.0,0.0,0.0,-1.7536,-1.8,-1.8518,0.0,0.0,0.0,-2.1033,-2.1547,-2.1812,-2.1812,-2.1812,-2.1928,-2.2243,-2.2166,-2.2259,-2.2606,-2.3002,-2.3048,-2.2716,-2.3319,0.0,0.0,0.0,0.0,0.0,0.0,0.0,0.0,0.0,0.0,0.0,0.0,0.0,0.0,-2.9385,0.0,0.0,-3.3434,-3.4568,0.0,0.0,0.0,-3.8962,-3.99,-3.8604,0.0,0.0,0.0,0.0,0.0,0.0,0.0,0.0,0.0,0.0,0.0,0.0,0.0,-3.2514,-3.3294,0.0,0.0,0.0,0.0,0.0,0.0,0.0,0.0,0.0,0.0,0.0,0.0,0.0,0.0,0.0,0.0,0.0,-4.183,-4.1965,-4.2269,-4.2692,-4.2946,-4.2946,-4.3673,-4.4096,-4.4096,-4.4429,-4.4615,-4.4615,-4.501,-4.5602,-4.6346,-4.6786,-4.7378,-4.8088,-4.8409,-4.8545,-4.8578,-4.8883,-4.9001,-4.9001,-4.9001,-4.9255,-4.9729,-5.0794,-5.1471,-5.1995,-5.3095,-5.3501,-5.3501,0.0,0.0,0.0,-1.6712,-1.7661,-1.8323,-1.7818,-1.8799,-1.9634,0.0,-2.0356,-2.11,-2.1845,-2.1862,-2.1829,-2.1956,-2.189,-2.2171,-2.2965,-2.2643,-2.2829,-2.3636,-2.3389,-2.3172,-2.3059,-2.2579,0.0,0.0,0.0,0.0,0.0,0.0,0.0,0.0,0.0,0.0,0.0,0.0,0.0,-3.0539,-2.9369,-3.0676,0.0,0.0,-3.552,-3.6468,-3.9123,-4.0096,-4.0045,-3.9723,-3.8836,0.0,0.0,0.0,0.0,0.0,-3.1412,0.0,0.0,0.0,0.0,0.0,0.0,0.0,-3.145,-3.2522,-3.3932,0.0,0.0,0.0,0.0,0.0,0.0,0.0,0.0,0.0,0.0,0.0,0.0,0.0,0.0,0.0,-4.1018,-4.1085,-4.1356,-4.1999,-4.2117,-4.2252,-4.2405,-4.3047,-4.3426,-4.3511,-4.4215,-4.4615,-4.4615,-4.4615,-4.4959,-4.5703,-4.5703,-4.6092,-4.6802,-4.7479,-4.7804,-4.7922,-4.8595,-4.8934,-4.9001,-4.9001,-4.9001,-4.9137,-5.0541,-5.115,-5.1403,-5.2841,-5.3433,-5.3501,0.0,0.0,-1.7461,-1.793,-1.8282,-1.8671,-1.9118,-1.9419,-1.9813,-2.0406,0.0,0.0,0.0,-2.216,-2.2117,-2.2937,-2.2461,-2.2542,-2.3562,-2.3051,-2.3361,-2.4809,-2.4313,-2.4373,-2.5176,-2.5097,-2.5121,0.0,0.0,0.0,0.0,0.0,0.0,0.0,0.0,0.0,0.0,0.0,0.0,-3.1537,-3.2447,0.0,-3.6546,-3.832,-3.9097,-3.9317,-3.9893,-4.0096,-3.974,-3.7297,-3.7127,-3.733,0.0,0.0,0.0,-3.3072,0.0,0.0,0.0,0.0,0.0,0.0,0.0,0.0,-3.2754,-3.2357,-3.2519,0.0,0.0,0.0,0.0,0.0,0.0,0.0,0.0,0.0,0.0,0.0,0.0,0.0,0.0,0.0,-4.0316,-4.0316,-4.0383,-4.0519,-4.1068,-4.1931,-4.3105,-4.3308,-4.3707,-4.4361,-4.453,-4.4615,-4.4615,-4.4615,-4.4959,-4.5703,-4.5703,-4.6092,-4.6786,-4.6938,-4.7344,-4.7889,-4.8041,-4.846,-4.9001,-4.9001,-4.9001,-4.9086,-4.9965,-5.0676,-5.1319,-5.2198,-5.2942,-5.3501,0.0,0.0,-1.7469,-1.7873,-1.8559,-1.9171,-1.9535,-2.0227,0.0,0.0,0.0,0.0,0.0,0.0,-2.3086,-2.3608,-2.3471,-2.358,-2.4115,-2.4157,-2.4519,-2.5367,-2.5245,-2.5335,-2.579,-2.5931,-2.5931,0.0,0.0,0.0,0.0,0.0,0.0,0.0,0.0,0.0,0.0,0.0,-3.1565,-3.3351,-3.2962,0.0,-3.6934,-3.8428,-3.9142,-3.9426,-3.9925,-4.0096,-3.9757,-3.7516,-3.7256,0.0,0.0,-3.3977,-3.3406,0.0,-3.2357,-3.121,0.0,0.0,0.0,-3.1252,0.0,0.0,0.0,-3.1755,-3.1859,0.0,0.0,0.0,0.0,0.0,0.0,0.0,0.0,0.0,0.0,0.0,0.0,0.0,0.0,0.0,-4.0096,-4.0096,-4.0096,-4.0096,-4.0426,-4.0967,-4.1711,-4.21,-4.2658,-4.3447,-4.3809,-4.4181,-4.4615,-4.4615,-4.4801,-4.5145,-4.5145,-4.5348,-4.5732,-4.6075,-4.665,-4.7378,-4.772,-4.8342,-4.9001,-4.9001,-4.9001,-4.9069,-4.9796,-5.0321,-5.0794,-5.1894,-5.2553,-5.2959,0.0,0.0,0.0,-1.786,-1.8965,-1.9863,-2.0011,-2.1036,0.0,0.0,0.0,0.0,0.0,0.0,0.0,0.0,-2.4618,-2.4615,-2.4962,-2.5282,-2.5676,-2.6121,-2.6248,-2.6321,-2.6342,-2.6561,-2.6561,-2.633,0.0,0.0,0.0,0.0,0.0,0.0,0.0,0.0,0.0,0.0,0.0,-3.4871,0.0,-3.4508,-3.6963,-3.7938,-3.8423,-3.8705,-3.9727,-4.0096,-3.9876,-3.8396,-3.8091,-3.8007,-3.6174,-3.4771,0.0,0.0,0.0,0.0,0.0,0.0,0.0,0.0,0.0,-3.119,0.0,0.0,0.0,0.0,0.0,0.0,0.0,0.0,0.0,0.0,0.0,0.0,0.0,0.0,0.0,0.0,0.0,0.0,0.0,-3.9943,-4.0096,-4.0096,-4.0096,-4.0163,-4.0316,-4.0882,-4.161,-4.2472,-4.3098,-4.3792,-4.4598,-4.4615,-4.4615,-4.4615,-4.4615,-4.4615,-4.4632,-4.5213,-4.5974,-4.6819,-4.7445,-4.8189,-4.9001,-4.9001,-4.9001,-4.9069,-4.9661,-4.9965,-5.0236,-5.1437,-5.2063,-5.2384,-1.7298,-1.7785,0.0,0.0,-2.0025,-2.0801,-2.145,-2.1681,0.0,0.0,0.0,0.0,0.0,0.0,0.0,0.0,0.0,0.0,-2.661,0.0,-2.6207,-2.7999,-2.7486,-2.7512,-2.8272,-2.8316,-2.8316,-2.829,0.0,0.0,0.0,0.0,0.0,0.0,-2.8461,0.0,0.0,0.0,-3.2579,0.0,-3.6693,-3.8003,0.0,-3.959,-3.9262,-3.8574,-3.9702,-4.0096,-3.9876,0.0,-3.8768,-3.9368,0.0,-3.5481,-3.5092,-3.3774,0.0,0.0,0.0,0.0,0.0,0.0,-3.119,0.0,0.0,0.0,-3.1241,-3.141,0.0,0.0,0.0,0.0,0.0,0.0,0.0,0.0,0.0,0.0,0.0,0.0,0.0,0.0,0.0,-3.9326,-4.0096,-4.0096,-4.0096,-4.04,-4.1035,-4.1153,-4.1847,-4.325,-4.3341,-4.3792,-4.4598,-4.4615,-4.4615,-4.4615,-4.4615,-4.4615,-4.4615,-4.4699,-4.5466,-4.6786,-4.6887,-4.7716,-4.9001,-4.9001,-4.9001,-4.9018,-4.9086,-4.9526,-5.0101,-5.0287,-5.1183,-5.2317,-1.7858,-1.8139,0.0,0.0,-2.0489,-2.095,-2.1696,-2.216,0.0,0.0,0.0,0.0,0.0,0.0,0.0,0.0,0.0,-2.8106,0.0,0.0,0.0,-3.0983,-2.9058,-2.8562,-2.9913,-2.9063,-2.86,-2.86,-2.86,0.0,0.0,0.0,0.0,0.0,-2.9922,0.0,-3.1862,0.0,-3.5705,0.0,0.0,0.0,0.0,-3.9911,-4.0041,-3.9435,-3.9926,-4.0096,-4.0011,0.0,-3.9005,0.0,0.0,0.0,0.0,0.0,0.0,0.0,0.0,0.0,0.0,0.0,0.0,0.0,-3.1393,0.0,-3.119,0.0,0.0,0.0,0.0,0.0,0.0,0.0,-3.1529,0.0,0.0,0.0,0.0,0.0,0.0,0.0,0.0,0.0,0.0,0.0,-3.8819,-3.8954,-3.9276,-4.0087,-4.1238,-4.2726,-4.276,-4.3352,-4.4598,-4.4615,-4.4615,-4.4615,-4.4615,-4.4615,-4.4615,-4.4615,-4.5162,-4.6194,-4.6599,-4.7394,-4.8409,-4.8832,-4.9001,-4.9001,-4.9001,-4.9187,-4.9509,-4.9932,-5.076,-5.1725,-1.8834,0.0,0.0,0.0,0.0,-2.1249,-2.1995,0.0,0.0,0.0,0.0,0.0,-2.8612,-2.822,0.0,0.0,-3.1199,-3.0959,0.0,0.0,-3.0864,0.0,0.0,0.0,-3.0868,-2.9827,-2.9034,-2.86,-2.86,0.0,0.0,0.0,0.0,0.0,0.0,-3.1946,-3.3074,0.0,0.0,-3.822,-3.9601,-3.9609,-3.8906,-3.994,-4.0244,-4.0138,-4.0246,-4.0221,-4.0096,-4.0096,-3.9402,0.0,-3.9276,0.0,0.0,0.0,0.0,0.0,-3.3711,0.0,0.0,0.0,0.0,0.0,0.0,0.0,0.0,0.0,0.0,0.0,0.0,0.0,0.0,0.0,0.0,-3.1123,0.0,0.0,0.0,0.0,0.0,0.0,0.0,0.0,0.0,-3.7172,-3.728,-3.7442,-3.7889,-3.8903,-4.0282,-4.1948,-4.1999,-4.2726,-4.4248,-4.4265,-4.4395,-4.4615,-4.4615,-4.4615,-4.4615,-4.4615,-4.4993,-4.5737,-4.6261,-4.7039,-4.7922,-4.8494,-4.8832,-4.9001,-4.9001,-4.9001,-4.9069,-4.9593,-5.0388,-5.1302,-2.0231,-2.0539,0.0,0.0,0.0,0.0,0.0,0.0,0.0,0.0,0.0,0.0,0.0,0.0,0.0,0.0,0.0,-3.2751,-3.2231,0.0,-3.0956,0.0,0.0,-3.0842,0.0,-3.0925,-3.017,-2.86,0.0,0.0,0.0,0.0,0.0,0.0,0.0,-3.129,-3.4594,-3.5996,-3.8221,-4.0989,-4.2258,-4.2487,-4.1833,0.0,-3.9554,-4.0171,-4.0611,0.0,0.0,-4.0096,-4.0079,0.0,0.0,0.0,0.0,0.0,0.0,0.0,0.0,0.0,0.0,-3.516,0.0,0.0,0.0,0.0,-3.119,0.0,0.0,0.0,0.0,0.0,0.0,0.0,0.0,0.0,0.0,0.0,0.0,0.0,0.0,0.0,0.0,0.0,0.0,-3.5667,-3.5667,-3.6326,-3.7821,-3.7939,-3.8971,-4.117,-4.1238,-4.1948,-4.3409,-4.3426,-4.3826,-4.4615,-4.4615,-4.4615,-4.4615,-4.4615,-4.4993,-4.5703,-4.5737,-4.6566,-4.7889,-4.7922,-4.8376,-4.9001,-4.9001,-4.9001,-4.9001,-4.9035,-4.9965,-5.1185,0.0,0.0,0.0,0.0,0.0,0.0,0.0,-2.408,0.0,0.0,0.0,0.0,0.0,-3.382,-3.4566,0.0,0.0,-3.532,-3.6485,-3.4376,0.0,0.0,0.0,-3.2217,0.0,0.0,0.0,0.0,0.0,0.0,0.0,0.0,0.0,0.0,0.0,-3.278,0.0,0.0,0.0,0.0,0.0,-3.9807,-3.8349,0.0,-4.011,-4.0556,-4.0402,-4.0229,0.0,-4.0096,-4.0096,-4.0011,-3.952,-3.8684,-3.7804,-3.7297,-3.6394,-3.5819,0.0,0.0,-3.6502,-3.6986,0.0,0.0,0.0,0.0,0.0,0.0,0.0,0.0,0.0,0.0,0.0,0.0,0.0,0.0,0.0,0.0,0.0,0.0,0.0,0.0,0.0,0.0,0.0,-3.4061,-3.4129,-3.4788,-3.6293,-3.7364,-3.892,-4.1136,-4.1204,-4.1677,-4.2658,-4.3166,-4.3527,-4.3809,-4.4361,-4.4615,-4.4615,-4.4615,-4.475,-4.4993,-4.55,-4.6261,-4.7208,-4.7716,-4.8311,-4.9001,-4.9001,-4.9001,-4.9001,-4.9001,-4.9932,-5.1369,-2.0978,0.0,0.0,0.0,0.0,0.0,0.0,0.0,0.0,0.0,-3.0427,0.0,-3.5481,0.0,-3.7029,0.0,-3.8311,-3.7895,-3.8507,-3.6747,0.0,-3.7114,-3.5596,0.0,0.0,0.0,0.0,0.0,0.0,-2.8574,0.0,0.0,0.0,0.0,0.0,0.0,-3.5082,0.0,-3.8996,0.0,0.0,-3.8788,0.0,0.0,-3.96,-3.9812,0.0,-4.0246,-4.0096,-4.0096,-4.0096,-4.0096,-4.0096,-3.9453,-3.8684,-3.8684,-3.7973,-3.7415,-3.8413,-3.8311,0.0,-3.8548,-3.7144,0.0,-3.5098,0.0,-3.2763,0.0,0.0,0.0,0.0,0.0,0.0,0.0,0.0,0.0,0.0,-3.119,0.0,0.0,0.0,0.0,0.0,0.0,-3.1579,-3.256,-3.2628,-3.3491,0.0,0.0,-3.8244,-4.073,-4.0798,-4.1153,-4.1897,-4.2642,-4.3149,-4.3392,-4.4215,-4.4615,-4.4615,-4.4615,-4.4615,-4.4632,-4.5094,-4.5872,-4.6836,-4.731,-4.8105,-4.9001,-4.9001,-4.9001,-4.9001,-4.9001,-4.9932,-5.1403,0.0,0.0,0.0,0.0,-2.246,0.0,0.0,0.0,-2.8319,0.0,-3.16,-3.415,-3.4251,-3.7073,-3.8905,-3.8693,-4.0179,-4.0291,-3.8388,-3.7925,0.0,0.0,-3.7775,-3.7399,-3.6541,0.0,0.0,0.0,0.0,0.0,0.0,0.0,0.0,0.0,-2.9445,0.0,-3.3508,-3.5858,-3.8214,-4.0384,-4.0047,-3.9638,-3.9172,-3.8728,-3.8288,-3.8139,-4.0072,-4.0483,-4.0096,-4.0096,-4.0096,-4.0096,-4.0096,-4.0096,-4.0096,-4.0096,-4.0096,-4.0096,-4.0096,-3.9073,-3.8345,-3.9757,-3.7889,0.0,0.0,0.0,-3.56,0.0,0.0,0.0,0.0,0.0,0.0,0.0,0.0,0.0,0.0,0.0,0.0,0.0,0.0,0.0,0.0,-3.119,-3.119,-3.119,-3.119,-3.2459,0.0,0.0,-3.6958,-3.991,-4.0062,-4.0443,-4.1204,-4.1931,-4.2675,-4.3392,-4.4215,-4.4615,-4.4615,-4.4615,-4.4615,-4.4615,-4.4615,-4.5444,-4.6786,-4.6786,-4.7665,-4.9001,-4.9001,-4.9001,-4.9001,-4.9035,-4.9965,-5.1319,-2.1661,-2.2199,-2.2609,0.0,-2.3222,-2.4145,0.0,0.0,0.0,0.0,-3.3575,-3.6031,-3.7703,-3.9969,-4.1385,-4.1339,-4.1184,0.0,0.0,0.0,0.0,-3.8894,-3.9248,-3.8664,-3.6904,-3.5183,-3.3514,-3.193,0.0,0.0,-2.8445,0.0,0.0,0.0,0.0,0.0,-3.3028,-3.4197,-3.6341,-3.908,-4.0866,-4.0256,-3.8442,0.0,-3.9549,-3.8115,-3.9719,-4.0196,-4.0096,-4.0096,-4.0096,-4.0096,-4.0096,-4.0096,-4.0096,-4.0096,-4.0096,-4.0096,-4.0096,-3.9825,-3.9639,-4.0011,-3.8684,-3.7415,0.0,0.0,0.0,0.0,0.0,0.0,0.0,0.0,0.0,0.0,0.0,0.0,0.0,0.0,0.0,-3.119,0.0,0.0,0.0,-3.119,-3.119,-3.119,-3.119,-3.2002,-3.3858,0.0,0.0,-3.8396,-3.9537,-4.0443,-4.1204,-4.1931,-4.2675,-4.3392,-4.4215,-4.4615,-4.4615,-4.4615,-4.4615,-4.4615,-4.4615,-4.5444,-4.6786,-4.6786,-4.7665,-4.9001,-4.9001,-4.9001,-4.9069,-4.961,-5.0405,-5.1319,-2.211,0.0,0.0,-2.3818,0.0,0.0,-2.7637,-2.9312,0.0,-3.3946,-3.6656,0.0,-3.9143,-4.1059,-4.2225,-4.198,-4.1757,0.0,-4.1127,0.0,0.0,-3.9595,-4.0533,-4.0339,-3.8841,-3.6894,0.0,-3.3416,0.0,0.0,-2.8445,0.0,0.0,0.0,0.0,-3.0269,0.0,-3.4455,-3.6331,-3.7926,-4.0014,-3.9665,0.0,-3.9565,-3.9612,-3.8954,-3.9808,-4.0096,-4.0096,-4.0096,-4.0096,-4.0096,-4.0096,-4.0096,-4.0096,-4.0096,-4.0096,-4.0096,-4.0096,-4.0096,-4.0096,-4.0096,-3.9486,-3.8853,-3.8853,-3.8193,-3.7567,0.0,-3.706,-3.6343,0.0,0.0,0.0,0.0,0.0,0.0,0.0,0.0,0.0,0.0,-3.119,0.0,-3.119,-3.119,-3.119,-3.119,-3.119,-3.2138,0.0,0.0,0.0,-3.7838,-3.9005,-3.9326,-3.8768,-4.1441,-4.2506,-4.1972,-4.3741,-4.4615,-4.4615,-4.4615,-4.4615,-4.4615,-4.4615,-4.5258,-4.6346,-4.6667,-4.7479,-4.8562,-4.8883,-4.9001,-4.9052,-4.9458,-5.0304,-5.1268,0.0,0.0,0.0,0.0,0.0,0.0,0.0,-3.2437,0.0,-3.6603,0.0,-4.0709,-3.9417,-4.1082,-4.2124,-4.1644,0.0,-4.1984,-4.1306,-4.1895,-4.168,-4.0289,-4.1538,-4.1945,-4.1172,-3.9083,-3.7108,0.0,-3.2453,-3.0185,0.0,0.0,0.0,0.0,0.0,0.0,0.0,-3.5528,-3.7085,-3.7198,-3.8695,-3.8836,-3.8224,-3.8562,-3.9289,-4.0096,-4.0096,-4.0096,-4.0096,-4.0096,-4.0096,-4.0096,-4.0096,-4.0096,-4.0096,-4.0096,-4.0096,-4.0096,-4.0096,-4.0096,-4.0096,-4.0096,-4.0096,-4.0096,-4.0096,-4.0096,-4.0096,-4.0096,-3.9073,-3.8125,-3.7939,0.0,0.0,0.0,0.0,0.0,0.0,0.0,0.0,0.0,0.0,0.0,0.0,0.0,-3.119,-3.119,-3.119,0.0,0.0,0.0,0.0,-3.7229,-3.8413,-3.8091,-3.6208,-4.0975,-4.2479,-4.0704,-4.3335,-4.4615,-4.4615,-4.4615,-4.4615,-4.4615,-4.4615,-4.501,-4.5771,-4.6498,-4.7293,-4.8122,-4.8748,-4.9001,-4.9001,-4.9001,-4.9881,-5.1082,0.0,0.0,0.0,0.0,0.0,-2.9254,-3.561,-3.4215,-3.3273,-3.5642,-3.8091,-3.9637,-3.9775,-4.1301,-4.2267,-4.2166,-4.2246,0.0,0.0,0.0,0.0,-4.1877,-4.2144,-4.2032,-4.1433,-3.9182,-3.6895,-3.4654,-3.2197,-3.0064,-2.825,0.0,0.0,0.0,0.0,0.0,-3.4286,-3.5242,0.0,-3.8093,-3.9581,-3.9993,-3.9731,-4.0096,-4.0171,-4.0096,-4.0096,-4.0096,-4.0096,-4.0096,-4.0096,-4.0096,-4.0096,-4.0096,-4.0096,-4.0096,-4.0096,-4.0096,-4.0096,-4.0096,-4.0096,-4.0096,-4.0096,-4.0096,-4.0096,-4.0096,-4.0096,-4.0096,-3.9893,-3.9326,-3.8125,0.0,0.0,0.0,0.0,0.0,0.0,0.0,0.0,0.0,0.0,-3.2544,0.0,0.0,0.0,0.0,0.0,0.0,0.0,0.0,0.0,0.0,-3.7313,0.0,0.0,0.0,-4.3538,-4.3809,-4.4361,-4.4615,-4.4615,-4.4615,-4.4615,-4.4615,-4.4615,-4.501,-4.5771,-4.6498,-4.7581,-4.8832,-4.8951,-4.9001,-4.9001,-4.9001,-4.9543,-5.0371,0.0,0.0,0.0,0.0,0.0,0.0,0.0,-3.5207,-3.5853,-3.8926,-3.995,-4.0577,-4.1105,-4.1841,-4.2308,-4.2308,-4.2308,-4.2308,-4.2308,-4.2308,-4.2308,-4.2308,-4.2023,-4.1753,-4.1512,-3.9881,-3.7737,-3.512,-3.3285,-3.1183,-2.8872,0.0,0.0,0.0,0.0,-3.2484,0.0,0.0,0.0,-3.8229,-3.9502,-3.9978,-3.9918,-4.0062,-4.0028,-3.9893,-3.9893,-3.9935,-4.0011,-4.0087,-4.0096,-4.0096,-4.0096,-4.0096,-4.0096,-4.0096,-4.0096,-4.0096,-4.0096,-4.0096,-4.0096,-4.0096,-4.0096,-4.0096,-4.0096,-4.0096,-4.0096,-4.0096,-4.0096,-3.9656,-3.8176,-3.6721,0.0,0.0,0.0,0.0,0.0,0.0,-3.3136,0.0,0.0,0.0,0.0,0.0,0.0,0.0,0.0,-3.1529,-3.2307,0.0,-3.2966,0.0,0.0,0.0,-3.7202,0.0,-4.2828,-4.1737,-4.3684,-4.4615,-4.4615,-4.4615,-4.4615,-4.4615,-4.4615,-4.501,-4.5788,-4.6921,-4.802,-4.9001,-4.9001,-4.9001,-4.9001,-4.9001,-4.9458,-5.0202,0.0,-2.8461,0.0,0.0,-3.0318,0.0,-3.4097,-3.6084,-3.8546,-4.1847,-4.1885,-4.1802,-4.2313,-4.2394,-4.2394,-4.2373,-4.2213,-4.2166,-4.2287,-4.2308,-4.2246,-4.2145,-4.1727,-4.1405,-4.1202,-4.0407,-3.8638,-3.5876,-3.441,-3.2327,0.0,0.0,0.0,0.0,0.0,0.0,0.0,0.0,-3.8021,-3.8386,-3.9269,-3.9651,-3.9703,-3.9677,-3.9677,-3.9703,-3.9703,-3.9755,-3.9858,-3.9986,-4.0045,-4.0113,-4.0062,-4.0087,-4.0096,-4.0096,-4.0096,-4.0096,-4.0096,-4.0096,-4.0096,-4.0096,-4.0096,-4.0096,-4.0096,-4.0096,-4.0096,-4.0096,-4.0096,-3.9757,-3.8582,-3.8125,0.0,0.0,0.0,0.0,0.0,0.0,0.0,0.0,0.0,0.0,-3.344,0.0,0.0,0.0,0.0,-3.1833,-3.3322,-3.2002,-3.2408,0.0,0.0,-3.5898,-3.5018,0.0,-4.1931,-3.9969,-4.3125,-4.4615,-4.4615,-4.4615,-4.4615,-4.4615,-4.4615,-4.5122,-4.6041,-4.7348,-4.8311,-4.9001,-4.9001,-4.9001,-4.9001,-4.9001,-4.9373,-4.9965,0.0,0.0,0.0,0.0,0.0,0.0,-3.6158,-3.7439,-3.879,-4.0731,-4.1553,-4.2107,-4.253,-4.2615,-4.2637,-4.2575,-4.1965,-4.1792,-4.2267,-4.2308,-4.2065,-4.16,-4.1534,-4.1071,-4.0161,-4.0053,-3.8811,0.0,-3.4593,-3.2578,0.0,0.0,0.0,0.0,0.0,0.0,0.0,-3.7243,-3.8043,-3.938,-3.9339,-3.9468,-3.9677,-3.9563,-3.959,-3.9703,-3.9703,-3.9703,-3.9729,-3.9729,-3.991,-4.0087,-3.9977,-3.9986,-4.0096,-4.0096,-4.0096,-4.0096,-4.0096,-4.0096,-4.0096,-4.0096,-4.0096,-4.0096,-4.0096,-4.0096,-4.0096,-4.0096,-4.0096,-4.0062,-3.9926,-3.8802,-3.7415,0.0,0.0,0.0,0.0,0.0,-3.489,-3.3558,0.0,0.0,0.0,-3.207,0.0,0.0,-3.119,-3.1833,-3.3322,-3.2002,-3.1935,-3.3558,-3.432,-3.5323,-3.6575,-3.9783,-4.1948,-4.2987,-4.4079,-4.4615,-4.4615,-4.4615,-4.4615,-4.4615,-4.4615,-4.541,-4.6752,-4.7581,-4.8311,-4.9001,-4.9001,-4.9001,-4.9001,-4.9001,-4.9035,-4.9204,0.0,0.0,0.0,0.0,0.0,0.0,0.0,-3.9161,-4.0369,-4.1383,-4.1478,-4.1562,-4.1896,-4.2097,-4.2037,-4.1551,-4.1513,-4.16,-4.1813,-4.2124,-4.2065,-4.1516,-4.1225,-4.0737,-4.0028,-3.9731,-3.8799,0.0,0.0,0.0,0.0,0.0,0.0,0.0,0.0,-3.5742,-3.7419,-3.8133,-3.8795,-3.9395,-3.9325,-3.9352,-3.9441,-3.9405,-3.9405,-3.9458,-3.9458,-3.9511,-3.9563,-3.9484,-3.9625,-3.9858,-3.9884,-3.9952,-3.9986,-4.0087,-4.0096,-4.0096,-4.0096,-4.0096,-4.0096,-4.0096,-4.0096,-4.0096,-4.0096,-4.0096,-4.0096,-4.0096,-4.0096,-4.0096,-4.0096,-3.9622,-3.8717,-3.7205,0.0,0.0,0.0,0.0,0.0,-3.3694,0.0,-3.5363,0.0,0.0,0.0,0.0,0.0,-3.1461,-3.2053,-3.2357,-3.3203,-3.467,0.0,-3.6113,-3.8091,-3.9715,-4.1052,-4.2117,-4.3775,-4.4615,-4.4615,-4.4615,-4.4615,-4.4649,-4.5546,-4.6244,-4.6887,-4.8071,-4.8731,-4.9001,-4.9001,-4.9001,-4.9001,-4.9001,-4.9001,-4.9035,-3.6767,0.0,-3.6296,0.0,-3.7536,-3.8384,-3.8694,-4.0258,-4.1543,-4.1875,-4.159,-4.1533,-4.1981,-4.2029,-4.1814,-4.1241,-4.1114,-4.1134,-4.1271,-4.1661,-4.1622,-4.1071,-4.0737,0.0,-3.9808,-3.9451,-3.8942,-3.817,-3.6001,0.0,0.0,0.0,0.0,0.0,-3.6047,-3.7069,-3.7814,-3.8868,-3.9299,-3.9299,-3.9299,-3.9299,-3.9299,-3.9299,-3.9299,-3.9299,-3.9299,-3.9352,-3.9448,-3.9325,-3.9432,-3.9599,-3.9746,-3.9824,-3.9858,-3.9944,-4.0011,-4.0037,-4.0037,-4.0087,-4.0096,-4.0096,-4.0096,-4.0096,-4.0096,-4.0096,-4.0096,-4.0096,-4.0096,-4.0096,-4.0096,-4.0096,-3.9622,-3.8142,0.0,0.0,0.0,-3.6011,0.0,-3.3761,-3.4687,-3.56,-3.56,-3.3322,0.0,0.0,0.0,-3.185,-3.185,-3.2425,-3.344,0.0,0.0,0.0,-3.7973,-3.8759,-3.9943,-4.1542,-4.3369,-4.435,-4.4615,-4.4615,-4.4615,-4.4682,-4.6143,-4.6786,-4.6904,-4.8392,-4.9001,-4.9001,-4.9001,-4.9001,-4.9001,-4.9001,-4.9001,-4.9001,-4.111,-3.98,-3.8586,-3.9327,-3.9601,-3.9442,-3.8702,-4.0524,-4.1926,-4.1733,-4.1857,-4.2336,-4.317,-4.2675,-4.2262,-4.2182,-4.0865,-4.0252,-4.0778,-4.0825,-4.057,0.0,0.0,-3.9808,-3.9325,-3.9299,-3.9282,-3.9265,0.0,0.0,-3.5943,0.0,-3.4728,-3.6495,-3.6912,-3.7897,-3.9265,-3.9299,-3.9299,-3.9299,-3.9299,-3.9299,-3.9299,-3.9299,-3.9299,-3.9299,-3.9299,-3.9299,-3.9299,-3.9299,-3.9299,-3.9325,-3.9458,-3.959,-3.9703,-3.9703,-3.9781,-3.9901,-3.9901,-3.9986,-4.0096,-4.0096,-4.0096,-4.0096,-4.0096,-4.0096,-4.0096,-4.0096,-4.0096,-4.0096,-4.0096,-4.0096,-3.9622,-3.8142,0.0,0.0,0.0,-3.6011,0.0,-3.3761,-3.4687,-3.56,-3.56,-3.4247,0.0,0.0,0.0,0.0,0.0,0.0,0.0,-3.3389,-3.2002,0.0,-3.5616,-3.6434,-3.8674,-4.2286,-4.3064,-4.3842,-4.4615,-4.4615,-4.4615,-4.4682,-4.6143,-4.6786,-4.6904,-4.8392,-4.9001,-4.9001,-4.9001,-4.9001,-4.9001,-4.9001,-4.9001,-4.9001,-4.1191,-4.1061,-4.0672,-4.0899,-4.132,-4.1594,-4.1353,-4.2071,-4.2612,-4.2531,-4.2635,-4.2692,-4.2481,-4.1913,-4.1178,0.0,-4.0103,-4.0078,0.0,-4.0611,-4.0546,-4.0028,-4.0003,-3.9782,-3.9299,-3.9299,-3.9299,-3.9299,0.0,0.0,0.0,-3.7284,-3.7842,-3.8419,-3.8539,-3.8868,-3.9299,-3.9299,-3.9299,-3.9299,-3.9299,-3.9299,-3.9299,-3.9299,-3.9299,-3.9299,-3.9299,-3.9299,-3.9299,-3.9299,-3.9299,-3.9299,-3.9352,-3.9458,-3.959,-3.9677,-3.9729,-3.9755,-3.9755,-3.9807,-3.9833,-3.9833,-3.9833,-3.9858,-3.9935,-4.0037,-4.0096,-4.0096,-4.0096,-4.0096,-4.0096,-4.0096,-3.9622,-3.8142,-3.8734,0.0,-3.5312,0.0,-3.7161,-3.5126,-3.5312,-3.6005,-3.7053,-3.5785,0.0,0.0,0.0,0.0,0.0,0.0,0.0,0.0,-3.6011,0.0,-3.8633,-3.8928,-4.0146,-4.2303,-4.3589,-4.4333,-4.4632,-4.5111,-4.5348,-4.5432,-4.6921,-4.7564,-4.7631,-4.8612,-4.9001,-4.9001,-4.9001,-4.9001,-4.9001,-4.9001,-4.9001,-4.9001,-4.1288,-4.1596,-4.1515,-4.1255,-4.1759,-4.2148,-4.1857,-4.1933,-4.1994,-4.1994,-4.2069,-4.1882,-4.1256,-4.0869,0.0,-3.9671,-3.9627,-3.9662,-3.9731,-4.0062,-4.0087,-3.9756,-3.9731,-3.9592,-3.9299,-3.9299,0.0,-3.9299,-3.8387,-3.793,-3.7947,-3.8884,-3.9299,-3.9299,-3.9299,-3.9299,-3.9299,-3.9299,-3.9299,-3.9299,-3.9299,-3.9299,-3.9299,-3.9299,-3.9299,-3.9299,-3.9299,-3.9299,-3.9299,-3.9299,-3.9299,-3.9299,-3.9299,-3.9352,-3.9432,-3.9537,-3.959,-3.9625,-3.9625,-3.9651,-3.9703,-3.9703,-3.9703,-3.9729,-3.9875,-3.9935,-3.9969,-4.0087,-4.0062,-4.0037,-4.007,-4.0096,-3.9808,-3.887,-3.9503,-3.9266,-3.68,0.0,-3.7956,0.0,0.0,0.0,0.0,-3.7019,-3.6462,0.0,0.0,0.0,0.0,0.0,0.0,-3.7026,-3.7043,-3.7889,-3.9673,-3.969,-4.0696,-4.2726,-4.4005,-4.4694,-4.4907,-4.5454,-4.5855,-4.6177,-4.7365,-4.7889,-4.7939,-4.8714,-4.9001,-4.9001,-4.9001,-4.9001,-4.9001,-4.9001,-4.9001,-4.9001,-4.1385,-4.1531,-4.132,0.0,-4.1191,-4.1434,-4.0675,-4.0577,-4.0545,-4.0496,-4.0496,-4.0296,-3.976,-3.9679,-3.976,-3.9977,0.0,0.0,-3.9272,-3.9272,-3.9299,-3.9299,-3.9299,-3.9299,-3.9299,-3.9249,-3.9232,-3.9232,-3.9232,-3.9249,-3.9299,-3.9299,-3.9299,-3.9299,-3.9299,-3.9299,-3.9299,-3.9299,-3.9299,-3.9299,-3.9299,-3.9299,-3.9299,-3.9299,-3.9299,-3.9299,-3.9299,-3.9299,-3.9299,-3.9299,-3.9299,-3.9299,-3.9299,-3.9299,-3.9299,-3.9299,-3.9395,-3.9501,-3.9501,-3.959,-3.9677,-3.9677,-3.9677,-3.9703,-3.9849,-3.9781,-3.9781,-4.002,-3.9961,-3.991,-4.0062,-4.0087,-4.0087,-4.0087,-4.0096,-3.9588,-3.8108,-3.9073,-3.8903,0.0,0.0,0.0,-3.8041,-3.8058,-3.8024,0.0,0.0,0.0,0.0,0.0,-3.5988,-3.5988,-3.5988,-3.7043,-3.9208,-3.9276,-4.0713,-4.3477,-4.4282,-4.4924,-4.5391,-4.5701,-4.6227,-4.6904,-4.7665,-4.7973,-4.8024,-4.8731,-4.9001,-4.9001,-4.9001,-4.9001,-4.9001,-4.9001,-4.9001,-4.9001,0.0,0.0,-4.0899,-4.1272,-4.1905,-4.2148,-4.145,-4.1353,-4.1158,-4.0561,-4.0496,-4.0267,-3.9615,-3.9534,-3.9393,-3.901,-3.8892,-3.8914,-3.905,-3.9067,-3.9148,-3.9299,-3.9299,-3.9299,-3.9299,-3.8742,-3.846,-3.846,-3.846,-3.8742,-3.9299,-3.9299,-3.9299,-3.9299,-3.9299,-3.9299,-3.9299,-3.9299,-3.9299,-3.9299,-3.9299,-3.9299,-3.9299,-3.9299,-3.9299,-3.9299,-3.9299,-3.9299,-3.9299,-3.9299,-3.9299,-3.9299,-3.9299,-3.9299,-3.9299,-3.9299,-3.9325,-3.9352,-3.9352,-3.9379,-3.9388,-3.9388,-3.9458,-3.9563,-3.9606,-3.9668,-3.9729,-3.9781,-3.9781,-3.9755,-3.9781,-3.9884,-3.9952,-3.9952,-4.0037,-3.9588,-3.8108,-3.821,-3.8159,0.0,-3.7686,-3.8345,-3.9462,-3.9588,-3.9106,0.0,0.0,0.0,-3.6242,-3.8531,-3.9884,-3.9884,-3.9884,-4.0409,-4.1491,-4.2083,-4.2932,-4.4114,-4.5003,-4.5414,-4.5421,-4.6764,-4.7479,-4.7699,-4.8426,-4.8748,-4.8765,-4.8934,-4.9001,-4.9001,-4.9001,-4.9001,-4.9001,-4.9001,-4.9001,-4.9001,-3.9897,-4.0027,-4.0043,-4.0137,-4.0723,-4.095,-4.0237,-4.0154,-3.9978,-3.959,-3.9541,-3.9395,-3.9023,-3.8991,-3.8857,-3.8553,-3.8628,-3.8766,-3.8914,-3.8914,-3.8942,-3.9067,-3.9067,-3.8918,-3.8632,-3.8279,-3.7968,-3.7715,-3.8046,-3.8411,-3.8791,-3.9149,-3.9299,-3.9299,-3.9299,-3.9299,-3.9299,-3.9299,-3.9299,-3.9299,-3.9299,-3.9299,-3.9299,-3.9299,-3.9299,-3.9299,-3.9299,-3.9299,-3.9299,-3.9299,-3.9299,-3.9299,-3.9299,-3.9299,-3.9299,-3.9299,-3.9299,-3.9299,-3.9299,-3.9299,-3.9299,-3.9299,-3.9352,-3.9405,-3.9501,-3.9511,-3.9547,-3.9677,-3.9651,-3.9642,-3.9677,-3.9755,-3.9824,-3.9824,-3.9286,-3.8613,-3.7838,-3.772,-3.772,-3.772,-3.8376,-3.9126,-3.9927,-4.0045,-3.9774,-3.8954,-3.9005,0.0,-3.8106,-3.9362,-4.013,-4.0189,-4.1135,-4.1987,-4.2811,-4.3472,-4.3934,-4.4212,-4.5072,-4.5593,-4.5853,-4.7181,-4.7997,-4.8443,-4.8832,-4.9001,-4.9001,-4.9001,-4.9001,-4.9001,-4.9001,-4.9001,-4.9001,-4.9001,-4.9001,-4.9001,-3.9201,-3.9424,-3.9311,-3.8683,-3.9153,-3.9424,-3.8683,-3.857,-3.8521,-3.8408,-3.8391,-3.8391,-3.8391,-3.8391,-3.8391,-3.8391,-3.8504,-3.8616,-3.875,-3.8777,-3.8777,-3.8805,-3.8707,-3.8379,-3.7816,-3.7692,-3.7411,-3.6911,-3.7514,-3.7904,-3.8063,-3.8775,-3.9133,-3.9149,-3.9249,-3.9299,-3.9299,-3.9183,-3.9199,-3.9282,-3.9183,-3.9199,-3.9299,-3.9299,-3.9299,-3.9299,-3.9299,-3.9299,-3.9299,-3.9299,-3.9299,-3.9299,-3.9299,-3.9299,-3.9299,-3.9299,-3.9299,-3.9299,-3.9299,-3.9299,-3.9299,-3.9299,-3.9299,-3.9325,-3.9432,-3.9379,-3.9352,-3.9599,-3.9537,-3.9484,-3.9625,-3.9651,-3.961,-3.9393,-3.833,-3.7425,-3.7207,-3.7375,-3.7509,-3.7484,-3.8917,-3.9934,-4.0052,-4.018,-4.029,-4.0409,-3.9251,-3.9193,-4.0707,-3.9933,-3.9379,-3.9252,-4.1189,-4.2638,-4.3534,-4.4075,-4.432,-4.4281,-4.5018,-4.5688,-4.6293,-4.7284,-4.811,-4.874,-4.8771,-4.8771,-4.874,-4.8771,-4.8771,-4.8787,-4.8889,-4.897,-4.897,-4.9001,-4.9001,-4.9001,-3.8537,-3.9055,-3.9473,-3.936,-3.9881,-4.0108,-3.9441,-3.9343,-3.9104,-3.8472,-3.8391,-3.8391,-3.8391,-3.8391,-3.8391,-3.8391,-3.842,-3.8476,-3.8616,-3.8616,-3.8683,-3.8805,-3.8248,-3.7914,-3.78,-3.6587,-3.5974,-3.5984,-3.6116,-3.6546,-3.7301,-3.803,-3.8377,-3.8411,-3.9033,-3.9299,-3.9265,-3.8642,-3.8725,-3.9249,-3.8626,-3.8742,-3.9299,-3.9299,-3.9299,-3.9299,-3.9299,-3.9299,-3.9299,-3.9299,-3.9299,-3.9299,-3.9299,-3.9299,-3.9299,-3.9299,-3.9299,-3.9299,-3.9299,-3.9299,-3.9299,-3.9299,-3.9299,-3.9299,-3.9325,-3.9299,-3.9299,-3.9352,-3.9352,-3.9325,-3.9352,-3.9458,-3.9163,-3.8045,-3.7652,-3.7081,-3.5877,0.0,-3.7501,-3.7493,-3.8908,-4.0136,-4.0768,-4.0957,-4.1236,-4.1755,-4.1577,-4.0959,-3.9878,-4.1429,-4.1747,-4.0464,-4.1998,-4.3272,-4.4153,-4.4418,-4.4704,-4.5051,-4.5874,-4.6234,-4.6174,-4.7665,-4.8111,-4.7642,-4.7779,-4.7749,-4.7673,-4.7779,-4.7749,-4.774,-4.8517,-4.8832,-4.8832,-4.894,-4.9001,-4.9001,-3.8391,-3.8667,-3.8893,-3.8893,-3.9153,-3.925,-3.8942,-3.8893,-3.878,-3.844,-3.8391,-3.8391,-3.8391,-3.8391,-3.8391,-3.8391,-3.8391,-3.8436,-3.8492,-3.8476,-3.8325,-3.8018,-3.7693,-3.721,-3.6506,-3.5444,-3.498,-3.5103,-3.5572,-3.6199,-3.7017,-3.7812,-3.8186,-3.8202,-3.856,-3.8709,-3.8676,-3.8344,-3.8411,-3.8709,-3.8758,-3.8758,-3.8742,-3.9149,-3.9299,-3.9299,-3.9299,-3.9299,-3.9299,-3.9299,-3.9299,-3.9299,-3.9299,-3.9299,-3.9299,-3.9299,-3.9299,-3.9299,-3.9299,-3.9299,-3.9299,-3.9299,-3.9299,-3.9299,-3.9299,-3.9299,-3.9299,-3.9299,-3.9299,-3.9299,-3.9299,-3.9352,-3.894,-3.7502,-3.7278,-3.677,-3.5318,-3.6378,-3.7428,-3.7818,-3.9306,-4.0572,-4.1308,-4.1493,-4.1698,-4.198,-4.1986,-4.1781,-4.1299,-4.2267,-4.27,-4.245,-4.317,-4.393,-4.4637,-4.4712,-4.5051,-4.5637,-4.6371,-4.6491,-4.6143,-4.7273,-4.745,-4.6826,-4.729,-4.7519,-4.76,-4.7939,-4.8138,-4.8281,-4.8524,-4.8707,-4.8818,-4.8863,-4.8894,-4.8894,-3.8262,-3.8335,-3.8391,-3.8391,-3.8391,-3.8391,-3.8391,-3.8391,-3.8391,-3.8391,-3.8391,-3.8391,-3.8391,-3.8391,-3.8391,-3.8391,-3.8391,-3.8391,-3.8391,-3.8391,-3.8149,-3.757,-3.7376,-3.6697,-3.5398,-3.4787,-3.4488,-3.4448,-3.512,-3.5753,-3.6353,-3.7223,-3.7647,-3.7647,-3.7855,-3.7921,-3.7947,-3.7765,-3.7798,-3.798,-3.8361,-3.8295,-3.803,-3.8758,-3.905,-3.9083,-3.9249,-3.9299,-3.9299,-3.9299,-3.9299,-3.9299,-3.9299,-3.9299,-3.9299,-3.9299,-3.9299,-3.9299,-3.9299,-3.9299,-3.9299,-3.9299,-3.9299,-3.9299,-3.9299,-3.9299,-3.9299,-3.9299,-3.9299,-3.9299,-3.9299,-3.9299,-3.8818,-3.7359,0.0,-3.6704,-3.5586,-3.639,-3.75,-3.8593,-3.981,-4.0967,-4.1883,-4.2089,-4.2211,-4.2351,-4.2367,-4.2517,-4.2891,-4.2895,-4.3207,-4.3805,-4.4027,-4.4361,-4.49,-4.499,-4.544,-4.6262,-4.6768,-4.6768,-4.6315,-4.7032,-4.706,-4.6452,-4.7051,-4.7395,-4.7538,-4.7998,-4.8295,-4.85,-4.8511,-4.8564,-4.8675,-4.8786,-4.8769,-4.8738,-3.7943,-3.8177,-3.8391,-3.8391,-3.8391,-3.8391,-3.8391,-3.8391,-3.8391,-3.8391,-3.8391,-3.8391,-3.8391,-3.8391,-3.8391,-3.8391,-3.8391,-3.8391,-3.8391,-3.8391,-3.8375,-3.8327,-3.7679,-3.6643,-3.5244,-3.5146,-3.4866,-3.4325,-3.4374,-3.4497,-3.4702,-3.5564,-3.5984,-3.6017,-3.6836,-3.7185,-3.7152,-3.6456,-3.6555,-3.7135,-3.6506,-3.6622,-3.7268,-3.8013,-3.8295,-3.8377,-3.9067,-3.9299,-3.9299,-3.9299,-3.9299,-3.9299,-3.9299,-3.9299,-3.9299,-3.9299,-3.9299,-3.9299,-3.9299,-3.9299,-3.9299,-3.9299,-3.9299,-3.9299,-3.9299,-3.9299,-3.9299,-3.9299,-3.9299,-3.9299,-3.9299,-3.9299,-3.8844,-3.7411,0.0,0.0,-3.7028,-3.707,-3.788,-3.9995,-4.0452,-4.1166,-4.2565,-4.2824,-4.3136,-4.371,-4.376,-4.3689,-4.3529,-4.3545,-4.3562,-4.3628,-4.3923,-4.4361,-4.49,-4.5211,-4.5932,-4.6997,-4.7237,-4.7191,-4.6873,-4.7619,-4.7553,-4.6888,-4.7032,-4.7065,-4.6955,-4.7147,-4.7148,-4.7136,-4.812,-4.8388,-4.8292,-4.8675,-4.8675,-4.8515,-3.7594,-3.7682,-3.7844,-3.8046,-3.8103,-3.8177,-3.8363,-3.8391,-3.8391,-3.8391,-3.8391,-3.8391,-3.8391,-3.8391,-3.8391,-3.8391,-3.8391,-3.8391,-3.8391,-3.8391,-3.8197,-3.7744,-3.7036,-3.6432,-3.5882,-3.5412,-3.5107,-3.4866,-3.4487,-3.4553,-3.5085,-3.5488,-3.572,-3.5811,-3.6141,-3.6348,-3.6406,-3.6125,-3.6158,-3.6439,-3.6622,-3.6589,-3.6555,-3.7765,-3.8186,-3.8311,-3.905,-3.9299,-3.9299,-3.9299,-3.9299,-3.9299,-3.9299,-3.9299,-3.9299,-3.9299,-3.9299,-3.9299,-3.9299,-3.9299,-3.9299,-3.9299,-3.9299,-3.9299,-3.9299,-3.9299,-3.9299,-3.9299,-3.9299,-3.9299,-3.9299,-3.9299,-3.8818,-3.7368,0.0,-3.8321,-3.7882,-3.8586,-3.9769,-4.1508,-4.1735,-4.2161,-4.3202,-4.3331,-4.3477,-4.3717,-4.3704,-4.3687,-4.3598,-4.3598,-4.3598,-4.3598,-4.3717,-4.4341,-4.546,-4.6032,-4.6781,-4.7667,-4.7748,-4.7467,-4.6908,-4.7189,-4.6924,-4.6245,-4.6756,-4.7018,-4.7117,-4.7485,-4.7764,-4.7908,-4.8095,-4.8195,-4.8227,-4.8373,-4.8388,-4.8324,-3.7284,-3.7328,-3.7476,-3.7711,-3.774,-3.7828,-3.8062,-3.8177,-3.8234,-3.8234,-3.8335,-3.8391,-3.8391,-3.8391,-3.8391,-3.8391,-3.8391,-3.8391,-3.8391,-3.8391,-3.8181,-3.7679,-3.6999,-3.6529,-3.6303,-3.5801,-3.5315,-3.4845,-3.4672,-3.4722,-3.4982,-3.5125,-3.525,-3.5325,-3.5375,-3.5449,-3.5522,-3.5571,-3.5596,-3.5645,-3.6183,-3.6108,-3.5794,-3.7052,-3.7516,-3.7615,-3.8328,-3.8619,-3.8652,-3.8884,-3.8941,-3.9017,-3.9232,-3.9299,-3.9299,-3.9299,-3.9299,-3.9299,-3.9299,-3.9299,-3.9299,-3.9299,-3.9299,-3.9299,-3.9299,-3.9299,-3.9299,-3.9299,-3.9299,-3.9299,-3.9299,-3.9497,-3.9315,-3.8295,-3.9156,-3.9769,-3.9288,-4.0083,-4.116,-4.2357,-4.2489,-4.2787,-4.3515,-4.3598,-4.3598,-4.3598,-4.3598,-4.3598,-4.3598,-4.3598,-4.3598,-4.3598,-4.3813,-4.444,-4.5433,-4.6242,-4.7104,-4.8001,-4.785,-4.7585,-4.7239,-4.7007,-4.6742,-4.651,-4.7023,-4.732,-4.7466,-4.7867,-4.8131,-4.8324,-4.8147,-4.8082,-4.8147,-4.8195,-4.8163,-4.8179,-3.7015,-3.721,-3.7387,-3.7387,-3.7387,-3.7417,-3.7417,-3.7666,-3.7915,-3.7915,-3.8205,-3.8391,-3.8391,-3.8391,-3.8391,-3.8391,-3.8391,-3.8391,-3.8391,-3.8391,-3.8391,-3.8391,-3.7711,-3.6988,-3.6335,-3.6319,-3.559,-3.4117,-3.4855,-3.4813,-3.4101,-3.4226,-3.43,-3.43,-3.4448,-3.4497,-3.4497,-3.4643,-3.4691,-3.4715,-3.4835,-3.4899,-3.4982,-3.5727,-3.6009,-3.6108,-3.6854,-3.7119,-3.7235,-3.7954,-3.8228,-3.8344,-3.9083,-3.9299,-3.9299,-3.9299,-3.9299,-3.9299,-3.9299,-3.9299,-3.9299,-3.9299,-3.9299,-3.9299,-3.9299,-3.9299,-3.9299,-3.9299,-3.9299,-3.9315,-3.9315,-3.9912,-4.0426,-4.0426,-4.0961,-4.1409,-4.1425,-4.1397,-4.1662,-4.2406,-4.2506,-4.2787,-4.3515,-4.3598,-4.3598,-4.3598,-4.3598,-4.3598,-4.3598,-4.3598,-4.3598,-4.3598,-4.4307,-4.4671,-4.4688,-4.5635,-4.6749,-4.7984,-4.7464,-4.7466,-4.7968,-4.7239,-4.7305,-4.7984,-4.7984,-4.7984,-4.7984,-4.7984,-4.8001,-4.8001,-4.813,-4.8098,-4.8001,-4.8147,-4.8115,-4.8001,-3.6585,-3.6693,-3.6846,-3.7075,-3.7105,-3.718,-3.7358,-3.746,-3.7637,-3.7886,-3.7988,-3.8132,-3.8363,-3.8391,-3.8391,-3.8391,-3.8391,-3.8391,-3.8391,-3.8391,-3.8391,-3.8391,-3.8197,-3.7987,-3.7776,-3.6821,-3.6092,-3.5639,-3.4829,-3.4311,-3.4101,-3.4151,-3.4201,-3.43,-3.4349,-3.4423,-3.4497,-3.4546,-3.4546,-3.457,-3.4707,-3.4763,-3.4846,-3.5662,-3.6324,-3.687,-3.7615,-3.8195,-3.8685,-3.8917,-3.8984,-3.9017,-3.9232,-3.9299,-3.9299,-3.9299,-3.9299,-3.9299,-3.9299,-3.9299,-3.9299,-3.9299,-3.9299,-3.9299,-3.9299,-3.9299,-3.9299,-3.9299,-3.9713,-4.0078,-4.0078,-4.063,-4.111,-4.111,-4.1276,-4.1591,-4.2092,-4.2158,-4.244,-4.3184,-4.3267,-4.335,-4.3582,-4.3598,-4.3598,-4.3598,-4.3598,-4.3598,-4.3598,-4.3598,-4.3598,-4.3598,-4.3797,-4.4175,-4.4671,-4.5495,-4.6341,-4.7222,-4.7071,-4.7353,-4.7968,-4.7239,-4.7023,-4.7222,-4.7222,-4.7222,-4.7222,-4.7222,-4.7537,-4.7951,-4.7486,-4.7569,-4.8001,-4.8017,-4.8033,-4.8001,-3.5816,-3.6053,-3.6258,-3.6445,-3.6647,-3.6862,-3.7013,-3.7164,-3.7314,-3.7522,-3.774,-3.7988,-3.8177,-3.8307,-3.8391,-3.8391,-3.8132,-3.797,-3.797,-3.797,-3.81,-3.8391,-3.8391,-3.8262,-3.7987,-3.6886,-3.6157,-3.5849,-3.4959,-3.4376,-3.4101,-3.4101,-3.4151,-3.4226,-3.4226,-3.4275,-3.4349,-3.4399,-3.4423,-3.4423,-3.457,-3.4643,-3.4757,-3.5299,-3.5794,-3.634,-3.7069,-3.7615,-3.8063,-3.8659,-3.9067,-3.9299,-3.9299,-3.9299,-3.9299,-3.9299,-3.9299,-3.9299,-3.9299,-3.9299,-3.9299,-3.9299,-3.9299,-3.9299,-3.9299,-3.9531,-3.9746,-3.9746,-4.031,-4.0796,-4.0796,-4.1375,-4.1827,-4.1827,-4.2059,-4.2423,-4.287,-4.2936,-4.3085,-4.3549,-4.3598,-4.3598,-4.3598,-4.3598,-4.3598,-4.3598,-4.3598,-4.3598,-4.3598,-4.3598,-4.3598,-4.3598,-4.3598,-4.3797,-4.4257,-4.4705,-4.545,-4.646,-4.6162,-4.656,-4.7537,-4.6792,-4.6775,-4.7322,-4.7023,-4.6891,-4.6891,-4.6891,-4.7156,-4.7554,-4.7404,-4.7603,-4.8001,-4.8001,-4.8001,-4.8001,-3.4876,-3.5285,-3.5623,-3.5623,-3.6022,-3.6352,-3.6352,-3.6647,-3.6908,-3.6908,-3.7449,-3.7812,-3.7761,-3.8051,-3.8234,-3.8169,-3.7635,-3.7263,-3.7198,-3.7328,-3.7679,-3.8278,-3.8359,-3.8051,-3.7311,-3.6707,-3.5995,-3.5211,-3.5211,-3.4813,-3.4101,-3.4101,-3.4101,-3.4101,-3.4101,-3.4101,-3.4101,-3.4226,-3.4275,-3.43,-3.4423,-3.4546,-3.4683,-3.4749,-3.4912,-3.5173,-3.5902,-3.6241,-3.6506,-3.7864,-3.8742,-3.9299,-3.9299,-3.9299,-3.9299,-3.9299,-3.9299,-3.9299,-3.9299,-3.9299,-3.9299,-3.9299,-3.9299,-3.9315,-3.9381,-3.9928,-4.0426,-4.0492,-4.1028,-4.1508,-4.1508,-4.2092,-4.2589,-4.2589,-4.3151,-4.3598,-4.3598,-4.3598,-4.3598,-4.3598,-4.3598,-4.3598,-4.3598,-4.3598,-4.3598,-4.3598,-4.3598,-4.3598,-4.3598,-4.3598,-4.3598,-4.3598,-4.3598,-4.3598,-4.3598,-4.3598,-4.4324,-4.5682,-4.5003,-4.5467,-4.6874,-4.6063,-4.646,-4.7769,-4.7023,-4.6692,-4.6692,-4.6692,-4.6742,-4.6858,-4.7471,-4.7752,-4.7802,-4.7802,-4.7852,-4.7901,-3.481,-3.4975,-3.5073,-3.5073,-3.5187,-3.5252,-3.5252,-3.5688,-3.6085,-3.6336,-3.6846,-3.7081,-3.6745,-3.6969,-3.6958,-3.6396,-3.6943,-3.7096,-3.6562,-3.7549,-3.7987,-3.7566,-3.81,-3.8051,-3.7311,-3.715,-3.6465,-3.5211,-3.5211,-3.4813,-3.4101,-3.4101,-3.4101,-3.4101,-3.4101,-3.4101,-3.4101,-3.4126,-3.4151,-3.4151,-3.43,-3.4349,-3.4464,-3.5136,-3.5851,-3.657,-3.7312,-3.8018,-3.8636,-3.8967,-3.9183,-3.9299,-3.9299,-3.9299,-3.9299,-3.9299,-3.9299,-3.9299,-3.9299,-3.9299,-3.9299,-3.9299,-3.9299,-3.9448,-4.0028,-4.0293,-4.0558,-4.1077,-4.1773,-4.2258,-4.2258,-4.2853,-4.335,-4.335,-4.3499,-4.3598,-4.3598,-4.3598,-4.3598,-4.3598,-4.3598,-4.3598,-4.3598,-4.3598,-4.3598,-4.3598,-4.3598,-4.3598,-4.3598,-4.3598,-4.3598,-4.3598,-4.3598,-4.3598,-4.3598,-4.3598,-4.4059,-4.492,-4.4771,-4.5467,-4.6858,-4.5533,-4.5417,-4.6228,-4.5483,-4.5168,-4.5168,-4.5168,-4.5516,-4.5997,-4.5566,-4.5765,-4.6278,-4.6278,-4.6643,-4.7139,-3.4065,-3.4356,-3.4509,-3.4509,-3.4743,-3.4909,-3.4909,-3.5154,-3.5382,-3.5576,-3.5671,-3.5784,-3.582,-3.5828,-3.5681,-3.5342,-3.5808,-3.6023,-3.5801,-3.6448,-3.6853,-3.681,-3.7193,-3.7048,-3.6319,-3.6659,-3.6287,-3.5211,-3.4845,-3.4473,-3.4101,-3.4101,-3.4101,-3.4101,-3.4101,-3.4101,-3.4101,-3.4101,-3.4101,-3.4101,-3.4176,-3.4462,-3.4879,-3.5346,-3.6037,-3.6861,-3.7696,-3.8553,-3.9299,-3.9299,-3.9299,-3.9299,-3.9299,-3.9299,-3.9299,-3.9299,-3.9299,-3.9299,-3.9299,-3.9299,-3.9299,-3.9299,-3.9564,-3.9829,-3.9879,-4.016,-4.0608,-4.1276,-4.2005,-4.2605,-4.2953,-4.3333,-4.3598,-4.3598,-4.3598,-4.3598,-4.3598,-4.3598,-4.3598,-4.3598,-4.3598,-4.3598,-4.3598,-4.3598,-4.3598,-4.3598,-4.3598,-4.3598,-4.3598,-4.3598,-4.3598,-4.3598,-4.3598,-4.3764,-4.4125,-4.3764,-4.3976,-4.4688,-4.4688,-4.5284,-4.6361,-4.593,-4.5947,-4.6278,-4.5533,-4.5019,-4.4688,-4.4688,-4.4951,-4.5251,-4.5235,-4.545,-4.5798,-4.5798,-4.603,-4.6378,-3.329,-3.3667,-3.3948,-3.3948,-3.4322,-3.4624,-3.4624,-3.471,-3.4747,-3.4611,-3.4453,-3.4401,-3.4622,-3.4356,-3.4198,-3.4409,-3.458,-3.4755,-3.493,-3.5234,-3.559,-3.6092,-3.6238,-3.5946,-3.5228,-3.5801,-3.5752,-3.5017,-3.4522,-3.4214,-3.4101,-3.4101,-3.4101,-3.4101,-3.4101,-3.4101,-3.4101,-3.4101,-3.4101,-3.4117,-3.423,-3.4711,-3.5382,-3.5626,-3.616,-3.6879,-3.7797,-3.8572,-3.9218,-3.9245,-3.9245,-3.9245,-3.9299,-3.9299,-3.9299,-3.9299,-3.9299,-3.9299,-3.9299,-3.9299,-3.9299,-3.9299,-3.9763,-4.0094,-3.9597,-4.016,-4.0912,-4.1475,-4.2158,-4.287,-4.3482,-4.3598,-4.3598,-4.3598,-4.3598,-4.3598,-4.3598,-4.3598,-4.3598,-4.3598,-4.3598,-4.3598,-4.3598,-4.3598,-4.3598,-4.3598,-4.3598,-4.3598,-4.3598,-4.3598,-4.3598,-4.3598,-4.3598,-4.388,-4.4506,-4.4042,-4.4042,-4.4506,-4.4754,-4.5202,-4.5814,-4.6427,-4.6709,-4.6659,-4.5914,-4.5185,-4.4506,-4.4506,-4.4506,-4.4572,-4.5185,-4.5417,-4.5433,-4.5566,-4.5599,-4.5599,-3.329,-3.3347,-3.3417,-3.3417,-3.3486,-3.3521,-3.3521,-3.3894,-3.4018,-3.3512,-3.3783,-3.3648,-3.2553,-3.2079,-3.2118,-3.2851,-3.3681,-3.41,-3.3912,-3.5314,-3.5914,-3.5364,-3.5963,-3.5946,-3.5228,-3.5309,-3.5001,-3.4246,-3.4781,-3.4716,-3.4101,-3.4101,-3.4101,-3.4101,-3.4101,-3.4101,-3.4101,-3.4101,-3.4101,-3.4165,-3.4781,-3.5114,-3.5367,-3.6589,-3.7172,-3.747,-3.8236,-3.8657,-3.8887,-3.8996,-3.9023,-3.9067,-3.9245,-3.9299,-3.9299,-3.9299,-3.9299,-3.9299,-3.9299,-3.9299,-3.9299,-3.9299,-3.9381,-3.9597,-4.0144,-4.1259,-4.2224,-4.2324,-4.2936,-4.3466,-4.3582,-4.3598,-4.3598,-4.3598,-4.3598,-4.3598,-4.3598,-4.3598,-4.3598,-4.3598,-4.3598,-4.3598,-4.3598,-4.3598,-4.3598,-4.3598,-4.3598,-4.3598,-4.3598,-4.3598,-4.3598,-4.3598,-4.3598,-4.3648,-4.3731,-4.4274,-4.4274,-4.3747,-4.5036,-4.5698,-4.5798,-4.5897,-4.5947,-4.5897,-4.5152,-4.4423,-4.3731,-4.3731,-4.3731,-4.3747,-4.3847,-4.3896,-4.3962,-4.4605,-4.4868,-4.4868,-3.244,-3.2848,-3.3178,-3.2876,-3.2806,-3.2806,-3.2806,-3.2701,-3.2544,-3.2288,-3.2133,-3.1913,-3.16,-3.1337,-3.1363,-3.189,-3.2346,-3.2616,-3.2695,-3.342,-3.3869,-3.3969,-3.4271,-3.4488,-3.4586,-3.4586,-3.4424,-3.4101,-3.4424,-3.4408,-3.4101,-3.4101,-3.4101,-3.4101,-3.4101,-3.4101,-3.4133,-3.4538,-3.47,-3.4732,-3.5082,-3.5655,-3.64,-3.6659,-3.7253,-3.8066,-3.8446,-3.8699,-3.8805,-3.886,-3.8887,-3.8914,-3.9094,-3.9121,-3.9148,-3.9272,-3.9299,-3.9299,-3.9299,-3.9299,-3.9398,-3.9812,-4.0183,-4.0564,-4.0878,-4.2088,-4.2986,-4.2572,-4.2754,-4.3102,-4.3515,-4.3598,-4.3598,-4.3598,-4.3598,-4.3598,-4.3598,-4.3598,-4.3598,-4.3598,-4.3598,-4.3598,-4.3598,-4.3598,-4.3598,-4.3598,-4.3598,-4.3598,-4.3598,-4.3598,-4.3598,-4.3598,-4.3598,-4.378,-4.4208,-4.4141,-4.4141,-4.4224,-4.487,-4.5185,-4.5185,-4.5599,-4.5566,-4.5152,-4.4821,-4.4274,-4.3598,-4.3598,-4.3598,-4.3598,-4.3598,-4.3598,-4.3631,-4.3976,-4.4092,-4.4092]}]]